<?xml version="1.0" encoding="UTF-8"?>
<gpx version="1.1" creator="https://www.youtrack.es" xsi:schemaLocation="http://www.topografix.com/GPX/1/1 http://www.topografix.com/GPX/1/1/gpx.xsd http://www.garmin.com/xmlschemas/GpxExtensions/v3 http://www.garmin.com/xmlschemas/GpxExtensionsv3.xsd http://www.garmin.com/xmlschemas/TrackPointExtension/v1 http://www.garmin.com/xmlschemas/TrackPointExtensionv1.xsd" xmlns:gpxtpx="http://www.garmin.com/xmlschemas/TrackPointExtension/v1" xmlns:gpxx="http://www.garmin.com/xmlschemas/GpxExtensions/v3" xmlns:xsi="http://www.w3.org/2001/XMLSchema-instance">
  <metadata>
    <link href="https://www.youtrack.es">
      <text>YouTrack.es</text>
    </link>
    <time>2026-05-08T22:29:01Z</time>
  </metadata>
  <trk>
    <src>https://www.youtrack.es</src>
    <link href="https://www.youtrack.es/ruta/31360-cirat">
      <text>YouTrack.es</text>
    </link>
    <trkseg>
      <trkpt lat="40.05519572748379" lon="-0.4630325783093225">
        <ele>410.2</ele>
        <time>2022-04-23T07:19:59.000Z</time>
      </trkpt>
      <trkpt lat="40.055127651570515" lon="-0.462995587554404">
        <ele>410.2</ele>
        <time>2022-04-23T07:20:07.000Z</time>
      </trkpt>
      <trkpt lat="40.055056169724054" lon="-0.46289288620233876">
        <ele>410.1</ele>
        <time>2022-04-23T07:20:19.000Z</time>
      </trkpt>
      <trkpt lat="40.05483605358449" lon="-0.4628811650858939">
        <ele>409.4</ele>
        <time>2022-04-23T07:20:39.000Z</time>
      </trkpt>
      <trkpt lat="40.05482047515744" lon="-0.4627858896295635">
        <ele>409</ele>
        <time>2022-04-23T07:20:47.000Z</time>
      </trkpt>
      <trkpt lat="40.05492722444321" lon="-0.4626222415117761">
        <ele>407.1</ele>
        <time>2022-04-23T07:21:05.000Z</time>
      </trkpt>
      <trkpt lat="40.05466106185373" lon="-0.46237174649471946">
        <ele>401.8</ele>
        <time>2022-04-23T07:21:33.000Z</time>
      </trkpt>
      <trkpt lat="40.054648620990534" lon="-0.46232635394413">
        <ele>399.4</ele>
        <time>2022-04-23T07:21:43.000Z</time>
      </trkpt>
      <trkpt lat="40.05452081601933" lon="-0.46233991695644344">
        <ele>397.2</ele>
        <time>2022-04-23T07:21:58.000Z</time>
      </trkpt>
      <trkpt lat="40.054365294155" lon="-0.4625254188062312">
        <ele>396.2</ele>
        <time>2022-04-23T07:22:21.000Z</time>
      </trkpt>
      <trkpt lat="40.05426544811165" lon="-0.4625842776545819">
        <ele>395.7</ele>
        <time>2022-04-23T07:22:36.000Z</time>
      </trkpt>
      <trkpt lat="40.05425871660023" lon="-0.4626579427266519">
        <ele>395.8</ele>
        <time>2022-04-23T07:23:02.000Z</time>
      </trkpt>
      <trkpt lat="40.05430281005577" lon="-0.4625086409093236">
        <ele>396.4</ele>
        <time>2022-04-23T07:25:27.000Z</time>
      </trkpt>
      <trkpt lat="40.054252659681026" lon="-0.46214653330167893">
        <ele>397.9</ele>
        <time>2022-04-23T07:26:57.000Z</time>
      </trkpt>
      <trkpt lat="40.054197644819524" lon="-0.46205372593759786">
        <ele>398.9</ele>
        <time>2022-04-23T07:27:07.000Z</time>
      </trkpt>
      <trkpt lat="40.05405633030286" lon="-0.4620569640208346">
        <ele>399.4</ele>
        <time>2022-04-23T07:27:21.000Z</time>
      </trkpt>
      <trkpt lat="40.053730446385515" lon="-0.4622130575224446">
        <ele>401.9</ele>
        <time>2022-04-23T07:27:59.000Z</time>
      </trkpt>
      <trkpt lat="40.053798702634474" lon="-0.462239943244916">
        <ele>402.7</ele>
        <time>2022-04-23T07:28:13.000Z</time>
      </trkpt>
      <trkpt lat="40.05369609081152" lon="-0.46228859236039577">
        <ele>404.5</ele>
        <time>2022-04-23T07:28:28.000Z</time>
      </trkpt>
      <trkpt lat="40.053470860222156" lon="-0.462539028038943">
        <ele>408.3</ele>
        <time>2022-04-23T07:28:59.000Z</time>
      </trkpt>
      <trkpt lat="40.053406367242694" lon="-0.4626348134195124">
        <ele>409.9</ele>
        <time>2022-04-23T07:29:10.000Z</time>
      </trkpt>
      <trkpt lat="40.05336135643806" lon="-0.46278155780046254">
        <ele>411.3</ele>
        <time>2022-04-23T07:29:23.000Z</time>
      </trkpt>
      <trkpt lat="40.05335260951014" lon="-0.46296508826949107">
        <ele>412.6</ele>
        <time>2022-04-23T07:29:37.000Z</time>
      </trkpt>
      <trkpt lat="40.05338820952654" lon="-0.4632324875793024">
        <ele>413.3</ele>
        <time>2022-04-23T07:29:57.000Z</time>
      </trkpt>
      <trkpt lat="40.05348150311477" lon="-0.46360650981268">
        <ele>411</ele>
        <time>2022-04-23T07:30:25.000Z</time>
      </trkpt>
      <trkpt lat="40.0534457482076" lon="-0.46382694980261635">
        <ele>410</ele>
        <time>2022-04-23T07:30:41.000Z</time>
      </trkpt>
      <trkpt lat="40.053452814494" lon="-0.4639759814868961">
        <ele>409.5</ele>
        <time>2022-04-23T07:30:50.000Z</time>
      </trkpt>
      <trkpt lat="40.053666181702184" lon="-0.46440651497779695">
        <ele>409.4</ele>
        <time>2022-04-23T07:31:26.000Z</time>
      </trkpt>
      <trkpt lat="40.05345245913288" lon="-0.46501653899913753">
        <ele>416.5</ele>
        <time>2022-04-23T07:32:15.000Z</time>
      </trkpt>
      <trkpt lat="40.05345330292097" lon="-0.465356094846223">
        <ele>417.8</ele>
        <time>2022-04-23T07:32:39.000Z</time>
      </trkpt>
      <trkpt lat="40.05353611793202" lon="-0.4655237940575107">
        <ele>419.8</ele>
        <time>2022-04-23T07:32:55.000Z</time>
      </trkpt>
      <trkpt lat="40.05352497662747" lon="-0.4655735428618547">
        <ele>420.7</ele>
        <time>2022-04-23T07:33:01.000Z</time>
      </trkpt>
      <trkpt lat="40.05332466345872" lon="-0.4656474875294169">
        <ele>422.3</ele>
        <time>2022-04-23T07:33:17.000Z</time>
      </trkpt>
      <trkpt lat="40.05305944133028" lon="-0.4658464091129591">
        <ele>424</ele>
        <time>2022-04-23T07:33:45.000Z</time>
      </trkpt>
      <trkpt lat="40.05303891713802" lon="-0.4658005897724036">
        <ele>424</ele>
        <time>2022-04-23T07:33:49.000Z</time>
      </trkpt>
      <trkpt lat="40.048738657871624" lon="-0.46817064705999056">
        <ele>423.9</ele>
        <time>2022-04-23T07:44:19.000Z</time>
      </trkpt>
      <trkpt lat="40.048680648281895" lon="-0.4681828956374904">
        <ele>424.4</ele>
        <time>2022-04-23T07:44:31.000Z</time>
      </trkpt>
      <trkpt lat="40.048643358349686" lon="-0.4681284824541775">
        <ele>428.3</ele>
        <time>2022-04-23T07:44:39.000Z</time>
      </trkpt>
      <trkpt lat="40.04868006846335" lon="-0.4678375933748132">
        <ele>450.5</ele>
        <time>2022-04-23T07:45:09.000Z</time>
      </trkpt>
      <trkpt lat="40.04853186865257" lon="-0.46769272936342643">
        <ele>466.8</ele>
        <time>2022-04-23T07:45:32.000Z</time>
      </trkpt>
      <trkpt lat="40.04843818614107" lon="-0.46754197724934965">
        <ele>478.6</ele>
        <time>2022-04-23T07:45:48.000Z</time>
      </trkpt>
      <trkpt lat="40.04838413130267" lon="-0.46751480442150845">
        <ele>482.2</ele>
        <time>2022-04-23T07:45:54.000Z</time>
      </trkpt>
      <trkpt lat="40.048339143683116" lon="-0.4675399157380468">
        <ele>484.6</ele>
        <time>2022-04-23T07:45:59.000Z</time>
      </trkpt>
      <trkpt lat="40.04827471910721" lon="-0.46766408706945517">
        <ele>492.9</ele>
        <time>2022-04-23T07:46:11.000Z</time>
      </trkpt>
      <trkpt lat="40.04812375715222" lon="-0.4676508662208321">
        <ele>501.9</ele>
        <time>2022-04-23T07:46:25.000Z</time>
      </trkpt>
      <trkpt lat="40.04794373447628" lon="-0.46777193759039426">
        <ele>494.4</ele>
        <time>2022-04-23T07:46:51.000Z</time>
      </trkpt>
      <trkpt lat="40.0478569025638" lon="-0.4677311836547533">
        <ele>490.5</ele>
        <time>2022-04-23T07:47:02.000Z</time>
      </trkpt>
      <trkpt lat="40.04774803781467" lon="-0.46775885710391507">
        <ele>487.4</ele>
        <time>2022-04-23T07:47:16.000Z</time>
      </trkpt>
      <trkpt lat="40.04761309599965" lon="-0.4677113923810245">
        <ele>484.6</ele>
        <time>2022-04-23T07:47:42.000Z</time>
      </trkpt>
      <trkpt lat="40.04756651832812" lon="-0.46771892817858157">
        <ele>483.7</ele>
        <time>2022-04-23T07:47:47.000Z</time>
      </trkpt>
      <trkpt lat="40.047568616073825" lon="-0.4677696272845384">
        <ele>482.3</ele>
        <time>2022-04-23T07:47:54.000Z</time>
      </trkpt>
      <trkpt lat="40.04748234479816" lon="-0.4677587925155583">
        <ele>480.6</ele>
        <time>2022-04-23T07:48:04.000Z</time>
      </trkpt>
      <trkpt lat="40.04735076696937" lon="-0.46795693666162796">
        <ele>479.4</ele>
        <time>2022-04-23T07:48:30.000Z</time>
      </trkpt>
      <trkpt lat="40.047104840307355" lon="-0.4681388828453495">
        <ele>475.2</ele>
        <time>2022-04-23T07:49:00.000Z</time>
      </trkpt>
      <trkpt lat="40.04700162898761" lon="-0.4683696709918987">
        <ele>473.4</ele>
        <time>2022-04-23T07:49:20.000Z</time>
      </trkpt>
      <trkpt lat="40.04690993957906" lon="-0.46848158362726217">
        <ele>471.2</ele>
        <time>2022-04-23T07:49:34.000Z</time>
      </trkpt>
      <trkpt lat="40.046847107552956" lon="-0.46873825890835935">
        <ele>468.3</ele>
        <time>2022-04-23T07:49:54.000Z</time>
      </trkpt>
      <trkpt lat="40.04672539412683" lon="-0.4688759274248442">
        <ele>466.5</ele>
        <time>2022-04-23T07:50:10.000Z</time>
      </trkpt>
      <trkpt lat="40.04668624964782" lon="-0.4691409947468262">
        <ele>463.4</ele>
        <time>2022-04-23T07:50:34.000Z</time>
      </trkpt>
      <trkpt lat="40.046496451847645" lon="-0.469620769706602">
        <ele>458.7</ele>
        <time>2022-04-23T07:51:15.000Z</time>
      </trkpt>
      <trkpt lat="40.04648865184384" lon="-0.4700183299024369">
        <ele>457.1</ele>
        <time>2022-04-23T07:51:40.000Z</time>
      </trkpt>
      <trkpt lat="40.04641657722781" lon="-0.47037200232161536">
        <ele>454</ele>
        <time>2022-04-23T07:52:04.000Z</time>
      </trkpt>
      <trkpt lat="40.04641191751284" lon="-0.4707988726475131">
        <ele>452.2</ele>
        <time>2022-04-23T07:52:26.000Z</time>
      </trkpt>
      <trkpt lat="40.046499165200174" lon="-0.4709425862969304">
        <ele>452.3</ele>
        <time>2022-04-23T07:52:44.000Z</time>
      </trkpt>
      <trkpt lat="40.046732341508466" lon="-0.4711364748514979">
        <ele>454.3</ele>
        <time>2022-04-23T07:53:12.000Z</time>
      </trkpt>
      <trkpt lat="40.04677797637767" lon="-0.47129883349208457">
        <ele>452.7</ele>
        <time>2022-04-23T07:53:26.000Z</time>
      </trkpt>
      <trkpt lat="40.04671852562079" lon="-0.471605039484515">
        <ele>448.5</ele>
        <time>2022-04-23T07:53:51.000Z</time>
      </trkpt>
      <trkpt lat="40.04658270656445" lon="-0.47155094004478904">
        <ele>448.1</ele>
        <time>2022-04-23T07:54:11.000Z</time>
      </trkpt>
      <trkpt lat="40.04660672978684" lon="-0.4715305256961148">
        <ele>448</ele>
        <time>2022-04-23T07:54:22.000Z</time>
      </trkpt>
      <trkpt lat="40.04656653857731" lon="-0.4714854494055611">
        <ele>447.1</ele>
        <time>2022-04-23T07:54:32.000Z</time>
      </trkpt>
      <trkpt lat="40.04664113585971" lon="-0.47136146119822847">
        <ele>446.8</ele>
        <time>2022-04-23T07:54:40.000Z</time>
      </trkpt>
      <trkpt lat="40.046789379572424" lon="-0.4712394980109893">
        <ele>446.6</ele>
        <time>2022-04-23T07:54:54.000Z</time>
      </trkpt>
      <trkpt lat="40.04676812085973" lon="-0.47121076561820135">
        <ele>445</ele>
        <time>2022-04-23T07:55:11.000Z</time>
      </trkpt>
      <trkpt lat="40.04667709923635" lon="-0.4712187094223773">
        <ele>444</ele>
        <time>2022-04-23T07:55:24.000Z</time>
      </trkpt>
      <trkpt lat="40.046460024716865" lon="-0.47129767757313884">
        <ele>443.4</ele>
        <time>2022-04-23T07:55:50.000Z</time>
      </trkpt>
      <trkpt lat="40.046560477701355" lon="-0.4712323544805022">
        <ele>443.8</ele>
        <time>2022-04-23T07:56:08.000Z</time>
      </trkpt>
      <trkpt lat="40.046570697081826" lon="-0.47116044280281993">
        <ele>443.8</ele>
        <time>2022-04-23T07:56:18.000Z</time>
      </trkpt>
      <trkpt lat="40.04649465672573" lon="-0.4711791041305576">
        <ele>444.1</ele>
        <time>2022-04-23T07:56:27.000Z</time>
      </trkpt>
      <trkpt lat="40.046481363752086" lon="-0.47126753814414146">
        <ele>444.1</ele>
        <time>2022-04-23T07:56:35.000Z</time>
      </trkpt>
      <trkpt lat="40.046592500906286" lon="-0.4713458825684956">
        <ele>446.1</ele>
        <time>2022-04-23T07:56:49.000Z</time>
      </trkpt>
      <trkpt lat="40.04664450661331" lon="-0.47142892378981677">
        <ele>447</ele>
        <time>2022-04-23T07:57:01.000Z</time>
      </trkpt>
      <trkpt lat="40.046488202003836" lon="-0.47135889033084594">
        <ele>448.8</ele>
        <time>2022-04-23T07:57:17.000Z</time>
      </trkpt>
      <trkpt lat="40.0463927793478" lon="-0.47118824580509777">
        <ele>451.3</ele>
        <time>2022-04-23T07:57:35.000Z</time>
      </trkpt>
      <trkpt lat="40.046160865736766" lon="-0.4711321128317055">
        <ele>453.8</ele>
        <time>2022-04-23T07:57:55.000Z</time>
      </trkpt>
      <trkpt lat="40.046204888613104" lon="-0.471212824859194">
        <ele>455.6</ele>
        <time>2022-04-23T07:58:09.000Z</time>
      </trkpt>
      <trkpt lat="40.04602783008615" lon="-0.47141946262635204">
        <ele>457.2</ele>
        <time>2022-04-23T07:58:25.000Z</time>
      </trkpt>
      <trkpt lat="40.045858285181275" lon="-0.4714782034892402">
        <ele>458</ele>
        <time>2022-04-23T07:58:40.000Z</time>
      </trkpt>
      <trkpt lat="40.04572511834785" lon="-0.47174986732103935">
        <ele>459.6</ele>
        <time>2022-04-23T07:59:03.000Z</time>
      </trkpt>
      <trkpt lat="40.04556005671928" lon="-0.4724403187779791">
        <ele>463.2</ele>
        <time>2022-04-23T07:59:56.000Z</time>
      </trkpt>
      <trkpt lat="40.04547086548946" lon="-0.47248683410853703">
        <ele>464.1</ele>
        <time>2022-04-23T08:00:07.000Z</time>
      </trkpt>
      <trkpt lat="40.045444738362" lon="-0.4726210227019365">
        <ele>465.2</ele>
        <time>2022-04-23T08:00:18.000Z</time>
      </trkpt>
      <trkpt lat="40.045365136553386" lon="-0.4726605488984085">
        <ele>465.9</ele>
        <time>2022-04-23T08:00:30.000Z</time>
      </trkpt>
      <trkpt lat="40.04523021646366" lon="-0.47294363916834214">
        <ele>468.3</ele>
        <time>2022-04-23T08:01:00.000Z</time>
      </trkpt>
      <trkpt lat="40.04499362615893" lon="-0.47325177086598325">
        <ele>469.8</ele>
        <time>2022-04-23T08:01:33.000Z</time>
      </trkpt>
      <trkpt lat="40.044939141394664" lon="-0.47336894732690066">
        <ele>469.8</ele>
        <time>2022-04-23T08:01:44.000Z</time>
      </trkpt>
      <trkpt lat="40.04492208891716" lon="-0.47353464024580966">
        <ele>470.5</ele>
        <time>2022-04-23T08:01:58.000Z</time>
      </trkpt>
      <trkpt lat="40.04432021648066" lon="-0.4740456408853453">
        <ele>474</ele>
        <time>2022-04-23T08:03:05.000Z</time>
      </trkpt>
      <trkpt lat="40.04416278961913" lon="-0.4742879986909745">
        <ele>475.4</ele>
        <time>2022-04-23T08:03:33.000Z</time>
      </trkpt>
      <trkpt lat="40.04387615530025" lon="-0.47460306058397744">
        <ele>477</ele>
        <time>2022-04-23T08:04:06.000Z</time>
      </trkpt>
      <trkpt lat="40.04366784673699" lon="-0.474768432787755">
        <ele>478.3</ele>
        <time>2022-04-23T08:04:27.000Z</time>
      </trkpt>
      <trkpt lat="40.04336860624344" lon="-0.4751538579542575">
        <ele>481.6</ele>
        <time>2022-04-23T08:05:03.000Z</time>
      </trkpt>
      <trkpt lat="40.043282062598884" lon="-0.47532384331667965">
        <ele>481.2</ele>
        <time>2022-04-23T08:05:17.000Z</time>
      </trkpt>
      <trkpt lat="40.04317412955992" lon="-0.4756933829683119">
        <ele>480.7</ele>
        <time>2022-04-23T08:05:41.000Z</time>
      </trkpt>
      <trkpt lat="40.0426087336217" lon="-0.47663631466397843">
        <ele>477.3</ele>
        <time>2022-04-23T08:07:05.000Z</time>
      </trkpt>
      <trkpt lat="40.04246757606873" lon="-0.476785911391353">
        <ele>477.1</ele>
        <time>2022-04-23T08:07:21.000Z</time>
      </trkpt>
      <trkpt lat="40.04224370923035" lon="-0.4769131291633056">
        <ele>476.7</ele>
        <time>2022-04-23T08:07:42.000Z</time>
      </trkpt>
      <trkpt lat="40.04207424928133" lon="-0.47708089586658803">
        <ele>476.8</ele>
        <time>2022-04-23T08:08:00.000Z</time>
      </trkpt>
      <trkpt lat="40.04193399863809" lon="-0.47710778165025247">
        <ele>475.8</ele>
        <time>2022-04-23T08:08:13.000Z</time>
      </trkpt>
      <trkpt lat="40.04165104315262" lon="-0.47703755124909664">
        <ele>474.9</ele>
        <time>2022-04-23T08:08:39.000Z</time>
      </trkpt>
      <trkpt lat="40.04143040239" lon="-0.4771219653257319">
        <ele>472.2</ele>
        <time>2022-04-23T08:09:03.000Z</time>
      </trkpt>
      <trkpt lat="40.04132777856521" lon="-0.4774314230308178">
        <ele>468.5</ele>
        <time>2022-04-23T08:09:31.000Z</time>
      </trkpt>
      <trkpt lat="40.04123116571279" lon="-0.47755974870115686">
        <ele>467.5</ele>
        <time>2022-04-23T08:09:42.000Z</time>
      </trkpt>
      <trkpt lat="40.041222098408355" lon="-0.47765885371011535">
        <ele>466.4</ele>
        <time>2022-04-23T08:09:53.000Z</time>
      </trkpt>
      <trkpt lat="40.041138425963986" lon="-0.4777505329602851">
        <ele>466.2</ele>
        <time>2022-04-23T08:10:06.000Z</time>
      </trkpt>
      <trkpt lat="40.041076292563325" lon="-0.4778972695006764">
        <ele>468</ele>
        <time>2022-04-23T08:10:38.000Z</time>
      </trkpt>
      <trkpt lat="40.041071689290554" lon="-0.4779884315082478">
        <ele>469.1</ele>
        <time>2022-04-23T08:10:51.000Z</time>
      </trkpt>
      <trkpt lat="40.04097612248933" lon="-0.47801992807609356">
        <ele>470.5</ele>
        <time>2022-04-23T08:11:02.000Z</time>
      </trkpt>
      <trkpt lat="40.04097720476108" lon="-0.47792390484861363">
        <ele>471.6</ele>
        <time>2022-04-23T08:11:12.000Z</time>
      </trkpt>
      <trkpt lat="40.04094346001915" lon="-0.47793637930632527">
        <ele>472.8</ele>
        <time>2022-04-23T08:11:20.000Z</time>
      </trkpt>
      <trkpt lat="40.04090660986854" lon="-0.4778935934106024">
        <ele>474.3</ele>
        <time>2022-04-23T08:11:31.000Z</time>
      </trkpt>
      <trkpt lat="40.04086240460436" lon="-0.47792887896553593">
        <ele>475.7</ele>
        <time>2022-04-23T08:11:39.000Z</time>
      </trkpt>
      <trkpt lat="40.04089439541413" lon="-0.4781291920933631">
        <ele>479</ele>
        <time>2022-04-23T08:12:05.000Z</time>
      </trkpt>
      <trkpt lat="40.04070817907922" lon="-0.4782562491128219">
        <ele>483.4</ele>
        <time>2022-04-23T08:12:33.000Z</time>
      </trkpt>
      <trkpt lat="40.04063455119477" lon="-0.4784190715009818">
        <ele>485.9</ele>
        <time>2022-04-23T08:12:51.000Z</time>
      </trkpt>
      <trkpt lat="40.04062041208104" lon="-0.4785789817781858">
        <ele>486.1</ele>
        <time>2022-04-23T08:13:06.000Z</time>
      </trkpt>
      <trkpt lat="40.04050027769562" lon="-0.47892353542476235">
        <ele>491.7</ele>
        <time>2022-04-23T08:13:39.000Z</time>
      </trkpt>
      <trkpt lat="40.04057737225568" lon="-0.4791356279310939">
        <ele>493.6</ele>
        <time>2022-04-23T08:14:00.000Z</time>
      </trkpt>
      <trkpt lat="40.04058494382016" lon="-0.47938472507242963">
        <ele>497.3</ele>
        <time>2022-04-23T08:14:30.000Z</time>
      </trkpt>
      <trkpt lat="40.04041069417167" lon="-0.47955543831415093">
        <ele>499.8</ele>
        <time>2022-04-23T08:14:46.000Z</time>
      </trkpt>
      <trkpt lat="40.0405738425082" lon="-0.4795477461408879">
        <ele>500.4</ele>
        <time>2022-04-23T08:15:08.000Z</time>
      </trkpt>
      <trkpt lat="40.04061253299777" lon="-0.4796020241047445">
        <ele>500</ele>
        <time>2022-04-23T08:15:18.000Z</time>
      </trkpt>
      <trkpt lat="40.04060841744857" lon="-0.47965276411643337">
        <ele>500</ele>
        <time>2022-04-23T08:15:27.000Z</time>
      </trkpt>
      <trkpt lat="40.04060682413465" lon="-0.4796133161725532">
        <ele>500.4</ele>
        <time>2022-04-23T08:15:46.000Z</time>
      </trkpt>
      <trkpt lat="40.04066691831901" lon="-0.4796052695015501">
        <ele>500.2</ele>
        <time>2022-04-23T08:15:58.000Z</time>
      </trkpt>
      <trkpt lat="40.0406134644185" lon="-0.47949092520581293">
        <ele>500.2</ele>
        <time>2022-04-23T08:16:19.000Z</time>
      </trkpt>
      <trkpt lat="40.040534818883955" lon="-0.47962399907797654">
        <ele>502</ele>
        <time>2022-04-23T08:16:39.000Z</time>
      </trkpt>
      <trkpt lat="40.04049940849391" lon="-0.47961941490294996">
        <ele>502.7</ele>
        <time>2022-04-23T08:16:45.000Z</time>
      </trkpt>
      <trkpt lat="40.04046679143226" lon="-0.4795376698121745">
        <ele>504.2</ele>
        <time>2022-04-23T08:16:56.000Z</time>
      </trkpt>
      <trkpt lat="40.04040715666786" lon="-0.4795298532662926">
        <ele>505.2</ele>
        <time>2022-04-23T08:17:02.000Z</time>
      </trkpt>
      <trkpt lat="40.04013633077004" lon="-0.47972011112514096">
        <ele>507.9</ele>
        <time>2022-04-23T08:17:36.000Z</time>
      </trkpt>
      <trkpt lat="40.03992876488198" lon="-0.4797053796047658">
        <ele>510.2</ele>
        <time>2022-04-23T08:18:05.000Z</time>
      </trkpt>
      <trkpt lat="40.03995519184339" lon="-0.4797564378009026">
        <ele>509.9</ele>
        <time>2022-04-23T08:18:16.000Z</time>
      </trkpt>
      <trkpt lat="40.039814372638595" lon="-0.4797980757306371">
        <ele>508.2</ele>
        <time>2022-04-23T08:18:31.000Z</time>
      </trkpt>
      <trkpt lat="40.03961953738188" lon="-0.4800472501901757">
        <ele>507.4</ele>
        <time>2022-04-23T08:18:59.000Z</time>
      </trkpt>
      <trkpt lat="40.039428522515365" lon="-0.48014229318247836">
        <ele>507.3</ele>
        <time>2022-04-23T08:19:15.000Z</time>
      </trkpt>
      <trkpt lat="40.03927268965561" lon="-0.48013790381126975">
        <ele>506.3</ele>
        <time>2022-04-23T08:19:31.000Z</time>
      </trkpt>
      <trkpt lat="40.03910173780246" lon="-0.48023007928953215">
        <ele>505.5</ele>
        <time>2022-04-23T08:19:47.000Z</time>
      </trkpt>
      <trkpt lat="40.038823405657965" lon="-0.4802103821884762">
        <ele>504.6</ele>
        <time>2022-04-23T08:20:04.000Z</time>
      </trkpt>
      <trkpt lat="40.03878236570992" lon="-0.4802586653014078">
        <ele>504.2</ele>
        <time>2022-04-23T08:20:09.000Z</time>
      </trkpt>
      <trkpt lat="40.03884677013934" lon="-0.48034542591417695">
        <ele>503.4</ele>
        <time>2022-04-23T08:20:22.000Z</time>
      </trkpt>
      <trkpt lat="40.03881661402072" lon="-0.4804214524599873">
        <ele>503.4</ele>
        <time>2022-04-23T08:20:31.000Z</time>
      </trkpt>
      <trkpt lat="40.03858361856618" lon="-0.48050599091098645">
        <ele>504.1</ele>
        <time>2022-04-23T08:20:50.000Z</time>
      </trkpt>
      <trkpt lat="40.03843332631368" lon="-0.4810450712294925">
        <ele>503.8</ele>
        <time>2022-04-23T08:21:27.000Z</time>
      </trkpt>
      <trkpt lat="40.03834080387074" lon="-0.48115386598550136">
        <ele>503.2</ele>
        <time>2022-04-23T08:21:40.000Z</time>
      </trkpt>
      <trkpt lat="40.03823822392608" lon="-0.48158097494379887">
        <ele>500.1</ele>
        <time>2022-04-23T08:22:10.000Z</time>
      </trkpt>
      <trkpt lat="40.0381830070629" lon="-0.4816476095989392">
        <ele>499.1</ele>
        <time>2022-04-23T08:22:17.000Z</time>
      </trkpt>
      <trkpt lat="40.0380491744394" lon="-0.48170344726067804">
        <ele>498.2</ele>
        <time>2022-04-23T08:22:32.000Z</time>
      </trkpt>
      <trkpt lat="40.0380312140562" lon="-0.4818361458449404">
        <ele>497.5</ele>
        <time>2022-04-23T08:22:54.000Z</time>
      </trkpt>
      <trkpt lat="40.038049771162946" lon="-0.4818492191645893">
        <ele>496.5</ele>
        <time>2022-04-23T08:23:03.000Z</time>
      </trkpt>
      <trkpt lat="40.03802580104616" lon="-0.48183842000026156">
        <ele>497.4</ele>
        <time>2022-04-23T08:23:17.000Z</time>
      </trkpt>
      <trkpt lat="40.03805772665514" lon="-0.4818041022861601">
        <ele>497.9</ele>
        <time>2022-04-23T08:23:35.000Z</time>
      </trkpt>
      <trkpt lat="40.03806165843379" lon="-0.4818300059768216">
        <ele>497.9</ele>
        <time>2022-04-23T08:23:42.000Z</time>
      </trkpt>
      <trkpt lat="40.038050683609754" lon="-0.48174281146597053">
        <ele>497.8</ele>
        <time>2022-04-23T08:24:07.000Z</time>
      </trkpt>
      <trkpt lat="40.038018897304006" lon="-0.48178719972739553">
        <ele>497.6</ele>
        <time>2022-04-23T08:24:37.000Z</time>
      </trkpt>
      <trkpt lat="40.03806689908061" lon="-0.48184402906903984">
        <ele>497.1</ele>
        <time>2022-04-23T08:24:46.000Z</time>
      </trkpt>
      <trkpt lat="40.03797841648216" lon="-0.481879062211543">
        <ele>497</ele>
        <time>2022-04-23T08:25:02.000Z</time>
      </trkpt>
      <trkpt lat="40.038068759357714" lon="-0.4818690561174187">
        <ele>496.8</ele>
        <time>2022-04-23T08:25:13.000Z</time>
      </trkpt>
      <trkpt lat="40.038067274130356" lon="-0.4819058495502858">
        <ele>496.9</ele>
        <time>2022-04-23T08:25:35.000Z</time>
      </trkpt>
      <trkpt lat="40.03802902291923" lon="-0.48190763646975177">
        <ele>496.9</ele>
        <time>2022-04-23T08:25:52.000Z</time>
      </trkpt>
      <trkpt lat="40.0380766562696" lon="-0.4818004790469862">
        <ele>497.2</ele>
        <time>2022-04-23T08:26:42.000Z</time>
      </trkpt>
      <trkpt lat="40.038088930151694" lon="-0.4818807525486669">
        <ele>497.2</ele>
        <time>2022-04-23T08:27:06.000Z</time>
      </trkpt>
      <trkpt lat="40.038049153227966" lon="-0.48186359054470973">
        <ele>497.6</ele>
        <time>2022-04-23T08:27:48.000Z</time>
      </trkpt>
      <trkpt lat="40.038108812331494" lon="-0.4818142599752566">
        <ele>498.1</ele>
        <time>2022-04-23T08:28:33.000Z</time>
      </trkpt>
      <trkpt lat="40.03813428494513" lon="-0.48192707100781096">
        <ele>498.3</ele>
        <time>2022-04-23T08:29:17.000Z</time>
      </trkpt>
      <trkpt lat="40.03809819390668" lon="-0.4819698204523922">
        <ele>498.4</ele>
        <time>2022-04-23T08:29:33.000Z</time>
      </trkpt>
      <trkpt lat="40.03808278116129" lon="-0.48191123957453785">
        <ele>498.5</ele>
        <time>2022-04-23T08:30:30.000Z</time>
      </trkpt>
      <trkpt lat="40.03811167864509" lon="-0.48192698453059973">
        <ele>498.5</ele>
        <time>2022-04-23T08:30:45.000Z</time>
      </trkpt>
      <trkpt lat="40.03810893834251" lon="-0.4818851578289785">
        <ele>498.4</ele>
        <time>2022-04-23T08:31:12.000Z</time>
      </trkpt>
      <trkpt lat="40.03802174126231" lon="-0.4818924918965953">
        <ele>498.3</ele>
        <time>2022-04-23T08:31:35.000Z</time>
      </trkpt>
      <trkpt lat="40.03798060227299" lon="-0.4818572602057317">
        <ele>498.1</ele>
        <time>2022-04-23T08:32:02.000Z</time>
      </trkpt>
      <trkpt lat="40.03821277785613" lon="-0.48171753092481834">
        <ele>498.1</ele>
        <time>2022-04-23T08:32:10.000Z</time>
      </trkpt>
      <trkpt lat="40.03821260468677" lon="-0.4816722887730301">
        <ele>498.1</ele>
        <time>2022-04-23T08:32:11.000Z</time>
      </trkpt>
      <trkpt lat="40.038363419955346" lon="-0.48197204037953967">
        <ele>498.1</ele>
        <time>2022-04-23T08:32:14.000Z</time>
      </trkpt>
      <trkpt lat="40.038074302953376" lon="-0.48176644082116193">
        <ele>498</ele>
        <time>2022-04-23T08:32:20.000Z</time>
      </trkpt>
      <trkpt lat="40.03790755579665" lon="-0.48174306633762926">
        <ele>498</ele>
        <time>2022-04-23T08:32:28.000Z</time>
      </trkpt>
      <trkpt lat="40.03791633201014" lon="-0.4817773400051074">
        <ele>498</ele>
        <time>2022-04-23T08:32:33.000Z</time>
      </trkpt>
      <trkpt lat="40.03800009563693" lon="-0.48180837648886404">
        <ele>498</ele>
        <time>2022-04-23T08:32:51.000Z</time>
      </trkpt>
      <trkpt lat="40.03804749819123" lon="-0.4819599466521993">
        <ele>498</ele>
        <time>2022-04-23T08:33:03.000Z</time>
      </trkpt>
      <trkpt lat="40.038146983651494" lon="-0.4820498885899649">
        <ele>498</ele>
        <time>2022-04-23T08:33:15.000Z</time>
      </trkpt>
      <trkpt lat="40.03805064658971" lon="-0.48182310544772167">
        <ele>497.9</ele>
        <time>2022-04-23T08:33:42.000Z</time>
      </trkpt>
      <trkpt lat="40.038118330809745" lon="-0.4819134761007394">
        <ele>497.9</ele>
        <time>2022-04-23T08:33:58.000Z</time>
      </trkpt>
      <trkpt lat="40.038065928813474" lon="-0.48203429038951423">
        <ele>498</ele>
        <time>2022-04-23T08:34:09.000Z</time>
      </trkpt>
      <trkpt lat="40.03810125600972" lon="-0.48197298784951675">
        <ele>498.1</ele>
        <time>2022-04-23T08:34:13.000Z</time>
      </trkpt>
      <trkpt lat="40.038143887560985" lon="-0.48195760145200395">
        <ele>498.1</ele>
        <time>2022-04-23T08:34:19.000Z</time>
      </trkpt>
      <trkpt lat="40.03814898301482" lon="-0.4819988857262536">
        <ele>498</ele>
        <time>2022-04-23T08:34:23.000Z</time>
      </trkpt>
      <trkpt lat="40.038245728739014" lon="-0.4817411428927329">
        <ele>498.1</ele>
        <time>2022-04-23T08:35:01.000Z</time>
      </trkpt>
      <trkpt lat="40.03823473223528" lon="-0.48165195507390446">
        <ele>498.1</ele>
        <time>2022-04-23T08:35:17.000Z</time>
      </trkpt>
      <trkpt lat="40.038102955416946" lon="-0.481839667094153">
        <ele>498</ele>
        <time>2022-04-23T08:35:41.000Z</time>
      </trkpt>
      <trkpt lat="40.03815132548189" lon="-0.4818368098170138">
        <ele>498</ele>
        <time>2022-04-23T08:35:58.000Z</time>
      </trkpt>
      <trkpt lat="40.03818454847739" lon="-0.4818837339528075">
        <ele>498</ele>
        <time>2022-04-23T08:36:13.000Z</time>
      </trkpt>
      <trkpt lat="40.038057693278994" lon="-0.481800347248001">
        <ele>498</ele>
        <time>2022-04-23T08:38:12.000Z</time>
      </trkpt>
      <trkpt lat="40.03802390157836" lon="-0.48180979451909445">
        <ele>497.9</ele>
        <time>2022-04-23T08:38:39.000Z</time>
      </trkpt>
      <trkpt lat="40.03798544629144" lon="-0.4819651197251168">
        <ele>497.4</ele>
        <time>2022-04-23T08:39:07.000Z</time>
      </trkpt>
      <trkpt lat="40.037997693177104" lon="-0.48189552737670993">
        <ele>497.6</ele>
        <time>2022-04-23T08:39:11.000Z</time>
      </trkpt>
      <trkpt lat="40.03800703500894" lon="-0.4819484190300818">
        <ele>497.9</ele>
        <time>2022-04-23T08:39:23.000Z</time>
      </trkpt>
      <trkpt lat="40.03807997887453" lon="-0.481862177699422">
        <ele>497.9</ele>
        <time>2022-04-23T08:39:34.000Z</time>
      </trkpt>
      <trkpt lat="40.03814910464499" lon="-0.4818905916466777">
        <ele>497.9</ele>
        <time>2022-04-23T08:39:46.000Z</time>
      </trkpt>
      <trkpt lat="40.03815876350155" lon="-0.4818010533743573">
        <ele>498.1</ele>
        <time>2022-04-23T08:40:02.000Z</time>
      </trkpt>
      <trkpt lat="40.037976011701396" lon="-0.48188648949587304">
        <ele>498.2</ele>
        <time>2022-04-23T08:40:26.000Z</time>
      </trkpt>
      <trkpt lat="40.038106496684584" lon="-0.4818741680163381">
        <ele>498.2</ele>
        <time>2022-04-23T08:40:45.000Z</time>
      </trkpt>
      <trkpt lat="40.0382897242136" lon="-0.4819442632589346">
        <ele>498.1</ele>
        <time>2022-04-23T08:41:27.000Z</time>
      </trkpt>
      <trkpt lat="40.03825717167732" lon="-0.4820776206696101">
        <ele>498</ele>
        <time>2022-04-23T08:41:35.000Z</time>
      </trkpt>
      <trkpt lat="40.038063988364804" lon="-0.48187298013961494">
        <ele>498.2</ele>
        <time>2022-04-23T08:41:54.000Z</time>
      </trkpt>
      <trkpt lat="40.03796873510664" lon="-0.4818374626142802">
        <ele>498.9</ele>
        <time>2022-04-23T08:42:08.000Z</time>
      </trkpt>
      <trkpt lat="40.03796049287869" lon="-0.4817568195617167">
        <ele>498.6</ele>
        <time>2022-04-23T08:42:21.000Z</time>
      </trkpt>
      <trkpt lat="40.03803656352599" lon="-0.48190775081568255">
        <ele>498.2</ele>
        <time>2022-04-23T08:42:41.000Z</time>
      </trkpt>
      <trkpt lat="40.0380305587767" lon="-0.4818432174703602">
        <ele>498.1</ele>
        <time>2022-04-23T08:42:53.000Z</time>
      </trkpt>
      <trkpt lat="40.03813222414282" lon="-0.48183194222743175">
        <ele>497.7</ele>
        <time>2022-04-23T08:43:08.000Z</time>
      </trkpt>
      <trkpt lat="40.038099205096415" lon="-0.4817672833740806">
        <ele>497.6</ele>
        <time>2022-04-23T08:43:20.000Z</time>
      </trkpt>
      <trkpt lat="40.03802533506125" lon="-0.4817877279135399">
        <ele>497.4</ele>
        <time>2022-04-23T08:43:33.000Z</time>
      </trkpt>
      <trkpt lat="40.03797885753759" lon="-0.48175491551704525">
        <ele>497.4</ele>
        <time>2022-04-23T08:43:39.000Z</time>
      </trkpt>
      <trkpt lat="40.03798934988607" lon="-0.48162964473619013">
        <ele>497.5</ele>
        <time>2022-04-23T08:43:57.000Z</time>
      </trkpt>
      <trkpt lat="40.03796647267229" lon="-0.4815914621295851">
        <ele>497.5</ele>
        <time>2022-04-23T08:44:06.000Z</time>
      </trkpt>
      <trkpt lat="40.0380427801261" lon="-0.48169444773672043">
        <ele>497.7</ele>
        <time>2022-04-23T08:44:25.000Z</time>
      </trkpt>
      <trkpt lat="40.03827997413418" lon="-0.48179975405895975">
        <ele>495.9</ele>
        <time>2022-04-23T08:44:46.000Z</time>
      </trkpt>
      <trkpt lat="40.038017922966716" lon="-0.48200059833111725">
        <ele>498.5</ele>
        <time>2022-04-23T08:45:18.000Z</time>
      </trkpt>
      <trkpt lat="40.03792457757237" lon="-0.48202809559088267">
        <ele>498.5</ele>
        <time>2022-04-23T08:45:30.000Z</time>
      </trkpt>
      <trkpt lat="40.037640638758894" lon="-0.4819954262974697">
        <ele>499.8</ele>
        <time>2022-04-23T08:46:02.000Z</time>
      </trkpt>
      <trkpt lat="40.03747834606599" lon="-0.4818964849482912">
        <ele>501.9</ele>
        <time>2022-04-23T08:46:24.000Z</time>
      </trkpt>
      <trkpt lat="40.03730365375991" lon="-0.48190166126987327">
        <ele>506.5</ele>
        <time>2022-04-23T08:46:48.000Z</time>
      </trkpt>
      <trkpt lat="40.037129700173054" lon="-0.4819590568819374">
        <ele>510.9</ele>
        <time>2022-04-23T08:47:13.000Z</time>
      </trkpt>
      <trkpt lat="40.03700327722012" lon="-0.48180942033201807">
        <ele>512.4</ele>
        <time>2022-04-23T08:47:30.000Z</time>
      </trkpt>
      <trkpt lat="40.03675808639356" lon="-0.48172326837564977">
        <ele>511.2</ele>
        <time>2022-04-23T08:47:56.000Z</time>
      </trkpt>
      <trkpt lat="40.03655193114952" lon="-0.48172697440219037">
        <ele>512.1</ele>
        <time>2022-04-23T08:48:16.000Z</time>
      </trkpt>
      <trkpt lat="40.03638206739634" lon="-0.4817898630986148">
        <ele>510.8</ele>
        <time>2022-04-23T08:48:35.000Z</time>
      </trkpt>
      <trkpt lat="40.03593994019059" lon="-0.4817743187536094">
        <ele>514.5</ele>
        <time>2022-04-23T08:49:29.000Z</time>
      </trkpt>
      <trkpt lat="40.03570971790762" lon="-0.48166140637707483">
        <ele>515</ele>
        <time>2022-04-23T08:49:59.000Z</time>
      </trkpt>
      <trkpt lat="40.035504730189956" lon="-0.48163136109101373">
        <ele>512.9</ele>
        <time>2022-04-23T08:50:23.000Z</time>
      </trkpt>
      <trkpt lat="40.035528282007654" lon="-0.4815947793212291">
        <ele>510.6</ele>
        <time>2022-04-23T08:50:42.000Z</time>
      </trkpt>
      <trkpt lat="40.0354595897261" lon="-0.48152608617947934">
        <ele>506.3</ele>
        <time>2022-04-23T08:51:18.000Z</time>
      </trkpt>
      <trkpt lat="40.035488270044276" lon="-0.4815337552262443">
        <ele>506.3</ele>
        <time>2022-04-23T08:51:22.000Z</time>
      </trkpt>
      <trkpt lat="40.03546359012969" lon="-0.48130902968846767">
        <ele>506.4</ele>
        <time>2022-04-23T08:51:30.000Z</time>
      </trkpt>
      <trkpt lat="40.03533237375164" lon="-0.4813846601355992">
        <ele>506.6</ele>
        <time>2022-04-23T08:51:51.000Z</time>
      </trkpt>
      <trkpt lat="40.035560910610776" lon="-0.48153363013481215">
        <ele>508.1</ele>
        <time>2022-04-23T08:52:26.000Z</time>
      </trkpt>
      <trkpt lat="40.035168751988834" lon="-0.4817208529531101">
        <ele>508.2</ele>
        <time>2022-04-23T08:59:38.000Z</time>
      </trkpt>
      <trkpt lat="40.035666253637224" lon="-0.48192150380746335">
        <ele>507.8</ele>
        <time>2022-04-23T09:11:22.000Z</time>
      </trkpt>
      <trkpt lat="40.03570049038444" lon="-0.4819707275816602">
        <ele>507.9</ele>
        <time>2022-04-23T09:11:31.000Z</time>
      </trkpt>
      <trkpt lat="40.03566221730965" lon="-0.4819588286417859">
        <ele>507.2</ele>
        <time>2022-04-23T09:11:57.000Z</time>
      </trkpt>
      <trkpt lat="40.03566433151945" lon="-0.4819093177843843">
        <ele>507.9</ele>
        <time>2022-04-23T09:12:12.000Z</time>
      </trkpt>
      <trkpt lat="40.035737782447164" lon="-0.4819044032500382">
        <ele>508.8</ele>
        <time>2022-04-23T09:12:22.000Z</time>
      </trkpt>
      <trkpt lat="40.03554304413471" lon="-0.4819485836751691">
        <ele>508.9</ele>
        <time>2022-04-23T09:12:35.000Z</time>
      </trkpt>
      <trkpt lat="40.03551982312787" lon="-0.48188320533590195">
        <ele>508.4</ele>
        <time>2022-04-23T09:12:45.000Z</time>
      </trkpt>
      <trkpt lat="40.03548116643544" lon="-0.48200795162849025">
        <ele>508.8</ele>
        <time>2022-04-23T09:12:57.000Z</time>
      </trkpt>
      <trkpt lat="40.035501639885965" lon="-0.48198224966587655">
        <ele>508.8</ele>
        <time>2022-04-23T09:13:06.000Z</time>
      </trkpt>
      <trkpt lat="40.035416014679576" lon="-0.48189399326593046">
        <ele>509.3</ele>
        <time>2022-04-23T09:13:44.000Z</time>
      </trkpt>
      <trkpt lat="40.03548174244134" lon="-0.48198640871667314">
        <ele>508.2</ele>
        <time>2022-04-23T09:14:23.000Z</time>
      </trkpt>
      <trkpt lat="40.0356833953761" lon="-0.48196918955176277">
        <ele>508.2</ele>
        <time>2022-04-23T09:14:27.000Z</time>
      </trkpt>
      <trkpt lat="40.03553199139658" lon="-0.4818962204182102">
        <ele>508.3</ele>
        <time>2022-04-23T09:14:38.000Z</time>
      </trkpt>
      <trkpt lat="40.035482365306486" lon="-0.481829918287157">
        <ele>507.5</ele>
        <time>2022-04-23T09:14:48.000Z</time>
      </trkpt>
      <trkpt lat="40.035476955181736" lon="-0.48113857832111756">
        <ele>507.7</ele>
        <time>2022-04-23T09:15:17.000Z</time>
      </trkpt>
      <trkpt lat="40.035453539514414" lon="-0.48098763573412556">
        <ele>508.3</ele>
        <time>2022-04-23T09:15:22.000Z</time>
      </trkpt>
      <trkpt lat="40.035419941315936" lon="-0.4810018090944974">
        <ele>508.4</ele>
        <time>2022-04-23T09:15:27.000Z</time>
      </trkpt>
      <trkpt lat="40.03541625475106" lon="-0.48105327844034435">
        <ele>508.5</ele>
        <time>2022-04-23T09:15:31.000Z</time>
      </trkpt>
      <trkpt lat="40.03549614004786" lon="-0.4811572149628953">
        <ele>508.4</ele>
        <time>2022-04-23T09:15:34.000Z</time>
      </trkpt>
      <trkpt lat="40.03558785931985" lon="-0.48138744797550165">
        <ele>508.2</ele>
        <time>2022-04-23T09:15:44.000Z</time>
      </trkpt>
      <trkpt lat="40.03542082334428" lon="-0.48147980620193365">
        <ele>508.2</ele>
        <time>2022-04-23T09:15:47.000Z</time>
      </trkpt>
      <trkpt lat="40.035389663523986" lon="-0.48159092370551654">
        <ele>508.3</ele>
        <time>2022-04-23T09:15:51.000Z</time>
      </trkpt>
      <trkpt lat="40.03554747255664" lon="-0.48155393978967465">
        <ele>506.8</ele>
        <time>2022-04-23T09:16:13.000Z</time>
      </trkpt>
      <trkpt lat="40.035694840881135" lon="-0.48144724837510466">
        <ele>514.9</ele>
        <time>2022-04-23T09:16:27.000Z</time>
      </trkpt>
      <trkpt lat="40.036064383402625" lon="-0.4817709245423138">
        <ele>513.4</ele>
        <time>2022-04-23T09:16:53.000Z</time>
      </trkpt>
      <trkpt lat="40.036165373341966" lon="-0.4817777818388694">
        <ele>512.2</ele>
        <time>2022-04-23T09:16:58.000Z</time>
      </trkpt>
      <trkpt lat="40.03661914424197" lon="-0.48166261256091053">
        <ele>511.2</ele>
        <time>2022-04-23T09:17:28.000Z</time>
      </trkpt>
      <trkpt lat="40.03686229955145" lon="-0.481742245269519">
        <ele>511.1</ele>
        <time>2022-04-23T09:17:45.000Z</time>
      </trkpt>
      <trkpt lat="40.037184979448284" lon="-0.4819225433123059">
        <ele>510.3</ele>
        <time>2022-04-23T09:18:15.000Z</time>
      </trkpt>
      <trkpt lat="40.03748726791994" lon="-0.4819269594685663">
        <ele>501</ele>
        <time>2022-04-23T09:18:50.000Z</time>
      </trkpt>
      <trkpt lat="40.037615401375746" lon="-0.4819681707831215">
        <ele>499</ele>
        <time>2022-04-23T09:19:01.000Z</time>
      </trkpt>
      <trkpt lat="40.03774528424702" lon="-0.48194706689047423">
        <ele>498</ele>
        <time>2022-04-23T09:19:14.000Z</time>
      </trkpt>
      <trkpt lat="40.037920737153215" lon="-0.4820074197793733">
        <ele>497.1</ele>
        <time>2022-04-23T09:19:33.000Z</time>
      </trkpt>
      <trkpt lat="40.038128344541434" lon="-0.48175688125075866">
        <ele>496</ele>
        <time>2022-04-23T09:19:55.000Z</time>
      </trkpt>
      <trkpt lat="40.038115055955764" lon="-0.4814441711856711">
        <ele>495.3</ele>
        <time>2022-04-23T09:20:23.000Z</time>
      </trkpt>
      <trkpt lat="40.03839966854344" lon="-0.48094840623196106">
        <ele>500.8</ele>
        <time>2022-04-23T09:21:16.000Z</time>
      </trkpt>
      <trkpt lat="40.038710590191755" lon="-0.4805767516488327">
        <ele>501.2</ele>
        <time>2022-04-23T09:21:55.000Z</time>
      </trkpt>
      <trkpt lat="40.03899212759433" lon="-0.4803581070624052">
        <ele>500.5</ele>
        <time>2022-04-23T09:22:26.000Z</time>
      </trkpt>
      <trkpt lat="40.039283937594625" lon="-0.4802490603964783">
        <ele>502.5</ele>
        <time>2022-04-23T09:22:57.000Z</time>
      </trkpt>
      <trkpt lat="40.039534112895076" lon="-0.480211288802869">
        <ele>503.8</ele>
        <time>2022-04-23T09:23:20.000Z</time>
      </trkpt>
      <trkpt lat="40.039979849014884" lon="-0.47979181660323766">
        <ele>505.9</ele>
        <time>2022-04-23T09:24:07.000Z</time>
      </trkpt>
      <trkpt lat="40.040008385508784" lon="-0.47972953879684543">
        <ele>506.8</ele>
        <time>2022-04-23T09:24:12.000Z</time>
      </trkpt>
      <trkpt lat="40.04000256734999" lon="-0.4796498686358653">
        <ele>507.5</ele>
        <time>2022-04-23T09:24:18.000Z</time>
      </trkpt>
      <trkpt lat="40.03995627323399" lon="-0.47951783365657336">
        <ele>508.7</ele>
        <time>2022-04-23T09:24:29.000Z</time>
      </trkpt>
      <trkpt lat="40.03988931619511" lon="-0.47943872607625776">
        <ele>509.4</ele>
        <time>2022-04-23T09:24:37.000Z</time>
      </trkpt>
      <trkpt lat="40.039736910678236" lon="-0.4794009693293402">
        <ele>511.1</ele>
        <time>2022-04-23T09:24:51.000Z</time>
      </trkpt>
      <trkpt lat="40.03950990779025" lon="-0.47948845127311746">
        <ele>515.1</ele>
        <time>2022-04-23T09:25:15.000Z</time>
      </trkpt>
      <trkpt lat="40.039032295307535" lon="-0.47933310763828774">
        <ele>518.8</ele>
        <time>2022-04-23T09:26:11.000Z</time>
      </trkpt>
      <trkpt lat="40.03886395493958" lon="-0.47936569228890663">
        <ele>519.5</ele>
        <time>2022-04-23T09:26:28.000Z</time>
      </trkpt>
      <trkpt lat="40.03870300715457" lon="-0.4793060548845162">
        <ele>519.5</ele>
        <time>2022-04-23T09:26:43.000Z</time>
      </trkpt>
      <trkpt lat="40.03861034261014" lon="-0.47934383714562795">
        <ele>519.5</ele>
        <time>2022-04-23T09:26:51.000Z</time>
      </trkpt>
      <trkpt lat="40.038456588300974" lon="-0.4794827657544774">
        <ele>520.3</ele>
        <time>2022-04-23T09:27:08.000Z</time>
      </trkpt>
      <trkpt lat="40.038338557585625" lon="-0.4797887489157251">
        <ele>525.6</ele>
        <time>2022-04-23T09:27:39.000Z</time>
      </trkpt>
      <trkpt lat="40.03803762952952" lon="-0.4803059774495141">
        <ele>527.8</ele>
        <time>2022-04-23T09:28:28.000Z</time>
      </trkpt>
      <trkpt lat="40.037984650043086" lon="-0.4805188982378796">
        <ele>527.6</ele>
        <time>2022-04-23T09:28:48.000Z</time>
      </trkpt>
      <trkpt lat="40.037876523744714" lon="-0.48072020271771515">
        <ele>528.6</ele>
        <time>2022-04-23T09:29:09.000Z</time>
      </trkpt>
      <trkpt lat="40.037823407026686" lon="-0.4809368285687357">
        <ele>529.8</ele>
        <time>2022-04-23T09:29:28.000Z</time>
      </trkpt>
      <trkpt lat="40.037517317549536" lon="-0.4811447283539417">
        <ele>532.1</ele>
        <time>2022-04-23T09:29:59.000Z</time>
      </trkpt>
      <trkpt lat="40.037393886758146" lon="-0.48113361738988425">
        <ele>533</ele>
        <time>2022-04-23T09:30:11.000Z</time>
      </trkpt>
      <trkpt lat="40.03717719437822" lon="-0.48094450765007823">
        <ele>532.5</ele>
        <time>2022-04-23T09:30:35.000Z</time>
      </trkpt>
      <trkpt lat="40.03685083147101" lon="-0.4809240414448934">
        <ele>532.5</ele>
        <time>2022-04-23T09:31:04.000Z</time>
      </trkpt>
      <trkpt lat="40.03662084295465" lon="-0.4807111728476093">
        <ele>532.2</ele>
        <time>2022-04-23T09:31:28.000Z</time>
      </trkpt>
      <trkpt lat="40.036080933029716" lon="-0.48075321165361">
        <ele>531.9</ele>
        <time>2022-04-23T09:32:21.000Z</time>
      </trkpt>
      <trkpt lat="40.03587826454008" lon="-0.48085192681086025">
        <ele>534</ele>
        <time>2022-04-23T09:32:42.000Z</time>
      </trkpt>
      <trkpt lat="40.035540897098095" lon="-0.48119620241546973">
        <ele>539.1</ele>
        <time>2022-04-23T09:33:33.000Z</time>
      </trkpt>
      <trkpt lat="40.03552925216507" lon="-0.4813334268054252">
        <ele>536</ele>
        <time>2022-04-23T09:33:50.000Z</time>
      </trkpt>
      <trkpt lat="40.03556462921395" lon="-0.48142272612127096">
        <ele>533.5</ele>
        <time>2022-04-23T09:34:03.000Z</time>
      </trkpt>
      <trkpt lat="40.03552625629032" lon="-0.48140928472665334">
        <ele>533.4</ele>
        <time>2022-04-23T09:34:13.000Z</time>
      </trkpt>
      <trkpt lat="40.035492323344904" lon="-0.48147155010524256">
        <ele>533</ele>
        <time>2022-04-23T09:34:22.000Z</time>
      </trkpt>
      <trkpt lat="40.03552982240119" lon="-0.48156674955613715">
        <ele>532.9</ele>
        <time>2022-04-23T09:34:50.000Z</time>
      </trkpt>
      <trkpt lat="40.03557869378469" lon="-0.48146828248743107">
        <ele>533.2</ele>
        <time>2022-04-23T09:35:13.000Z</time>
      </trkpt>
      <trkpt lat="40.03549310109805" lon="-0.4815766970631822">
        <ele>533.4</ele>
        <time>2022-04-23T09:36:04.000Z</time>
      </trkpt>
      <trkpt lat="40.03549345540091" lon="-0.48127539536426267">
        <ele>534.5</ele>
        <time>2022-04-23T09:36:49.000Z</time>
      </trkpt>
      <trkpt lat="40.03551867340253" lon="-0.4812037419289666">
        <ele>536.3</ele>
        <time>2022-04-23T09:37:05.000Z</time>
      </trkpt>
      <trkpt lat="40.03550390348798" lon="-0.4812203989901707">
        <ele>536.6</ele>
        <time>2022-04-23T09:37:25.000Z</time>
      </trkpt>
      <trkpt lat="40.035490112743126" lon="-0.4811792741419587">
        <ele>536.1</ele>
        <time>2022-04-23T09:37:42.000Z</time>
      </trkpt>
      <trkpt lat="40.03548265928581" lon="-0.48125298788909004">
        <ele>536</ele>
        <time>2022-04-23T09:38:07.000Z</time>
      </trkpt>
      <trkpt lat="40.03550943548294" lon="-0.48122070021295893">
        <ele>536.6</ele>
        <time>2022-04-23T09:38:27.000Z</time>
      </trkpt>
      <trkpt lat="40.035484308540816" lon="-0.4811652583405468">
        <ele>538.1</ele>
        <time>2022-04-23T09:38:42.000Z</time>
      </trkpt>
      <trkpt lat="40.03532588641172" lon="-0.481252369027593">
        <ele>539.4</ele>
        <time>2022-04-23T09:39:11.000Z</time>
      </trkpt>
      <trkpt lat="40.03522963441087" lon="-0.48141696437104836">
        <ele>539</ele>
        <time>2022-04-23T09:39:26.000Z</time>
      </trkpt>
      <trkpt lat="40.03512969219728" lon="-0.48150919983157986">
        <ele>539</ele>
        <time>2022-04-23T09:39:38.000Z</time>
      </trkpt>
      <trkpt lat="40.03466164600359" lon="-0.4816844153597852">
        <ele>541</ele>
        <time>2022-04-23T09:40:29.000Z</time>
      </trkpt>
      <trkpt lat="40.034786228388185" lon="-0.4817289744039011">
        <ele>540.8</ele>
        <time>2022-04-23T09:40:46.000Z</time>
      </trkpt>
      <trkpt lat="40.03518768043632" lon="-0.48157842394645345">
        <ele>540.2</ele>
        <time>2022-04-23T09:41:22.000Z</time>
      </trkpt>
      <trkpt lat="40.0351165616026" lon="-0.4815901278756698">
        <ele>538.2</ele>
        <time>2022-04-23T09:41:32.000Z</time>
      </trkpt>
      <trkpt lat="40.03492897481352" lon="-0.4817461155213245">
        <ele>534.3</ele>
        <time>2022-04-23T09:41:56.000Z</time>
      </trkpt>
      <trkpt lat="40.03465065619097" lon="-0.48178027012818986">
        <ele>533</ele>
        <time>2022-04-23T09:42:25.000Z</time>
      </trkpt>
      <trkpt lat="40.03459434823237" lon="-0.48183998546272105">
        <ele>532</ele>
        <time>2022-04-23T09:42:32.000Z</time>
      </trkpt>
      <trkpt lat="40.03460889676054" lon="-0.4819378382107777">
        <ele>530.7</ele>
        <time>2022-04-23T09:42:40.000Z</time>
      </trkpt>
      <trkpt lat="40.0347632044547" lon="-0.48203333643711443">
        <ele>529.9</ele>
        <time>2022-04-23T09:42:54.000Z</time>
      </trkpt>
      <trkpt lat="40.03488686386902" lon="-0.48206325755790336">
        <ele>529.6</ele>
        <time>2022-04-23T09:43:08.000Z</time>
      </trkpt>
      <trkpt lat="40.034955331967616" lon="-0.4822148953170062">
        <ele>526.8</ele>
        <time>2022-04-23T09:43:25.000Z</time>
      </trkpt>
      <trkpt lat="40.03501973358879" lon="-0.4821785101999155">
        <ele>526</ele>
        <time>2022-04-23T09:43:34.000Z</time>
      </trkpt>
      <trkpt lat="40.03505527607361" lon="-0.4820325479261464">
        <ele>525.6</ele>
        <time>2022-04-23T09:43:47.000Z</time>
      </trkpt>
      <trkpt lat="40.03510445081446" lon="-0.481970771304348">
        <ele>524.8</ele>
        <time>2022-04-23T09:44:14.000Z</time>
      </trkpt>
      <trkpt lat="40.03503650524348" lon="-0.48197580224934383">
        <ele>525.7</ele>
        <time>2022-04-23T09:46:22.000Z</time>
      </trkpt>
      <trkpt lat="40.03508668002026" lon="-0.48197414366004115">
        <ele>526</ele>
        <time>2022-04-23T09:46:48.000Z</time>
      </trkpt>
      <trkpt lat="40.03507901466349" lon="-0.4818668591265908">
        <ele>526.3</ele>
        <time>2022-04-23T09:47:18.000Z</time>
      </trkpt>
      <trkpt lat="40.03515011840778" lon="-0.4819241255347425">
        <ele>526.7</ele>
        <time>2022-04-23T09:47:38.000Z</time>
      </trkpt>
      <trkpt lat="40.03507659457755" lon="-0.4819126556076006">
        <ele>526.7</ele>
        <time>2022-04-23T09:47:56.000Z</time>
      </trkpt>
      <trkpt lat="40.035056621224264" lon="-0.4819809495693109">
        <ele>527.7</ele>
        <time>2022-04-23T09:48:10.000Z</time>
      </trkpt>
      <trkpt lat="40.034944067905805" lon="-0.48203111890564404">
        <ele>527.7</ele>
        <time>2022-04-23T09:48:32.000Z</time>
      </trkpt>
      <trkpt lat="40.03478297345323" lon="-0.48194071851267367">
        <ele>528.6</ele>
        <time>2022-04-23T09:49:01.000Z</time>
      </trkpt>
      <trkpt lat="40.03463676431921" lon="-0.48192020569206395">
        <ele>530.1</ele>
        <time>2022-04-23T09:49:26.000Z</time>
      </trkpt>
      <trkpt lat="40.034612504428054" lon="-0.48187371835367077">
        <ele>530.4</ele>
        <time>2022-04-23T09:49:33.000Z</time>
      </trkpt>
      <trkpt lat="40.0346714883183" lon="-0.4818721780276684">
        <ele>531.5</ele>
        <time>2022-04-23T09:49:41.000Z</time>
      </trkpt>
      <trkpt lat="40.03477591394143" lon="-0.4819884187962693">
        <ele>533.8</ele>
        <time>2022-04-23T09:49:56.000Z</time>
      </trkpt>
      <trkpt lat="40.03492840366777" lon="-0.4819465459636989">
        <ele>536</ele>
        <time>2022-04-23T09:50:13.000Z</time>
      </trkpt>
      <trkpt lat="40.03511500001446" lon="-0.4818064271322648">
        <ele>537.2</ele>
        <time>2022-04-23T09:50:32.000Z</time>
      </trkpt>
      <trkpt lat="40.03514550681842" lon="-0.4816459688961991">
        <ele>539</ele>
        <time>2022-04-23T09:50:46.000Z</time>
      </trkpt>
      <trkpt lat="40.03520618919962" lon="-0.481530019717291">
        <ele>540.4</ele>
        <time>2022-04-23T09:51:02.000Z</time>
      </trkpt>
      <trkpt lat="40.035093717017986" lon="-0.481597402198447">
        <ele>539.8</ele>
        <time>2022-04-23T09:51:17.000Z</time>
      </trkpt>
      <trkpt lat="40.03491015928623" lon="-0.48159751728104006">
        <ele>540.3</ele>
        <time>2022-04-23T09:51:32.000Z</time>
      </trkpt>
      <trkpt lat="40.03469400840522" lon="-0.4816703569584661">
        <ele>540.1</ele>
        <time>2022-04-23T09:51:52.000Z</time>
      </trkpt>
      <trkpt lat="40.034389238921285" lon="-0.4814788566701431">
        <ele>543.2</ele>
        <time>2022-04-23T09:52:24.000Z</time>
      </trkpt>
      <trkpt lat="40.03425800739779" lon="-0.48119461082039244">
        <ele>545</ele>
        <time>2022-04-23T09:52:51.000Z</time>
      </trkpt>
      <trkpt lat="40.03405811614488" lon="-0.4809773537148134">
        <ele>547.5</ele>
        <time>2022-04-23T09:53:17.000Z</time>
      </trkpt>
      <trkpt lat="40.03387318299799" lon="-0.48087794304620446">
        <ele>548.6</ele>
        <time>2022-04-23T09:53:37.000Z</time>
      </trkpt>
      <trkpt lat="40.03380209823377" lon="-0.48078895029644336">
        <ele>548.9</ele>
        <time>2022-04-23T09:53:47.000Z</time>
      </trkpt>
      <trkpt lat="40.03373080199338" lon="-0.4803986436144232">
        <ele>550</ele>
        <time>2022-04-23T09:54:17.000Z</time>
      </trkpt>
      <trkpt lat="40.03380711489097" lon="-0.47997313987494966">
        <ele>551.8</ele>
        <time>2022-04-23T09:54:50.000Z</time>
      </trkpt>
      <trkpt lat="40.03380330927272" lon="-0.47979853006644324">
        <ele>551.4</ele>
        <time>2022-04-23T09:55:02.000Z</time>
      </trkpt>
      <trkpt lat="40.033770544612885" lon="-0.4797041023304033">
        <ele>551.2</ele>
        <time>2022-04-23T09:55:10.000Z</time>
      </trkpt>
      <trkpt lat="40.033621756420054" lon="-0.47958631182187833">
        <ele>551.2</ele>
        <time>2022-04-23T09:55:28.000Z</time>
      </trkpt>
      <trkpt lat="40.03335627036968" lon="-0.47957170151362427">
        <ele>554.5</ele>
        <time>2022-04-23T09:55:55.000Z</time>
      </trkpt>
      <trkpt lat="40.03330417093087" lon="-0.47950320503077387">
        <ele>555.5</ele>
        <time>2022-04-23T09:56:04.000Z</time>
      </trkpt>
      <trkpt lat="40.03325464496232" lon="-0.4793330173825387">
        <ele>556.2</ele>
        <time>2022-04-23T09:56:21.000Z</time>
      </trkpt>
      <trkpt lat="40.03311797498404" lon="-0.47914225533505483">
        <ele>558.7</ele>
        <time>2022-04-23T09:56:41.000Z</time>
      </trkpt>
      <trkpt lat="40.032966064218755" lon="-0.47907958167082526">
        <ele>561.9</ele>
        <time>2022-04-23T09:56:59.000Z</time>
      </trkpt>
      <trkpt lat="40.032779627600455" lon="-0.4790681880733846">
        <ele>565.1</ele>
        <time>2022-04-23T09:57:21.000Z</time>
      </trkpt>
      <trkpt lat="40.032737972414104" lon="-0.47902193837955986">
        <ele>565.2</ele>
        <time>2022-04-23T09:57:28.000Z</time>
      </trkpt>
      <trkpt lat="40.03274757510703" lon="-0.47895844121186565">
        <ele>566.6</ele>
        <time>2022-04-23T09:57:34.000Z</time>
      </trkpt>
      <trkpt lat="40.03279352002468" lon="-0.47891345813999825">
        <ele>567.4</ele>
        <time>2022-04-23T09:57:41.000Z</time>
      </trkpt>
      <trkpt lat="40.032922090451535" lon="-0.47892998674757215">
        <ele>567.8</ele>
        <time>2022-04-23T09:57:56.000Z</time>
      </trkpt>
      <trkpt lat="40.03313152299072" lon="-0.4788586687848381">
        <ele>568</ele>
        <time>2022-04-23T09:58:15.000Z</time>
      </trkpt>
      <trkpt lat="40.03334400664544" lon="-0.47860299548002794">
        <ele>569.6</ele>
        <time>2022-04-23T09:58:44.000Z</time>
      </trkpt>
      <trkpt lat="40.033308077238694" lon="-0.4785626205250236">
        <ele>570.4</ele>
        <time>2022-04-23T09:58:50.000Z</time>
      </trkpt>
      <trkpt lat="40.03314508550171" lon="-0.47853256095744984">
        <ele>571.9</ele>
        <time>2022-04-23T09:59:03.000Z</time>
      </trkpt>
      <trkpt lat="40.032781771283354" lon="-0.47855246013394054">
        <ele>576.1</ele>
        <time>2022-04-23T09:59:42.000Z</time>
      </trkpt>
      <trkpt lat="40.03265439907195" lon="-0.4784584650608062">
        <ele>577.5</ele>
        <time>2022-04-23T09:59:57.000Z</time>
      </trkpt>
      <trkpt lat="40.03264902564055" lon="-0.4783717619056441">
        <ele>579</ele>
        <time>2022-04-23T10:00:07.000Z</time>
      </trkpt>
      <trkpt lat="40.032713386139285" lon="-0.47832206316909115">
        <ele>580.4</ele>
        <time>2022-04-23T10:00:16.000Z</time>
      </trkpt>
      <trkpt lat="40.03285927711759" lon="-0.47831349625493597">
        <ele>581.8</ele>
        <time>2022-04-23T10:00:31.000Z</time>
      </trkpt>
      <trkpt lat="40.033071512195086" lon="-0.4782328163957315">
        <ele>585.3</ele>
        <time>2022-04-23T10:00:55.000Z</time>
      </trkpt>
      <trkpt lat="40.03314772764633" lon="-0.47812810989120497">
        <ele>586.8</ele>
        <time>2022-04-23T10:01:08.000Z</time>
      </trkpt>
      <trkpt lat="40.03325784505487" lon="-0.477826861871419">
        <ele>590.1</ele>
        <time>2022-04-23T10:01:33.000Z</time>
      </trkpt>
      <trkpt lat="40.03343279905114" lon="-0.47768319287545674">
        <ele>590.7</ele>
        <time>2022-04-23T10:01:53.000Z</time>
      </trkpt>
      <trkpt lat="40.03350977755206" lon="-0.4775567638897338">
        <ele>592.2</ele>
        <time>2022-04-23T10:02:12.000Z</time>
      </trkpt>
      <trkpt lat="40.03313142809663" lon="-0.4775743338282036">
        <ele>596.8</ele>
        <time>2022-04-23T10:02:54.000Z</time>
      </trkpt>
      <trkpt lat="40.03304379038111" lon="-0.47763828435858857">
        <ele>598.1</ele>
        <time>2022-04-23T10:03:08.000Z</time>
      </trkpt>
      <trkpt lat="40.033019077265415" lon="-0.477738548653484">
        <ele>600.8</ele>
        <time>2022-04-23T10:03:23.000Z</time>
      </trkpt>
      <trkpt lat="40.03297069320083" lon="-0.4777960074516145">
        <ele>601.8</ele>
        <time>2022-04-23T10:03:31.000Z</time>
      </trkpt>
      <trkpt lat="40.032864493180654" lon="-0.47784107018432">
        <ele>603</ele>
        <time>2022-04-23T10:03:44.000Z</time>
      </trkpt>
      <trkpt lat="40.03277740808445" lon="-0.4778018782878831">
        <ele>604.2</ele>
        <time>2022-04-23T10:03:54.000Z</time>
      </trkpt>
      <trkpt lat="40.03264880745383" lon="-0.4776941490944084">
        <ele>605.2</ele>
        <time>2022-04-23T10:04:08.000Z</time>
      </trkpt>
      <trkpt lat="40.03250573636916" lon="-0.4776303299824542">
        <ele>609.4</ele>
        <time>2022-04-23T10:04:36.000Z</time>
      </trkpt>
      <trkpt lat="40.03244073536637" lon="-0.47746836068545906">
        <ele>608.8</ele>
        <time>2022-04-23T10:04:56.000Z</time>
      </trkpt>
      <trkpt lat="40.032225640716995" lon="-0.47726527166397686">
        <ele>609.9</ele>
        <time>2022-04-23T10:05:21.000Z</time>
      </trkpt>
      <trkpt lat="40.03207507908638" lon="-0.4770308590709254">
        <ele>608.4</ele>
        <time>2022-04-23T10:05:43.000Z</time>
      </trkpt>
      <trkpt lat="40.031902530011905" lon="-0.47684772574789175">
        <ele>613.8</ele>
        <time>2022-04-23T10:06:03.000Z</time>
      </trkpt>
      <trkpt lat="40.031866746494565" lon="-0.47673541743026154">
        <ele>616.4</ele>
        <time>2022-04-23T10:06:13.000Z</time>
      </trkpt>
      <trkpt lat="40.03191678758297" lon="-0.47665787333644244">
        <ele>613.4</ele>
        <time>2022-04-23T10:06:23.000Z</time>
      </trkpt>
      <trkpt lat="40.03190439866128" lon="-0.47661462411954203">
        <ele>613.3</ele>
        <time>2022-04-23T10:06:28.000Z</time>
      </trkpt>
      <trkpt lat="40.031799789156885" lon="-0.47652381733363564">
        <ele>612.7</ele>
        <time>2022-04-23T10:06:37.000Z</time>
      </trkpt>
      <trkpt lat="40.031695348250736" lon="-0.4765110249640785">
        <ele>615.5</ele>
        <time>2022-04-23T10:06:52.000Z</time>
      </trkpt>
      <trkpt lat="40.03150955966876" lon="-0.4761854777707726">
        <ele>616.7</ele>
        <time>2022-04-23T10:07:19.000Z</time>
      </trkpt>
      <trkpt lat="40.03127237745242" lon="-0.4761534109256988">
        <ele>614.9</ele>
        <time>2022-04-23T10:07:41.000Z</time>
      </trkpt>
      <trkpt lat="40.031146990198536" lon="-0.47599668672331796">
        <ele>616.7</ele>
        <time>2022-04-23T10:07:59.000Z</time>
      </trkpt>
      <trkpt lat="40.030952645510204" lon="-0.47583980209353843">
        <ele>617.2</ele>
        <time>2022-04-23T10:08:20.000Z</time>
      </trkpt>
      <trkpt lat="40.03076026354364" lon="-0.4758045977594522">
        <ele>620.8</ele>
        <time>2022-04-23T10:08:45.000Z</time>
      </trkpt>
      <trkpt lat="40.03043142938711" lon="-0.4759016529860315">
        <ele>622.9</ele>
        <time>2022-04-23T10:09:20.000Z</time>
      </trkpt>
      <trkpt lat="40.03000130268712" lon="-0.47562442279830514">
        <ele>622.8</ele>
        <time>2022-04-23T10:10:03.000Z</time>
      </trkpt>
      <trkpt lat="40.02975773918484" lon="-0.4755669798380299">
        <ele>626.4</ele>
        <time>2022-04-23T10:10:33.000Z</time>
      </trkpt>
      <trkpt lat="40.02931162555532" lon="-0.4751774873502628">
        <ele>625</ele>
        <time>2022-04-23T10:11:30.000Z</time>
      </trkpt>
      <trkpt lat="40.02894044385402" lon="-0.4749091883473771">
        <ele>620.8</ele>
        <time>2022-04-23T10:12:07.000Z</time>
      </trkpt>
      <trkpt lat="40.0287270232103" lon="-0.47467448888424973">
        <ele>619</ele>
        <time>2022-04-23T10:12:45.000Z</time>
      </trkpt>
      <trkpt lat="40.028287413773384" lon="-0.47452632395352695">
        <ele>615</ele>
        <time>2022-04-23T10:13:32.000Z</time>
      </trkpt>
      <trkpt lat="40.02787466890388" lon="-0.47464442427588005">
        <ele>614.5</ele>
        <time>2022-04-23T10:14:09.000Z</time>
      </trkpt>
      <trkpt lat="40.027722768920334" lon="-0.4745959297367166">
        <ele>614</ele>
        <time>2022-04-23T10:14:23.000Z</time>
      </trkpt>
      <trkpt lat="40.02750355871555" lon="-0.474413039445094">
        <ele>613.4</ele>
        <time>2022-04-23T10:14:51.000Z</time>
      </trkpt>
      <trkpt lat="40.027293330457816" lon="-0.4740565581223638">
        <ele>613.4</ele>
        <time>2022-04-23T10:15:20.000Z</time>
      </trkpt>
      <trkpt lat="40.0272405058921" lon="-0.47391583158538936">
        <ele>613.4</ele>
        <time>2022-04-23T10:15:30.000Z</time>
      </trkpt>
      <trkpt lat="40.027219897213975" lon="-0.47374362381375473">
        <ele>613</ele>
        <time>2022-04-23T10:15:43.000Z</time>
      </trkpt>
      <trkpt lat="40.02715883994381" lon="-0.4736864461619574">
        <ele>613.3</ele>
        <time>2022-04-23T10:15:51.000Z</time>
      </trkpt>
      <trkpt lat="40.027062497605556" lon="-0.47368870866634294">
        <ele>615.1</ele>
        <time>2022-04-23T10:16:01.000Z</time>
      </trkpt>
      <trkpt lat="40.02699358994633" lon="-0.4737432249729645">
        <ele>616.2</ele>
        <time>2022-04-23T10:16:10.000Z</time>
      </trkpt>
      <trkpt lat="40.02685256889546" lon="-0.47417113561123875">
        <ele>621.2</ele>
        <time>2022-04-23T10:16:51.000Z</time>
      </trkpt>
      <trkpt lat="40.02672290291608" lon="-0.47423079496074566">
        <ele>622.8</ele>
        <time>2022-04-23T10:17:10.000Z</time>
      </trkpt>
      <trkpt lat="40.026603052637135" lon="-0.4742168015158406">
        <ele>623.4</ele>
        <time>2022-04-23T10:17:27.000Z</time>
      </trkpt>
      <trkpt lat="40.02638947771272" lon="-0.47408189433397285">
        <ele>624.8</ele>
        <time>2022-04-23T10:17:43.000Z</time>
      </trkpt>
      <trkpt lat="40.026310991750165" lon="-0.4740776086166672">
        <ele>624.5</ele>
        <time>2022-04-23T10:18:06.000Z</time>
      </trkpt>
      <trkpt lat="40.0262688310305" lon="-0.47402669911342926">
        <ele>624.8</ele>
        <time>2022-04-23T10:18:25.000Z</time>
      </trkpt>
      <trkpt lat="40.02623978457105" lon="-0.47405784420829755">
        <ele>625</ele>
        <time>2022-04-23T10:18:35.000Z</time>
      </trkpt>
      <trkpt lat="40.026095695983074" lon="-0.47402403275997856">
        <ele>625.1</ele>
        <time>2022-04-23T10:18:48.000Z</time>
      </trkpt>
      <trkpt lat="40.02609299164788" lon="-0.47395196860779193">
        <ele>625.6</ele>
        <time>2022-04-23T10:19:02.000Z</time>
      </trkpt>
      <trkpt lat="40.026053017702935" lon="-0.47390814617793997">
        <ele>625.5</ele>
        <time>2022-04-23T10:19:11.000Z</time>
      </trkpt>
      <trkpt lat="40.02604889498582" lon="-0.4737182111227606">
        <ele>629.8</ele>
        <time>2022-04-23T10:19:46.000Z</time>
      </trkpt>
      <trkpt lat="40.02584170480867" lon="-0.4735831763316906">
        <ele>629.3</ele>
        <time>2022-04-23T10:20:08.000Z</time>
      </trkpt>
      <trkpt lat="40.025578805827074" lon="-0.47326527988438466">
        <ele>629.4</ele>
        <time>2022-04-23T10:20:39.000Z</time>
      </trkpt>
      <trkpt lat="40.0251498329893" lon="-0.47315255183961363">
        <ele>624.4</ele>
        <time>2022-04-23T10:21:36.000Z</time>
      </trkpt>
      <trkpt lat="40.025055616449485" lon="-0.47319082426969356">
        <ele>626</ele>
        <time>2022-04-23T10:21:51.000Z</time>
      </trkpt>
      <trkpt lat="40.02486526361314" lon="-0.47313430319773386">
        <ele>627.3</ele>
        <time>2022-04-23T10:22:07.000Z</time>
      </trkpt>
      <trkpt lat="40.0246832733537" lon="-0.4731730327332041">
        <ele>626.8</ele>
        <time>2022-04-23T10:22:25.000Z</time>
      </trkpt>
      <trkpt lat="40.024480742075816" lon="-0.4729872807742097">
        <ele>626.4</ele>
        <time>2022-04-23T10:22:47.000Z</time>
      </trkpt>
      <trkpt lat="40.02439338939118" lon="-0.47283977302449726">
        <ele>628.1</ele>
        <time>2022-04-23T10:23:03.000Z</time>
      </trkpt>
      <trkpt lat="40.02418188379807" lon="-0.472753956313211">
        <ele>630.7</ele>
        <time>2022-04-23T10:23:20.000Z</time>
      </trkpt>
      <trkpt lat="40.02413643112956" lon="-0.4727982886058591">
        <ele>630.7</ele>
        <time>2022-04-23T10:23:27.000Z</time>
      </trkpt>
      <trkpt lat="40.02409717775252" lon="-0.4730223146248539">
        <ele>631.9</ele>
        <time>2022-04-23T10:23:48.000Z</time>
      </trkpt>
      <trkpt lat="40.02408487599345" lon="-0.4733541593103118">
        <ele>633.6</ele>
        <time>2022-04-23T10:24:16.000Z</time>
      </trkpt>
      <trkpt lat="40.02405735381565" lon="-0.47346537647948517">
        <ele>633.9</ele>
        <time>2022-04-23T10:24:25.000Z</time>
      </trkpt>
      <trkpt lat="40.02401620325377" lon="-0.47351225009096737">
        <ele>634</ele>
        <time>2022-04-23T10:24:32.000Z</time>
      </trkpt>
      <trkpt lat="40.02350132180371" lon="-0.4735669063303177">
        <ele>636.1</ele>
        <time>2022-04-23T10:25:26.000Z</time>
      </trkpt>
      <trkpt lat="40.023254550029215" lon="-0.4737248767488431">
        <ele>636.7</ele>
        <time>2022-04-23T10:25:54.000Z</time>
      </trkpt>
      <trkpt lat="40.0230540844846" lon="-0.47379111732398244">
        <ele>636.3</ele>
        <time>2022-04-23T10:26:12.000Z</time>
      </trkpt>
      <trkpt lat="40.02255185034409" lon="-0.47386836178750075">
        <ele>636.6</ele>
        <time>2022-04-23T10:26:52.000Z</time>
      </trkpt>
      <trkpt lat="40.02250992938701" lon="-0.4739714945621577">
        <ele>636.4</ele>
        <time>2022-04-23T10:27:05.000Z</time>
      </trkpt>
      <trkpt lat="40.02232779986782" lon="-0.47402473790724176">
        <ele>635.8</ele>
        <time>2022-04-23T10:27:22.000Z</time>
      </trkpt>
      <trkpt lat="40.02228240343608" lon="-0.4740905218830384">
        <ele>635.7</ele>
        <time>2022-04-23T10:27:32.000Z</time>
      </trkpt>
      <trkpt lat="40.021908695450115" lon="-0.4742080227331853">
        <ele>636.4</ele>
        <time>2022-04-23T10:28:08.000Z</time>
      </trkpt>
      <trkpt lat="40.02177731363301" lon="-0.4742847361052054">
        <ele>638.5</ele>
        <time>2022-04-23T10:28:26.000Z</time>
      </trkpt>
      <trkpt lat="40.02147621753773" lon="-0.47434288944324715">
        <ele>642.2</ele>
        <time>2022-04-23T10:29:07.000Z</time>
      </trkpt>
      <trkpt lat="40.02133756366018" lon="-0.47442340991594995">
        <ele>643.2</ele>
        <time>2022-04-23T10:29:24.000Z</time>
      </trkpt>
      <trkpt lat="40.02095413043568" lon="-0.4743174359621266">
        <ele>644.5</ele>
        <time>2022-04-23T10:30:02.000Z</time>
      </trkpt>
      <trkpt lat="40.02087343917504" lon="-0.47437824774567905">
        <ele>645.9</ele>
        <time>2022-04-23T10:30:25.000Z</time>
      </trkpt>
      <trkpt lat="40.020666714155546" lon="-0.4744129003493162">
        <ele>646</ele>
        <time>2022-04-23T10:30:38.000Z</time>
      </trkpt>
      <trkpt lat="40.02045499064963" lon="-0.4745802096367584">
        <ele>647.1</ele>
        <time>2022-04-23T10:30:56.000Z</time>
      </trkpt>
      <trkpt lat="40.020290107678925" lon="-0.4748294670855712">
        <ele>646.6</ele>
        <time>2022-04-23T10:31:20.000Z</time>
      </trkpt>
      <trkpt lat="40.0197625593728" lon="-0.4749667347380477">
        <ele>651.5</ele>
        <time>2022-04-23T10:32:24.000Z</time>
      </trkpt>
      <trkpt lat="40.01951563555859" lon="-0.4750992431519015">
        <ele>652.6</ele>
        <time>2022-04-23T10:33:00.000Z</time>
      </trkpt>
      <trkpt lat="40.019534113887794" lon="-0.4750585624833775">
        <ele>651.7</ele>
        <time>2022-04-23T10:33:15.000Z</time>
      </trkpt>
      <trkpt lat="40.01949642945062" lon="-0.47508952145076755">
        <ele>650.9</ele>
        <time>2022-04-23T10:33:38.000Z</time>
      </trkpt>
      <trkpt lat="40.01909934566855" lon="-0.4749423591141931">
        <ele>655.7</ele>
        <time>2022-04-23T10:34:43.000Z</time>
      </trkpt>
      <trkpt lat="40.018913011501525" lon="-0.4745120253556794">
        <ele>653.2</ele>
        <time>2022-04-23T10:35:19.000Z</time>
      </trkpt>
      <trkpt lat="40.01859891830079" lon="-0.47421131801232175">
        <ele>655.4</ele>
        <time>2022-04-23T10:35:53.000Z</time>
      </trkpt>
      <trkpt lat="40.018380345138944" lon="-0.47408116840275555">
        <ele>657.7</ele>
        <time>2022-04-23T10:36:13.000Z</time>
      </trkpt>
      <trkpt lat="40.01803982740452" lon="-0.4739429497596477">
        <ele>663.5</ele>
        <time>2022-04-23T10:36:50.000Z</time>
      </trkpt>
      <trkpt lat="40.01770559359682" lon="-0.47392138571121517">
        <ele>663.1</ele>
        <time>2022-04-23T10:37:19.000Z</time>
      </trkpt>
      <trkpt lat="40.01759173885221" lon="-0.4737465946120789">
        <ele>662.1</ele>
        <time>2022-04-23T10:37:35.000Z</time>
      </trkpt>
      <trkpt lat="40.017247865387475" lon="-0.4735717791573473">
        <ele>663.6</ele>
        <time>2022-04-23T10:38:04.000Z</time>
      </trkpt>
      <trkpt lat="40.017169812038425" lon="-0.4736055019440173">
        <ele>663</ele>
        <time>2022-04-23T10:38:17.000Z</time>
      </trkpt>
      <trkpt lat="40.01713184543386" lon="-0.4736940691445954">
        <ele>663.3</ele>
        <time>2022-04-23T10:38:27.000Z</time>
      </trkpt>
      <trkpt lat="40.01714673541646" lon="-0.4738839291003258">
        <ele>662.6</ele>
        <time>2022-04-23T10:38:40.000Z</time>
      </trkpt>
      <trkpt lat="40.01723128110567" lon="-0.4740103565403775">
        <ele>662.1</ele>
        <time>2022-04-23T10:38:48.000Z</time>
      </trkpt>
      <trkpt lat="40.017441955671984" lon="-0.4741357495824248">
        <ele>664.7</ele>
        <time>2022-04-23T10:39:00.000Z</time>
      </trkpt>
      <trkpt lat="40.01657737304135" lon="-0.4751479654076197">
        <ele>714.2</ele>
        <time>2022-04-23T10:44:16.000Z</time>
      </trkpt>
      <trkpt lat="40.0165778411781" lon="-0.47513752672507675">
        <ele>714.2</ele>
        <time>2022-04-23T10:44:17.000Z</time>
      </trkpt>
      <trkpt lat="40.01657410501337" lon="-0.47513043831424284">
        <ele>714.2</ele>
        <time>2022-04-23T10:44:18.000Z</time>
      </trkpt>
      <trkpt lat="40.01656428172309" lon="-0.4751046804477587">
        <ele>714.2</ele>
        <time>2022-04-23T10:44:19.000Z</time>
      </trkpt>
      <trkpt lat="40.01656263443364" lon="-0.47510187611252097">
        <ele>714.2</ele>
        <time>2022-04-23T10:44:20.000Z</time>
      </trkpt>
      <trkpt lat="40.01656025886886" lon="-0.4751009730125753">
        <ele>714.2</ele>
        <time>2022-04-23T10:44:21.000Z</time>
      </trkpt>
      <trkpt lat="40.01655659866786" lon="-0.4750923803460871">
        <ele>714.2</ele>
        <time>2022-04-23T10:44:22.000Z</time>
      </trkpt>
      <trkpt lat="40.01655238496378" lon="-0.47508397370087746">
        <ele>714.2</ele>
        <time>2022-04-23T10:44:23.000Z</time>
      </trkpt>
      <trkpt lat="40.01654787069606" lon="-0.47507551364375716">
        <ele>714.2</ele>
        <time>2022-04-23T10:44:24.000Z</time>
      </trkpt>
      <trkpt lat="40.01654352895458" lon="-0.4750687515324653">
        <ele>714.1</ele>
        <time>2022-04-23T10:44:25.000Z</time>
      </trkpt>
      <trkpt lat="40.01653857190283" lon="-0.47506163470474916">
        <ele>714.1</ele>
        <time>2022-04-23T10:44:26.000Z</time>
      </trkpt>
      <trkpt lat="40.01653312676492" lon="-0.4750542912332088">
        <ele>714.1</ele>
        <time>2022-04-23T10:44:27.000Z</time>
      </trkpt>
      <trkpt lat="40.016527185606954" lon="-0.4750465407963497">
        <ele>714.1</ele>
        <time>2022-04-23T10:44:28.000Z</time>
      </trkpt>
      <trkpt lat="40.01652103939862" lon="-0.47503878702237684">
        <ele>714.1</ele>
        <time>2022-04-23T10:44:29.000Z</time>
      </trkpt>
      <trkpt lat="40.01651470342455" lon="-0.47503099427595435">
        <ele>714.1</ele>
        <time>2022-04-23T10:44:30.000Z</time>
      </trkpt>
      <trkpt lat="40.01650820019293" lon="-0.47502320902724277">
        <ele>714.1</ele>
        <time>2022-04-23T10:44:31.000Z</time>
      </trkpt>
      <trkpt lat="40.01650151874308" lon="-0.47501556150750107">
        <ele>714.1</ele>
        <time>2022-04-23T10:44:32.000Z</time>
      </trkpt>
      <trkpt lat="40.016494553810396" lon="-0.47500790142468685">
        <ele>714.1</ele>
        <time>2022-04-23T10:44:33.000Z</time>
      </trkpt>
      <trkpt lat="40.01648764689718" lon="-0.4750004742123681">
        <ele>714.1</ele>
        <time>2022-04-23T10:44:34.000Z</time>
      </trkpt>
      <trkpt lat="40.016480945514836" lon="-0.47499309883732904">
        <ele>714.6</ele>
        <time>2022-04-23T10:44:35.000Z</time>
      </trkpt>
      <trkpt lat="40.01647461832192" lon="-0.47498559442891697">
        <ele>714.6</ele>
        <time>2022-04-23T10:44:36.000Z</time>
      </trkpt>
      <trkpt lat="40.01646878882932" lon="-0.4749778245256454">
        <ele>714.6</ele>
        <time>2022-04-23T10:44:37.000Z</time>
      </trkpt>
      <trkpt lat="40.016463397781905" lon="-0.47496984086217614">
        <ele>714.6</ele>
        <time>2022-04-23T10:44:38.000Z</time>
      </trkpt>
      <trkpt lat="40.016458472375604" lon="-0.47496192256427716">
        <ele>714.6</ele>
        <time>2022-04-23T10:44:39.000Z</time>
      </trkpt>
      <trkpt lat="40.0164536335351" lon="-0.4749538949163376">
        <ele>716.1</ele>
        <time>2022-04-23T10:44:40.000Z</time>
      </trkpt>
      <trkpt lat="40.01644896879656" lon="-0.47494607411865175">
        <ele>716.1</ele>
        <time>2022-04-23T10:44:41.000Z</time>
      </trkpt>
      <trkpt lat="40.01644435796117" lon="-0.4749385423386929">
        <ele>716.1</ele>
        <time>2022-04-23T10:44:42.000Z</time>
      </trkpt>
      <trkpt lat="40.01643977409955" lon="-0.4749312598226931">
        <ele>716.1</ele>
        <time>2022-04-23T10:44:43.000Z</time>
      </trkpt>
      <trkpt lat="40.01643513238577" lon="-0.47492418488543237">
        <ele>716.1</ele>
        <time>2022-04-23T10:44:44.000Z</time>
      </trkpt>
      <trkpt lat="40.01643020612041" lon="-0.47491718996168514">
        <ele>715.8</ele>
        <time>2022-04-23T10:44:45.000Z</time>
      </trkpt>
      <trkpt lat="40.01642488164328" lon="-0.4749103741000772">
        <ele>715.8</ele>
        <time>2022-04-23T10:44:46.000Z</time>
      </trkpt>
      <trkpt lat="40.01641907597498" lon="-0.4749036615848547">
        <ele>715.8</ele>
        <time>2022-04-23T10:44:47.000Z</time>
      </trkpt>
      <trkpt lat="40.016412762301236" lon="-0.4748970417904928">
        <ele>715.8</ele>
        <time>2022-04-23T10:44:48.000Z</time>
      </trkpt>
      <trkpt lat="40.01640604982281" lon="-0.4748904302268993">
        <ele>715.8</ele>
        <time>2022-04-23T10:44:49.000Z</time>
      </trkpt>
      <trkpt lat="40.01639888741832" lon="-0.4748836690768883">
        <ele>716</ele>
        <time>2022-04-23T10:44:50.000Z</time>
      </trkpt>
      <trkpt lat="40.016391623167166" lon="-0.47487693997414265">
        <ele>716</ele>
        <time>2022-04-23T10:44:51.000Z</time>
      </trkpt>
      <trkpt lat="40.01638415683263" lon="-0.47486988755592296">
        <ele>716</ele>
        <time>2022-04-23T10:44:52.000Z</time>
      </trkpt>
      <trkpt lat="40.01637660004165" lon="-0.4748623969023736">
        <ele>716</ele>
        <time>2022-04-23T10:44:53.000Z</time>
      </trkpt>
      <trkpt lat="40.01636901930772" lon="-0.4748543790102467">
        <ele>716</ele>
        <time>2022-04-23T10:44:54.000Z</time>
      </trkpt>
      <trkpt lat="40.01636142903706" lon="-0.4748457324219358">
        <ele>716</ele>
        <time>2022-04-23T10:44:55.000Z</time>
      </trkpt>
      <trkpt lat="40.01635391709263" lon="-0.47483644484361337">
        <ele>716</ele>
        <time>2022-04-23T10:44:56.000Z</time>
      </trkpt>
      <trkpt lat="40.016346688879636" lon="-0.47482671635376766">
        <ele>716</ele>
        <time>2022-04-23T10:44:57.000Z</time>
      </trkpt>
      <trkpt lat="40.016339633717344" lon="-0.4748165977330189">
        <ele>716</ele>
        <time>2022-04-23T10:44:58.000Z</time>
      </trkpt>
      <trkpt lat="40.01633264526229" lon="-0.4748061146785148">
        <ele>716</ele>
        <time>2022-04-23T10:44:59.000Z</time>
      </trkpt>
      <trkpt lat="40.01632569906106" lon="-0.47479540729315334">
        <ele>715.8</ele>
        <time>2022-04-23T10:45:00.000Z</time>
      </trkpt>
      <trkpt lat="40.01631889800069" lon="-0.4747846496636297">
        <ele>715.8</ele>
        <time>2022-04-23T10:45:01.000Z</time>
      </trkpt>
      <trkpt lat="40.0163119690552" lon="-0.4747737172402618">
        <ele>715.8</ele>
        <time>2022-04-23T10:45:02.000Z</time>
      </trkpt>
      <trkpt lat="40.016304860841785" lon="-0.474762980939005">
        <ele>715.8</ele>
        <time>2022-04-23T10:45:03.000Z</time>
      </trkpt>
      <trkpt lat="40.016297580978296" lon="-0.47475283788909994">
        <ele>715.8</ele>
        <time>2022-04-23T10:45:04.000Z</time>
      </trkpt>
      <trkpt lat="40.01629020980943" lon="-0.47474321254954793">
        <ele>716.1</ele>
        <time>2022-04-23T10:45:05.000Z</time>
      </trkpt>
      <trkpt lat="40.016282583385454" lon="-0.47473400153433903">
        <ele>716.1</ele>
        <time>2022-04-23T10:45:06.000Z</time>
      </trkpt>
      <trkpt lat="40.01627494559148" lon="-0.47472537250892927">
        <ele>716.1</ele>
        <time>2022-04-23T10:45:07.000Z</time>
      </trkpt>
      <trkpt lat="40.01626749804015" lon="-0.4747168601143509">
        <ele>716.1</ele>
        <time>2022-04-23T10:45:08.000Z</time>
      </trkpt>
      <trkpt lat="40.01626008481042" lon="-0.4747081538308708">
        <ele>716.1</ele>
        <time>2022-04-23T10:45:09.000Z</time>
      </trkpt>
      <trkpt lat="40.01625248984766" lon="-0.47469969168655085">
        <ele>716.6</ele>
        <time>2022-04-23T10:45:10.000Z</time>
      </trkpt>
      <trkpt lat="40.016244810497064" lon="-0.4746915342503364">
        <ele>716.6</ele>
        <time>2022-04-23T10:45:11.000Z</time>
      </trkpt>
      <trkpt lat="40.01623707964538" lon="-0.4746832463247939">
        <ele>716.6</ele>
        <time>2022-04-23T10:45:12.000Z</time>
      </trkpt>
      <trkpt lat="40.0162293405969" lon="-0.4746748740006009">
        <ele>716.6</ele>
        <time>2022-04-23T10:45:13.000Z</time>
      </trkpt>
      <trkpt lat="40.016221643881636" lon="-0.4746662693576106">
        <ele>716.6</ele>
        <time>2022-04-23T10:45:14.000Z</time>
      </trkpt>
      <trkpt lat="40.01621399711587" lon="-0.4746571992520185">
        <ele>716.9</ele>
        <time>2022-04-23T10:45:15.000Z</time>
      </trkpt>
      <trkpt lat="40.0162063488063" lon="-0.47464784826599415">
        <ele>716.9</ele>
        <time>2022-04-23T10:45:16.000Z</time>
      </trkpt>
      <trkpt lat="40.01619909761833" lon="-0.4746386326136753">
        <ele>716.9</ele>
        <time>2022-04-23T10:45:17.000Z</time>
      </trkpt>
      <trkpt lat="40.01619195515645" lon="-0.47462935945062773">
        <ele>716.9</ele>
        <time>2022-04-23T10:45:18.000Z</time>
      </trkpt>
      <trkpt lat="40.016184545569914" lon="-0.4746201995858698">
        <ele>716.9</ele>
        <time>2022-04-23T10:45:19.000Z</time>
      </trkpt>
      <trkpt lat="40.01617710771559" lon="-0.4746115586141109">
        <ele>716.8</ele>
        <time>2022-04-23T10:45:20.000Z</time>
      </trkpt>
      <trkpt lat="40.01616989244596" lon="-0.4746030995422318">
        <ele>716.8</ele>
        <time>2022-04-23T10:45:21.000Z</time>
      </trkpt>
      <trkpt lat="40.016162764451" lon="-0.4745946960953505">
        <ele>716.8</ele>
        <time>2022-04-23T10:45:22.000Z</time>
      </trkpt>
      <trkpt lat="40.01615556298222" lon="-0.47458655752457324">
        <ele>716.8</ele>
        <time>2022-04-23T10:45:23.000Z</time>
      </trkpt>
      <trkpt lat="40.01614838850199" lon="-0.47457855327148285">
        <ele>716.8</ele>
        <time>2022-04-23T10:45:24.000Z</time>
      </trkpt>
      <trkpt lat="40.016141400887314" lon="-0.4745708442612667">
        <ele>717.3</ele>
        <time>2022-04-23T10:45:25.000Z</time>
      </trkpt>
      <trkpt lat="40.016134458525364" lon="-0.47456292736547373">
        <ele>717.3</ele>
        <time>2022-04-23T10:45:26.000Z</time>
      </trkpt>
      <trkpt lat="40.01612754717956" lon="-0.4745547234199821">
        <ele>717.3</ele>
        <time>2022-04-23T10:45:27.000Z</time>
      </trkpt>
      <trkpt lat="40.01612042783115" lon="-0.4745461073569404">
        <ele>717.3</ele>
        <time>2022-04-23T10:45:28.000Z</time>
      </trkpt>
      <trkpt lat="40.01611306559828" lon="-0.4745372847413385">
        <ele>717.3</ele>
        <time>2022-04-23T10:45:29.000Z</time>
      </trkpt>
      <trkpt lat="40.01610540388004" lon="-0.4745285534658276">
        <ele>717.6</ele>
        <time>2022-04-23T10:45:30.000Z</time>
      </trkpt>
      <trkpt lat="40.01609741384526" lon="-0.47452026782429546">
        <ele>717.6</ele>
        <time>2022-04-23T10:45:31.000Z</time>
      </trkpt>
      <trkpt lat="40.016089131885366" lon="-0.47451268455656737">
        <ele>717.6</ele>
        <time>2022-04-23T10:45:32.000Z</time>
      </trkpt>
      <trkpt lat="40.0160806086035" lon="-0.47450579102336937">
        <ele>717.6</ele>
        <time>2022-04-23T10:45:33.000Z</time>
      </trkpt>
      <trkpt lat="40.01607209515405" lon="-0.47449961555536996">
        <ele>717.6</ele>
        <time>2022-04-23T10:45:34.000Z</time>
      </trkpt>
      <trkpt lat="40.0160635602781" lon="-0.47449412153931525">
        <ele>718.1</ele>
        <time>2022-04-23T10:45:35.000Z</time>
      </trkpt>
      <trkpt lat="40.01605484676917" lon="-0.47448902823701555">
        <ele>718.1</ele>
        <time>2022-04-23T10:45:36.000Z</time>
      </trkpt>
      <trkpt lat="40.01604614059019" lon="-0.474484639316173">
        <ele>718.1</ele>
        <time>2022-04-23T10:45:37.000Z</time>
      </trkpt>
      <trkpt lat="40.01603740207227" lon="-0.4744809246172854">
        <ele>718.1</ele>
        <time>2022-04-23T10:45:38.000Z</time>
      </trkpt>
      <trkpt lat="40.01602874150397" lon="-0.4744778194158903">
        <ele>718.1</ele>
        <time>2022-04-23T10:45:39.000Z</time>
      </trkpt>
      <trkpt lat="40.01602043285745" lon="-0.4744752215736487">
        <ele>718.6</ele>
        <time>2022-04-23T10:45:40.000Z</time>
      </trkpt>
      <trkpt lat="40.01601284401232" lon="-0.47447296939726297">
        <ele>718.6</ele>
        <time>2022-04-23T10:45:41.000Z</time>
      </trkpt>
      <trkpt lat="40.01600598819674" lon="-0.47447061502970517">
        <ele>718.6</ele>
        <time>2022-04-23T10:45:42.000Z</time>
      </trkpt>
      <trkpt lat="40.01599978486214" lon="-0.47446778573025017">
        <ele>718.6</ele>
        <time>2022-04-23T10:45:43.000Z</time>
      </trkpt>
      <trkpt lat="40.015994304544144" lon="-0.47446461321964084">
        <ele>718.6</ele>
        <time>2022-04-23T10:45:44.000Z</time>
      </trkpt>
      <trkpt lat="40.015989348372266" lon="-0.47446119308899104">
        <ele>719.3</ele>
        <time>2022-04-23T10:45:45.000Z</time>
      </trkpt>
      <trkpt lat="40.01598496926533" lon="-0.4744576657195877">
        <ele>719.3</ele>
        <time>2022-04-23T10:45:46.000Z</time>
      </trkpt>
      <trkpt lat="40.015981208267974" lon="-0.4744542010669935">
        <ele>719.3</ele>
        <time>2022-04-23T10:45:47.000Z</time>
      </trkpt>
      <trkpt lat="40.015978058258774" lon="-0.47445095462272735">
        <ele>719.3</ele>
        <time>2022-04-23T10:45:48.000Z</time>
      </trkpt>
      <trkpt lat="40.01597558681026" lon="-0.47444802092937155">
        <ele>719.3</ele>
        <time>2022-04-23T10:45:49.000Z</time>
      </trkpt>
      <trkpt lat="40.015973769591945" lon="-0.4744454379616453">
        <ele>719.5</ele>
        <time>2022-04-23T10:45:50.000Z</time>
      </trkpt>
      <trkpt lat="40.0159723934345" lon="-0.47444309552621233">
        <ele>719.5</ele>
        <time>2022-04-23T10:45:51.000Z</time>
      </trkpt>
      <trkpt lat="40.01597121104926" lon="-0.4744409712503385">
        <ele>719.5</ele>
        <time>2022-04-23T10:45:52.000Z</time>
      </trkpt>
      <trkpt lat="40.0159719371099" lon="-0.47443866515993044">
        <ele>719.5</ele>
        <time>2022-04-23T10:45:53.000Z</time>
      </trkpt>
      <trkpt lat="40.01597404522307" lon="-0.4744362920204091">
        <ele>719.5</ele>
        <time>2022-04-23T10:45:54.000Z</time>
      </trkpt>
      <trkpt lat="40.01597739850696" lon="-0.47443374469462274">
        <ele>719.2</ele>
        <time>2022-04-23T10:45:55.000Z</time>
      </trkpt>
      <trkpt lat="40.01598071537142" lon="-0.4744302490575189">
        <ele>719.2</ele>
        <time>2022-04-23T10:45:56.000Z</time>
      </trkpt>
      <trkpt lat="40.01598415884019" lon="-0.4744261999868406">
        <ele>719.2</ele>
        <time>2022-04-23T10:45:57.000Z</time>
      </trkpt>
      <trkpt lat="40.015985258700425" lon="-0.4744230894818273">
        <ele>719.2</ele>
        <time>2022-04-23T10:45:58.000Z</time>
      </trkpt>
      <trkpt lat="40.01598764650344" lon="-0.47442153535506953">
        <ele>719.2</ele>
        <time>2022-04-23T10:45:59.000Z</time>
      </trkpt>
      <trkpt lat="40.015990829187736" lon="-0.4744206389582492">
        <ele>719.9</ele>
        <time>2022-04-23T10:46:00.000Z</time>
      </trkpt>
      <trkpt lat="40.01599463475618" lon="-0.47442016826111844">
        <ele>719.9</ele>
        <time>2022-04-23T10:46:01.000Z</time>
      </trkpt>
      <trkpt lat="40.01599859816918" lon="-0.47442017919348084">
        <ele>719.9</ele>
        <time>2022-04-23T10:46:02.000Z</time>
      </trkpt>
      <trkpt lat="40.016002643500244" lon="-0.47442053930306005">
        <ele>719.9</ele>
        <time>2022-04-23T10:46:03.000Z</time>
      </trkpt>
      <trkpt lat="40.016005044830216" lon="-0.47442167139592417">
        <ele>719.9</ele>
        <time>2022-04-23T10:46:04.000Z</time>
      </trkpt>
      <trkpt lat="40.016006426864074" lon="-0.47442348315253985">
        <ele>719.2</ele>
        <time>2022-04-23T10:46:05.000Z</time>
      </trkpt>
      <trkpt lat="40.01600672825742" lon="-0.47442590654028755">
        <ele>719.2</ele>
        <time>2022-04-23T10:46:06.000Z</time>
      </trkpt>
      <trkpt lat="40.01600721280934" lon="-0.47442957220204324">
        <ele>719.2</ele>
        <time>2022-04-23T10:46:07.000Z</time>
      </trkpt>
      <trkpt lat="40.016007627712696" lon="-0.47443398090273997">
        <ele>719.2</ele>
        <time>2022-04-23T10:46:08.000Z</time>
      </trkpt>
      <trkpt lat="40.01601044209408" lon="-0.47443756318592795">
        <ele>719.2</ele>
        <time>2022-04-23T10:46:09.000Z</time>
      </trkpt>
      <trkpt lat="40.01601199371908" lon="-0.4744396402087989">
        <ele>718.7</ele>
        <time>2022-04-23T10:46:10.000Z</time>
      </trkpt>
      <trkpt lat="40.016012754409466" lon="-0.4744410727912584">
        <ele>718.7</ele>
        <time>2022-04-23T10:46:11.000Z</time>
      </trkpt>
      <trkpt lat="40.0160128862179" lon="-0.47444207308209835">
        <ele>718.7</ele>
        <time>2022-04-23T10:46:12.000Z</time>
      </trkpt>
      <trkpt lat="40.01601285044898" lon="-0.47444257812066487">
        <ele>718.7</ele>
        <time>2022-04-23T10:46:13.000Z</time>
      </trkpt>
      <trkpt lat="40.01601271271122" lon="-0.47444271809960853">
        <ele>718.7</ele>
        <time>2022-04-23T10:46:14.000Z</time>
      </trkpt>
      <trkpt lat="40.016012537859936" lon="-0.4744426292507955">
        <ele>718.4</ele>
        <time>2022-04-23T10:46:15.000Z</time>
      </trkpt>
      <trkpt lat="40.01601229429073" lon="-0.4744423971920991">
        <ele>718.4</ele>
        <time>2022-04-23T10:46:16.000Z</time>
      </trkpt>
      <trkpt lat="40.016012070535744" lon="-0.47444209463388937">
        <ele>718.4</ele>
        <time>2022-04-23T10:46:17.000Z</time>
      </trkpt>
      <trkpt lat="40.01601183525514" lon="-0.47444176457001846">
        <ele>718.4</ele>
        <time>2022-04-23T10:46:18.000Z</time>
      </trkpt>
      <trkpt lat="40.016011644791526" lon="-0.4744414427724765">
        <ele>718.4</ele>
        <time>2022-04-23T10:46:19.000Z</time>
      </trkpt>
      <trkpt lat="40.0160114682128" lon="-0.47444114401011306">
        <ele>718.1</ele>
        <time>2022-04-23T10:46:20.000Z</time>
      </trkpt>
      <trkpt lat="40.0160113108756" lon="-0.4744408790324072">
        <ele>718.1</ele>
        <time>2022-04-23T10:46:21.000Z</time>
      </trkpt>
      <trkpt lat="40.01601117511428" lon="-0.4744406526837365">
        <ele>718.1</ele>
        <time>2022-04-23T10:46:22.000Z</time>
      </trkpt>
      <trkpt lat="40.016011061152966" lon="-0.4744404657118908">
        <ele>718.1</ele>
        <time>2022-04-23T10:46:23.000Z</time>
      </trkpt>
      <trkpt lat="40.0160109677871" lon="-0.47444031609702475">
        <ele>718.1</ele>
        <time>2022-04-23T10:46:24.000Z</time>
      </trkpt>
      <trkpt lat="40.01601090584511" lon="-0.47444020404234216">
        <ele>718.1</ele>
        <time>2022-04-23T10:46:25.000Z</time>
      </trkpt>
      <trkpt lat="40.016010859848485" lon="-0.4744401209604519">
        <ele>718.1</ele>
        <time>2022-04-23T10:46:26.000Z</time>
      </trkpt>
      <trkpt lat="40.01601079320974" lon="-0.4744400009320537">
        <ele>718.1</ele>
        <time>2022-04-23T10:46:27.000Z</time>
      </trkpt>
      <trkpt lat="40.01601078009674" lon="-0.47443997732790466">
        <ele>718.1</ele>
        <time>2022-04-23T10:46:28.000Z</time>
      </trkpt>
      <trkpt lat="40.01601077092108" lon="-0.4744399607871184">
        <ele>718.1</ele>
        <time>2022-04-23T10:46:29.000Z</time>
      </trkpt>
      <trkpt lat="40.01601076448441" lon="-0.4744399492085681">
        <ele>718.3</ele>
        <time>2022-04-23T10:46:30.000Z</time>
      </trkpt>
      <trkpt lat="40.01601075999929" lon="-0.4744399411169943">
        <ele>718.3</ele>
        <time>2022-04-23T10:46:31.000Z</time>
      </trkpt>
      <trkpt lat="40.01590906886874" lon="-0.4743662201204735">
        <ele>719</ele>
        <time>2022-04-23T10:46:54.000Z</time>
      </trkpt>
      <trkpt lat="40.01590828475557" lon="-0.4743665731286558">
        <ele>719.5</ele>
        <time>2022-04-23T10:46:55.000Z</time>
      </trkpt>
      <trkpt lat="40.015908975978995" lon="-0.4743599515820906">
        <ele>719.9</ele>
        <time>2022-04-23T10:46:56.000Z</time>
      </trkpt>
      <trkpt lat="40.015909670472105" lon="-0.4743533624462049">
        <ele>720.4</ele>
        <time>2022-04-23T10:46:57.000Z</time>
      </trkpt>
      <trkpt lat="40.015910632342475" lon="-0.4743437727631218">
        <ele>721.6</ele>
        <time>2022-04-23T10:46:58.000Z</time>
      </trkpt>
      <trkpt lat="40.015910718436146" lon="-0.4743318247987194">
        <ele>721.6</ele>
        <time>2022-04-23T10:46:59.000Z</time>
      </trkpt>
      <trkpt lat="40.01590992251902" lon="-0.4743254736679676">
        <ele>721.9</ele>
        <time>2022-04-23T10:47:00.000Z</time>
      </trkpt>
      <trkpt lat="40.0159086053479" lon="-0.47431913757516164">
        <ele>721.9</ele>
        <time>2022-04-23T10:47:01.000Z</time>
      </trkpt>
      <trkpt lat="40.01590660851403" lon="-0.47431351494098456">
        <ele>721.9</ele>
        <time>2022-04-23T10:47:02.000Z</time>
      </trkpt>
      <trkpt lat="40.01590392672533" lon="-0.47430855703562375">
        <ele>721.9</ele>
        <time>2022-04-23T10:47:03.000Z</time>
      </trkpt>
      <trkpt lat="40.015900481024886" lon="-0.47430449409479414">
        <ele>721.9</ele>
        <time>2022-04-23T10:47:04.000Z</time>
      </trkpt>
      <trkpt lat="40.015895913610535" lon="-0.4743014474827751">
        <ele>722.7</ele>
        <time>2022-04-23T10:47:05.000Z</time>
      </trkpt>
      <trkpt lat="40.01589027745974" lon="-0.47429966508538574">
        <ele>722.7</ele>
        <time>2022-04-23T10:47:06.000Z</time>
      </trkpt>
      <trkpt lat="40.01588363989545" lon="-0.4742991573939326">
        <ele>722.7</ele>
        <time>2022-04-23T10:47:07.000Z</time>
      </trkpt>
      <trkpt lat="40.01587627868767" lon="-0.4742998716816246">
        <ele>722.7</ele>
        <time>2022-04-23T10:47:08.000Z</time>
      </trkpt>
      <trkpt lat="40.015868255146465" lon="-0.4743015323743717">
        <ele>722.7</ele>
        <time>2022-04-23T10:47:09.000Z</time>
      </trkpt>
      <trkpt lat="40.01586007216643" lon="-0.47430389289294206">
        <ele>723.7</ele>
        <time>2022-04-23T10:47:10.000Z</time>
      </trkpt>
      <trkpt lat="40.01585170276025" lon="-0.47430647304212764">
        <ele>723.7</ele>
        <time>2022-04-23T10:47:11.000Z</time>
      </trkpt>
      <trkpt lat="40.01584314333922" lon="-0.4743088885785889">
        <ele>723.7</ele>
        <time>2022-04-23T10:47:12.000Z</time>
      </trkpt>
      <trkpt lat="40.01583445263125" lon="-0.4743108071363933">
        <ele>723.7</ele>
        <time>2022-04-23T10:47:13.000Z</time>
      </trkpt>
      <trkpt lat="40.01582578702273" lon="-0.4743123659072049">
        <ele>723.7</ele>
        <time>2022-04-23T10:47:14.000Z</time>
      </trkpt>
      <trkpt lat="40.01581727221817" lon="-0.47431329416939144">
        <ele>724.5</ele>
        <time>2022-04-23T10:47:15.000Z</time>
      </trkpt>
      <trkpt lat="40.015809244357484" lon="-0.4743135596748346">
        <ele>724.5</ele>
        <time>2022-04-23T10:47:16.000Z</time>
      </trkpt>
      <trkpt lat="40.015801548562735" lon="-0.47431294278174296">
        <ele>724.5</ele>
        <time>2022-04-23T10:47:17.000Z</time>
      </trkpt>
      <trkpt lat="40.0157941008869" lon="-0.4743113624420813">
        <ele>724.5</ele>
        <time>2022-04-23T10:47:18.000Z</time>
      </trkpt>
      <trkpt lat="40.01578661947305" lon="-0.47430901184788454">
        <ele>724.5</ele>
        <time>2022-04-23T10:47:19.000Z</time>
      </trkpt>
      <trkpt lat="40.015779288223634" lon="-0.4743057921089875">
        <ele>725.2</ele>
        <time>2022-04-23T10:47:20.000Z</time>
      </trkpt>
      <trkpt lat="40.01577181086927" lon="-0.4743022812236339">
        <ele>725.2</ele>
        <time>2022-04-23T10:47:21.000Z</time>
      </trkpt>
      <trkpt lat="40.015764217040235" lon="-0.474298847703284">
        <ele>725.2</ele>
        <time>2022-04-23T10:47:22.000Z</time>
      </trkpt>
      <trkpt lat="40.015756694788735" lon="-0.4742957195972016">
        <ele>725.2</ele>
        <time>2022-04-23T10:47:23.000Z</time>
      </trkpt>
      <trkpt lat="40.015749151784604" lon="-0.4742928585327677">
        <ele>725.2</ele>
        <time>2022-04-23T10:47:24.000Z</time>
      </trkpt>
      <trkpt lat="40.015741520538576" lon="-0.4742898315662941">
        <ele>725.9</ele>
        <time>2022-04-23T10:47:25.000Z</time>
      </trkpt>
      <trkpt lat="40.01573388074249" lon="-0.47428703657595844">
        <ele>725.9</ele>
        <time>2022-04-23T10:47:26.000Z</time>
      </trkpt>
      <trkpt lat="40.01572639508941" lon="-0.47428430963890605">
        <ele>725.9</ele>
        <time>2022-04-23T10:47:27.000Z</time>
      </trkpt>
      <trkpt lat="40.01571914518769" lon="-0.4742814761692703">
        <ele>725.9</ele>
        <time>2022-04-23T10:47:28.000Z</time>
      </trkpt>
      <trkpt lat="40.015712275692636" lon="-0.4742786492274909">
        <ele>725.9</ele>
        <time>2022-04-23T10:47:29.000Z</time>
      </trkpt>
      <trkpt lat="40.01570564661537" lon="-0.4742756485583723">
        <ele>726.8</ele>
        <time>2022-04-23T10:47:30.000Z</time>
      </trkpt>
      <trkpt lat="40.01569909389101" lon="-0.4742724491609868">
        <ele>726.8</ele>
        <time>2022-04-23T10:47:31.000Z</time>
      </trkpt>
      <trkpt lat="40.01569278390793" lon="-0.4742686117730877">
        <ele>726.8</ele>
        <time>2022-04-23T10:47:32.000Z</time>
      </trkpt>
      <trkpt lat="40.015686799268934" lon="-0.4742640937243388">
        <ele>726.8</ele>
        <time>2022-04-23T10:47:33.000Z</time>
      </trkpt>
      <trkpt lat="40.01568097959434" lon="-0.4742589306969679">
        <ele>726.8</ele>
        <time>2022-04-23T10:47:34.000Z</time>
      </trkpt>
      <trkpt lat="40.015675311891" lon="-0.4742533595764673">
        <ele>727.3</ele>
        <time>2022-04-23T10:47:35.000Z</time>
      </trkpt>
      <trkpt lat="40.01566962182586" lon="-0.4742475996703616">
        <ele>727.3</ele>
        <time>2022-04-23T10:47:36.000Z</time>
      </trkpt>
      <trkpt lat="40.0156636676443" lon="-0.47424157797435673">
        <ele>727.3</ele>
        <time>2022-04-23T10:47:37.000Z</time>
      </trkpt>
      <trkpt lat="40.01565724563587" lon="-0.47423557300388824">
        <ele>727.3</ele>
        <time>2022-04-23T10:47:38.000Z</time>
      </trkpt>
      <trkpt lat="40.015650332585956" lon="-0.47422967929349186">
        <ele>727.3</ele>
        <time>2022-04-23T10:47:39.000Z</time>
      </trkpt>
      <trkpt lat="40.01564300006508" lon="-0.4742238817788056">
        <ele>727.7</ele>
        <time>2022-04-23T10:47:40.000Z</time>
      </trkpt>
      <trkpt lat="40.01563575801544" lon="-0.4742174735717292">
        <ele>727.7</ele>
        <time>2022-04-23T10:47:41.000Z</time>
      </trkpt>
      <trkpt lat="40.01562856471076" lon="-0.47421036360942903">
        <ele>727.7</ele>
        <time>2022-04-23T10:47:42.000Z</time>
      </trkpt>
      <trkpt lat="40.01562134995624" lon="-0.4742025072444157">
        <ele>727.7</ele>
        <time>2022-04-23T10:47:43.000Z</time>
      </trkpt>
      <trkpt lat="40.0156140935844" lon="-0.4741938191807211">
        <ele>727.7</ele>
        <time>2022-04-23T10:47:44.000Z</time>
      </trkpt>
      <trkpt lat="40.01560629460772" lon="-0.4741843930354252">
        <ele>728.1</ele>
        <time>2022-04-23T10:47:45.000Z</time>
      </trkpt>
      <trkpt lat="40.01559828817937" lon="-0.47417461619438295">
        <ele>728.1</ele>
        <time>2022-04-23T10:47:46.000Z</time>
      </trkpt>
      <trkpt lat="40.015590068534976" lon="-0.47416502574624514">
        <ele>728.1</ele>
        <time>2022-04-23T10:47:47.000Z</time>
      </trkpt>
      <trkpt lat="40.01558177351034" lon="-0.4741556589582134">
        <ele>728.1</ele>
        <time>2022-04-23T10:47:48.000Z</time>
      </trkpt>
      <trkpt lat="40.01557344724704" lon="-0.4741465790544814">
        <ele>728.1</ele>
        <time>2022-04-23T10:47:49.000Z</time>
      </trkpt>
      <trkpt lat="40.015565122580455" lon="-0.4741378259296494">
        <ele>728.4</ele>
        <time>2022-04-23T10:47:50.000Z</time>
      </trkpt>
      <trkpt lat="40.01555663032717" lon="-0.47412926507634867">
        <ele>728.4</ele>
        <time>2022-04-23T10:47:51.000Z</time>
      </trkpt>
      <trkpt lat="40.015547962967375" lon="-0.47412145193234834">
        <ele>728.4</ele>
        <time>2022-04-23T10:47:52.000Z</time>
      </trkpt>
      <trkpt lat="40.01553912467806" lon="-0.4741142901251527">
        <ele>728.4</ele>
        <time>2022-04-23T10:47:53.000Z</time>
      </trkpt>
      <trkpt lat="40.015530134579336" lon="-0.474107661356797">
        <ele>728.4</ele>
        <time>2022-04-23T10:47:54.000Z</time>
      </trkpt>
      <trkpt lat="40.015520992011375" lon="-0.4741015514763111">
        <ele>728.6</ele>
        <time>2022-04-23T10:47:55.000Z</time>
      </trkpt>
      <trkpt lat="40.015512215788554" lon="-0.474095788747733">
        <ele>728.6</ele>
        <time>2022-04-23T10:47:56.000Z</time>
      </trkpt>
      <trkpt lat="40.015503581262585" lon="-0.47408992886839657">
        <ele>728.6</ele>
        <time>2022-04-23T10:47:57.000Z</time>
      </trkpt>
      <trkpt lat="40.01549514736258" lon="-0.474083500349273">
        <ele>728.6</ele>
        <time>2022-04-23T10:47:58.000Z</time>
      </trkpt>
      <trkpt lat="40.015486771585515" lon="-0.4740765215029043">
        <ele>728.6</ele>
        <time>2022-04-23T10:47:59.000Z</time>
      </trkpt>
      <trkpt lat="40.015478441960695" lon="-0.47406891817893865">
        <ele>728.8</ele>
        <time>2022-04-23T10:48:00.000Z</time>
      </trkpt>
      <trkpt lat="40.01547029938819" lon="-0.4740608771258836">
        <ele>728.8</ele>
        <time>2022-04-23T10:48:01.000Z</time>
      </trkpt>
      <trkpt lat="40.015462309250694" lon="-0.4740523290966454">
        <ele>728.8</ele>
        <time>2022-04-23T10:48:02.000Z</time>
      </trkpt>
      <trkpt lat="40.01545424987549" lon="-0.4740432059434522">
        <ele>728.8</ele>
        <time>2022-04-23T10:48:03.000Z</time>
      </trkpt>
      <trkpt lat="40.01544615019333" lon="-0.47403365123443886">
        <ele>728.8</ele>
        <time>2022-04-23T10:48:04.000Z</time>
      </trkpt>
      <trkpt lat="40.01543798590175" lon="-0.47402386968317994">
        <ele>728.9</ele>
        <time>2022-04-23T10:48:05.000Z</time>
      </trkpt>
      <trkpt lat="40.015429739486684" lon="-0.4740140585538738">
        <ele>728.9</ele>
        <time>2022-04-23T10:48:06.000Z</time>
      </trkpt>
      <trkpt lat="40.01542158750818" lon="-0.47400449774880776">
        <ele>728.9</ele>
        <time>2022-04-23T10:48:07.000Z</time>
      </trkpt>
      <trkpt lat="40.015413375452084" lon="-0.4739954950251658">
        <ele>728.9</ele>
        <time>2022-04-23T10:48:08.000Z</time>
      </trkpt>
      <trkpt lat="40.0154050953099" lon="-0.47398719407097184">
        <ele>728.9</ele>
        <time>2022-04-23T10:48:09.000Z</time>
      </trkpt>
      <trkpt lat="40.01539681454522" lon="-0.4739795985154092">
        <ele>728.9</ele>
        <time>2022-04-23T10:48:10.000Z</time>
      </trkpt>
      <trkpt lat="40.01538853917451" lon="-0.47397268329557357">
        <ele>728.9</ele>
        <time>2022-04-23T10:48:11.000Z</time>
      </trkpt>
      <trkpt lat="40.01538029198755" lon="-0.47396631905322867">
        <ele>728.9</ele>
        <time>2022-04-23T10:48:12.000Z</time>
      </trkpt>
      <trkpt lat="40.01537204492508" lon="-0.4739605630628207">
        <ele>728.9</ele>
        <time>2022-04-23T10:48:13.000Z</time>
      </trkpt>
      <trkpt lat="40.01536375089801" lon="-0.47395544099685927">
        <ele>728.9</ele>
        <time>2022-04-23T10:48:14.000Z</time>
      </trkpt>
      <trkpt lat="40.0153555609656" lon="-0.47395103667606775">
        <ele>728.5</ele>
        <time>2022-04-23T10:48:15.000Z</time>
      </trkpt>
      <trkpt lat="40.015347486261305" lon="-0.4739473524250741">
        <ele>728.5</ele>
        <time>2022-04-23T10:48:16.000Z</time>
      </trkpt>
      <trkpt lat="40.01533945996271" lon="-0.4739442742314385">
        <ele>728.5</ele>
        <time>2022-04-23T10:48:17.000Z</time>
      </trkpt>
      <trkpt lat="40.01533120032884" lon="-0.47394165923620013">
        <ele>728.5</ele>
        <time>2022-04-23T10:48:18.000Z</time>
      </trkpt>
      <trkpt lat="40.01532273534422" lon="-0.47393936407645776">
        <ele>728.5</ele>
        <time>2022-04-23T10:48:19.000Z</time>
      </trkpt>
      <trkpt lat="40.01531403852766" lon="-0.4739373727195932">
        <ele>728.5</ele>
        <time>2022-04-23T10:48:20.000Z</time>
      </trkpt>
      <trkpt lat="40.01530510855946" lon="-0.47393564754889755">
        <ele>727.9</ele>
        <time>2022-04-23T10:48:21.000Z</time>
      </trkpt>
      <trkpt lat="40.01529592793799" lon="-0.47393427846082686">
        <ele>727.9</ele>
        <time>2022-04-23T10:48:22.000Z</time>
      </trkpt>
      <trkpt lat="40.01528634558529" lon="-0.47393311633780616">
        <ele>727.9</ele>
        <time>2022-04-23T10:48:23.000Z</time>
      </trkpt>
      <trkpt lat="40.01527643512148" lon="-0.4739319553689715">
        <ele>727.9</ele>
        <time>2022-04-23T10:48:24.000Z</time>
      </trkpt>
      <trkpt lat="40.015266301111225" lon="-0.47393058035553765">
        <ele>727.9</ele>
        <time>2022-04-23T10:48:25.000Z</time>
      </trkpt>
      <trkpt lat="40.01525581398709" lon="-0.4739288264480501">
        <ele>727.3</ele>
        <time>2022-04-23T10:48:26.000Z</time>
      </trkpt>
      <trkpt lat="40.015245188337744" lon="-0.47392679289430933">
        <ele>727.3</ele>
        <time>2022-04-23T10:48:27.000Z</time>
      </trkpt>
      <trkpt lat="40.01523445142251" lon="-0.47392434664187116">
        <ele>727.3</ele>
        <time>2022-04-23T10:48:28.000Z</time>
      </trkpt>
      <trkpt lat="40.0152237129946" lon="-0.47392143071702786">
        <ele>727.3</ele>
        <time>2022-04-23T10:48:29.000Z</time>
      </trkpt>
      <trkpt lat="40.015213247601984" lon="-0.4739181439164721">
        <ele>727.3</ele>
        <time>2022-04-23T10:48:30.000Z</time>
      </trkpt>
      <trkpt lat="40.015203074473746" lon="-0.47391447512506785">
        <ele>727.2</ele>
        <time>2022-04-23T10:48:31.000Z</time>
      </trkpt>
      <trkpt lat="40.01519316180006" lon="-0.47391050621686576">
        <ele>727.2</ele>
        <time>2022-04-23T10:48:32.000Z</time>
      </trkpt>
      <trkpt lat="40.01518351311674" lon="-0.47390610597636545">
        <ele>727.2</ele>
        <time>2022-04-23T10:48:33.000Z</time>
      </trkpt>
      <trkpt lat="40.01517413135575" lon="-0.4739014817790844">
        <ele>727.2</ele>
        <time>2022-04-23T10:48:34.000Z</time>
      </trkpt>
      <trkpt lat="40.015165058025495" lon="-0.47389703157940094">
        <ele>727.2</ele>
        <time>2022-04-23T10:48:35.000Z</time>
      </trkpt>
      <trkpt lat="40.015156296543495" lon="-0.47389302051089904">
        <ele>728</ele>
        <time>2022-04-23T10:48:36.000Z</time>
      </trkpt>
      <trkpt lat="40.015147988149096" lon="-0.473889563110279">
        <ele>728</ele>
        <time>2022-04-23T10:48:37.000Z</time>
      </trkpt>
      <trkpt lat="40.015139929614264" lon="-0.47388654872605807">
        <ele>728</ele>
        <time>2022-04-23T10:48:38.000Z</time>
      </trkpt>
      <trkpt lat="40.015132235659784" lon="-0.4738840092162071">
        <ele>728</ele>
        <time>2022-04-23T10:48:39.000Z</time>
      </trkpt>
      <trkpt lat="40.01512487199829" lon="-0.4738817106589315">
        <ele>728</ele>
        <time>2022-04-23T10:48:40.000Z</time>
      </trkpt>
      <trkpt lat="40.01511757851758" lon="-0.47387936177670953">
        <ele>728.3</ele>
        <time>2022-04-23T10:48:41.000Z</time>
      </trkpt>
      <trkpt lat="40.0151103667962" lon="-0.47387684488321374">
        <ele>728.3</ele>
        <time>2022-04-23T10:48:42.000Z</time>
      </trkpt>
      <trkpt lat="40.01510324684397" lon="-0.47387408944305137">
        <ele>728.3</ele>
        <time>2022-04-23T10:48:43.000Z</time>
      </trkpt>
      <trkpt lat="40.015096375375585" lon="-0.47387129261069183">
        <ele>728.3</ele>
        <time>2022-04-23T10:48:44.000Z</time>
      </trkpt>
      <trkpt lat="40.01508954501719" lon="-0.4738685924048301">
        <ele>728.3</ele>
        <time>2022-04-23T10:48:45.000Z</time>
      </trkpt>
      <trkpt lat="40.01508259775305" lon="-0.4738658368915151">
        <ele>729.4</ele>
        <time>2022-04-23T10:48:46.000Z</time>
      </trkpt>
      <trkpt lat="40.0150755044999" lon="-0.47386285243484844">
        <ele>729.4</ele>
        <time>2022-04-23T10:48:47.000Z</time>
      </trkpt>
      <trkpt lat="40.01506809316102" lon="-0.4738595103430955">
        <ele>729.4</ele>
        <time>2022-04-23T10:48:48.000Z</time>
      </trkpt>
      <trkpt lat="40.015060532446725" lon="-0.4738558780142139">
        <ele>729.4</ele>
        <time>2022-04-23T10:48:49.000Z</time>
      </trkpt>
      <trkpt lat="40.01505272114452" lon="-0.47385195478983005">
        <ele>729.4</ele>
        <time>2022-04-23T10:48:50.000Z</time>
      </trkpt>
      <trkpt lat="40.01504461454636" lon="-0.47384794518438067">
        <ele>729.2</ele>
        <time>2022-04-23T10:48:51.000Z</time>
      </trkpt>
      <trkpt lat="40.01503624716996" lon="-0.47384399191458554">
        <ele>729.2</ele>
        <time>2022-04-23T10:48:52.000Z</time>
      </trkpt>
      <trkpt lat="40.015027834463005" lon="-0.47384024464260005">
        <ele>729.2</ele>
        <time>2022-04-23T10:48:53.000Z</time>
      </trkpt>
      <trkpt lat="40.01501931855156" lon="-0.47383665900135336">
        <ele>729.2</ele>
        <time>2022-04-23T10:48:54.000Z</time>
      </trkpt>
      <trkpt lat="40.0150105012063" lon="-0.47383313453602655">
        <ele>729.2</ele>
        <time>2022-04-23T10:48:55.000Z</time>
      </trkpt>
      <trkpt lat="40.015001525471796" lon="-0.473829380647792">
        <ele>729.3</ele>
        <time>2022-04-23T10:48:56.000Z</time>
      </trkpt>
      <trkpt lat="40.014992488302646" lon="-0.4738254152996847">
        <ele>729.3</ele>
        <time>2022-04-23T10:48:57.000Z</time>
      </trkpt>
      <trkpt lat="40.01498359143906" lon="-0.4738213970378407">
        <ele>729.3</ele>
        <time>2022-04-23T10:48:58.000Z</time>
      </trkpt>
      <trkpt lat="40.014974762490375" lon="-0.4738174778205954">
        <ele>729.3</ele>
        <time>2022-04-23T10:48:59.000Z</time>
      </trkpt>
      <trkpt lat="40.01496576783184" lon="-0.4738135600095062">
        <ele>729.3</ele>
        <time>2022-04-23T10:49:00.000Z</time>
      </trkpt>
      <trkpt lat="40.014956670186685" lon="-0.47380977584827444">
        <ele>729.4</ele>
        <time>2022-04-23T10:49:01.000Z</time>
      </trkpt>
      <trkpt lat="40.01494751895661" lon="-0.47380616114917706">
        <ele>729.4</ele>
        <time>2022-04-23T10:49:02.000Z</time>
      </trkpt>
      <trkpt lat="40.01493854685752" lon="-0.47380278895511635">
        <ele>729.4</ele>
        <time>2022-04-23T10:49:03.000Z</time>
      </trkpt>
      <trkpt lat="40.01492951757546" lon="-0.47379963936451264">
        <ele>729.4</ele>
        <time>2022-04-23T10:49:04.000Z</time>
      </trkpt>
      <trkpt lat="40.01492048228004" lon="-0.4737967711595692">
        <ele>729.4</ele>
        <time>2022-04-23T10:49:05.000Z</time>
      </trkpt>
      <trkpt lat="40.01491147667792" lon="-0.47379418813609475">
        <ele>729.7</ele>
        <time>2022-04-23T10:49:06.000Z</time>
      </trkpt>
      <trkpt lat="40.014902511544626" lon="-0.47379181189885267">
        <ele>729.7</ele>
        <time>2022-04-23T10:49:07.000Z</time>
      </trkpt>
      <trkpt lat="40.01489379192584" lon="-0.47378962835376953">
        <ele>729.7</ele>
        <time>2022-04-23T10:49:08.000Z</time>
      </trkpt>
      <trkpt lat="40.014884876381004" lon="-0.4737872936509659">
        <ele>729.7</ele>
        <time>2022-04-23T10:49:09.000Z</time>
      </trkpt>
      <trkpt lat="40.01487585280728" lon="-0.4737846148463128">
        <ele>729.7</ele>
        <time>2022-04-23T10:49:10.000Z</time>
      </trkpt>
      <trkpt lat="40.01486698546271" lon="-0.47378175740699824">
        <ele>729.9</ele>
        <time>2022-04-23T10:49:11.000Z</time>
      </trkpt>
      <trkpt lat="40.01485827518145" lon="-0.47377859191788924">
        <ele>729.9</ele>
        <time>2022-04-23T10:49:12.000Z</time>
      </trkpt>
      <trkpt lat="40.01484969355877" lon="-0.4737751529273481">
        <ele>729.9</ele>
        <time>2022-04-23T10:49:13.000Z</time>
      </trkpt>
      <trkpt lat="40.01484101811268" lon="-0.4737713726594619">
        <ele>729.9</ele>
        <time>2022-04-23T10:49:14.000Z</time>
      </trkpt>
      <trkpt lat="40.01483246352523" lon="-0.4737672959364734">
        <ele>729.9</ele>
        <time>2022-04-23T10:49:15.000Z</time>
      </trkpt>
      <trkpt lat="40.014824028725705" lon="-0.4737628640046276">
        <ele>730.3</ele>
        <time>2022-04-23T10:49:16.000Z</time>
      </trkpt>
      <trkpt lat="40.01481565846089" lon="-0.47375812009712953">
        <ele>730.3</ele>
        <time>2022-04-23T10:49:17.000Z</time>
      </trkpt>
      <trkpt lat="40.01480733624073" lon="-0.4737532467501145">
        <ele>730.3</ele>
        <time>2022-04-23T10:49:18.000Z</time>
      </trkpt>
      <trkpt lat="40.01479882260142" lon="-0.47374833407543204">
        <ele>730.3</ele>
        <time>2022-04-23T10:49:19.000Z</time>
      </trkpt>
      <trkpt lat="40.01479029370459" lon="-0.4737438429874917">
        <ele>730.3</ele>
        <time>2022-04-23T10:49:20.000Z</time>
      </trkpt>
      <trkpt lat="40.014781697714575" lon="-0.47373994071320863">
        <ele>730.7</ele>
        <time>2022-04-23T10:49:21.000Z</time>
      </trkpt>
      <trkpt lat="40.01477287602425" lon="-0.4737366690674396">
        <ele>730.7</ele>
        <time>2022-04-23T10:49:22.000Z</time>
      </trkpt>
      <trkpt lat="40.014763848342014" lon="-0.4737340146795093">
        <ele>730.7</ele>
        <time>2022-04-23T10:49:23.000Z</time>
      </trkpt>
      <trkpt lat="40.01475485238868" lon="-0.47373195614008096">
        <ele>730.7</ele>
        <time>2022-04-23T10:49:24.000Z</time>
      </trkpt>
      <trkpt lat="40.01474588144743" lon="-0.4737302681878186">
        <ele>730.7</ele>
        <time>2022-04-23T10:49:25.000Z</time>
      </trkpt>
      <trkpt lat="40.014736719018565" lon="-0.47372893366030216">
        <ele>731</ele>
        <time>2022-04-23T10:49:26.000Z</time>
      </trkpt>
      <trkpt lat="40.014727572338984" lon="-0.4737279754380491">
        <ele>731</ele>
        <time>2022-04-23T10:49:27.000Z</time>
      </trkpt>
      <trkpt lat="40.01471843369589" lon="-0.47372723800262934">
        <ele>731</ele>
        <time>2022-04-23T10:49:28.000Z</time>
      </trkpt>
      <trkpt lat="40.01470926356669" lon="-0.473726634338988">
        <ele>731</ele>
        <time>2022-04-23T10:49:29.000Z</time>
      </trkpt>
      <trkpt lat="40.01470008248768" lon="-0.47372592014984877">
        <ele>731</ele>
        <time>2022-04-23T10:49:30.000Z</time>
      </trkpt>
      <trkpt lat="40.014690965980726" lon="-0.4737248223320551">
        <ele>731.4</ele>
        <time>2022-04-23T10:49:31.000Z</time>
      </trkpt>
      <trkpt lat="40.01468192078754" lon="-0.47372326301869483">
        <ele>731.4</ele>
        <time>2022-04-23T10:49:32.000Z</time>
      </trkpt>
      <trkpt lat="40.01467308653514" lon="-0.473721154483507">
        <ele>731.4</ele>
        <time>2022-04-23T10:49:33.000Z</time>
      </trkpt>
      <trkpt lat="40.01466436303818" lon="-0.47371853099443534">
        <ele>731.4</ele>
        <time>2022-04-23T10:49:34.000Z</time>
      </trkpt>
      <trkpt lat="40.0146554879248" lon="-0.4737154296926963">
        <ele>731.4</ele>
        <time>2022-04-23T10:49:35.000Z</time>
      </trkpt>
      <trkpt lat="40.01464647080641" lon="-0.47371209502999945">
        <ele>732</ele>
        <time>2022-04-23T10:49:36.000Z</time>
      </trkpt>
      <trkpt lat="40.01463731718594" lon="-0.4737084695043126">
        <ele>732</ele>
        <time>2022-04-23T10:49:37.000Z</time>
      </trkpt>
      <trkpt lat="40.014627863818625" lon="-0.4737046265933898">
        <ele>732</ele>
        <time>2022-04-23T10:49:38.000Z</time>
      </trkpt>
      <trkpt lat="40.01461840376565" lon="-0.47370071730051816">
        <ele>732</ele>
        <time>2022-04-23T10:49:39.000Z</time>
      </trkpt>
      <trkpt lat="40.01460891472902" lon="-0.4736968581171989">
        <ele>732</ele>
        <time>2022-04-23T10:49:40.000Z</time>
      </trkpt>
      <trkpt lat="40.01459937033956" lon="-0.473693279868432">
        <ele>731.8</ele>
        <time>2022-04-23T10:49:41.000Z</time>
      </trkpt>
      <trkpt lat="40.01458974124012" lon="-0.47369021312724724">
        <ele>731.8</ele>
        <time>2022-04-23T10:49:42.000Z</time>
      </trkpt>
      <trkpt lat="40.014580080106775" lon="-0.4736877462538951">
        <ele>731.8</ele>
        <time>2022-04-23T10:49:43.000Z</time>
      </trkpt>
      <trkpt lat="40.01457032238611" lon="-0.4736860179254443">
        <ele>731.8</ele>
        <time>2022-04-23T10:49:44.000Z</time>
      </trkpt>
      <trkpt lat="40.01456052631937" lon="-0.4736852199765423">
        <ele>731.8</ele>
        <time>2022-04-23T10:49:45.000Z</time>
      </trkpt>
      <trkpt lat="40.01455094716944" lon="-0.4736852167415704">
        <ele>731.5</ele>
        <time>2022-04-23T10:49:46.000Z</time>
      </trkpt>
      <trkpt lat="40.014541505604754" lon="-0.4736859547622112">
        <ele>731.5</ele>
        <time>2022-04-23T10:49:47.000Z</time>
      </trkpt>
      <trkpt lat="40.014532196732446" lon="-0.47368727009529005">
        <ele>731.5</ele>
        <time>2022-04-23T10:49:48.000Z</time>
      </trkpt>
      <trkpt lat="40.01452302141158" lon="-0.4736889423319287">
        <ele>731.5</ele>
        <time>2022-04-23T10:49:49.000Z</time>
      </trkpt>
      <trkpt lat="40.01451375174441" lon="-0.47369087967370316">
        <ele>731.5</ele>
        <time>2022-04-23T10:49:50.000Z</time>
      </trkpt>
      <trkpt lat="40.014504472129666" lon="-0.4736929164624159">
        <ele>731.3</ele>
        <time>2022-04-23T10:49:51.000Z</time>
      </trkpt>
      <trkpt lat="40.01449525008384" lon="-0.4736949644434811">
        <ele>731.3</ele>
        <time>2022-04-23T10:49:52.000Z</time>
      </trkpt>
      <trkpt lat="40.01448610712059" lon="-0.47369690266308717">
        <ele>731.3</ele>
        <time>2022-04-23T10:49:53.000Z</time>
      </trkpt>
      <trkpt lat="40.01447703396463" lon="-0.47369877290764256">
        <ele>731.3</ele>
        <time>2022-04-23T10:49:54.000Z</time>
      </trkpt>
      <trkpt lat="40.01446792695706" lon="-0.4737002627178751">
        <ele>731.3</ele>
        <time>2022-04-23T10:49:55.000Z</time>
      </trkpt>
      <trkpt lat="40.014458992830555" lon="-0.4737012749227061">
        <ele>731.3</ele>
        <time>2022-04-23T10:49:56.000Z</time>
      </trkpt>
      <trkpt lat="40.01445004116196" lon="-0.4737019063030666">
        <ele>731.3</ele>
        <time>2022-04-23T10:49:57.000Z</time>
      </trkpt>
      <trkpt lat="40.01444111150501" lon="-0.47370229892949484">
        <ele>731.3</ele>
        <time>2022-04-23T10:49:58.000Z</time>
      </trkpt>
      <trkpt lat="40.01443193726729" lon="-0.47370265961260744">
        <ele>731.3</ele>
        <time>2022-04-23T10:49:59.000Z</time>
      </trkpt>
      <trkpt lat="40.0144227789656" lon="-0.47370306350860486">
        <ele>731.3</ele>
        <time>2022-04-23T10:50:00.000Z</time>
      </trkpt>
      <trkpt lat="40.01441342158799" lon="-0.473703550912395">
        <ele>731.9</ele>
        <time>2022-04-23T10:50:01.000Z</time>
      </trkpt>
      <trkpt lat="40.014403909232456" lon="-0.4737042957524867">
        <ele>731.9</ele>
        <time>2022-04-23T10:50:02.000Z</time>
      </trkpt>
      <trkpt lat="40.01439429218465" lon="-0.4737052425466732">
        <ele>731.9</ele>
        <time>2022-04-23T10:50:03.000Z</time>
      </trkpt>
      <trkpt lat="40.01438478559347" lon="-0.473706323917317">
        <ele>731.9</ele>
        <time>2022-04-23T10:50:04.000Z</time>
      </trkpt>
      <trkpt lat="40.01437540856972" lon="-0.4737075634317575">
        <ele>731.9</ele>
        <time>2022-04-23T10:50:05.000Z</time>
      </trkpt>
      <trkpt lat="40.01436612561837" lon="-0.47370908571769427">
        <ele>732.7</ele>
        <time>2022-04-23T10:50:06.000Z</time>
      </trkpt>
      <trkpt lat="40.01435671159314" lon="-0.47371082805080983">
        <ele>732.7</ele>
        <time>2022-04-23T10:50:07.000Z</time>
      </trkpt>
      <trkpt lat="40.014347321409716" lon="-0.47371275855687744">
        <ele>732.7</ele>
        <time>2022-04-23T10:50:08.000Z</time>
      </trkpt>
      <trkpt lat="40.0143379377999" lon="-0.47371460562830486">
        <ele>732.7</ele>
        <time>2022-04-23T10:50:09.000Z</time>
      </trkpt>
      <trkpt lat="40.01432881676114" lon="-0.47371630819890137">
        <ele>732.7</ele>
        <time>2022-04-23T10:50:10.000Z</time>
      </trkpt>
      <trkpt lat="40.0143196567787" lon="-0.4737179661504569">
        <ele>733.3</ele>
        <time>2022-04-23T10:50:11.000Z</time>
      </trkpt>
      <trkpt lat="40.01431068331011" lon="-0.4737196060333124">
        <ele>733.3</ele>
        <time>2022-04-23T10:50:12.000Z</time>
      </trkpt>
      <trkpt lat="40.014301821705004" lon="-0.47372112502738073">
        <ele>733.3</ele>
        <time>2022-04-23T10:50:13.000Z</time>
      </trkpt>
      <trkpt lat="40.014292977529934" lon="-0.47372247552655494">
        <ele>733.3</ele>
        <time>2022-04-23T10:50:14.000Z</time>
      </trkpt>
      <trkpt lat="40.014284129868855" lon="-0.4737237061976552">
        <ele>733.3</ele>
        <time>2022-04-23T10:50:15.000Z</time>
      </trkpt>
      <trkpt lat="40.01427514275503" lon="-0.47372452785613783">
        <ele>733.8</ele>
        <time>2022-04-23T10:50:16.000Z</time>
      </trkpt>
      <trkpt lat="40.01426595227003" lon="-0.4737248335894322">
        <ele>733.8</ele>
        <time>2022-04-23T10:50:17.000Z</time>
      </trkpt>
      <trkpt lat="40.01425652172362" lon="-0.4737246393366839">
        <ele>733.8</ele>
        <time>2022-04-23T10:50:18.000Z</time>
      </trkpt>
      <trkpt lat="40.014246651915364" lon="-0.4737239111875843">
        <ele>733.8</ele>
        <time>2022-04-23T10:50:19.000Z</time>
      </trkpt>
      <trkpt lat="40.014236396243454" lon="-0.47372273462504705">
        <ele>733.8</ele>
        <time>2022-04-23T10:50:20.000Z</time>
      </trkpt>
      <trkpt lat="40.01422603246797" lon="-0.473721169772407">
        <ele>733.8</ele>
        <time>2022-04-23T10:50:21.000Z</time>
      </trkpt>
      <trkpt lat="40.014215603093284" lon="-0.4737189924574896">
        <ele>733.8</ele>
        <time>2022-04-23T10:50:22.000Z</time>
      </trkpt>
      <trkpt lat="40.0142051028904" lon="-0.4737161403664452">
        <ele>733.8</ele>
        <time>2022-04-23T10:50:23.000Z</time>
      </trkpt>
      <trkpt lat="40.01419455175446" lon="-0.4737127159820462">
        <ele>733.8</ele>
        <time>2022-04-23T10:50:24.000Z</time>
      </trkpt>
      <trkpt lat="40.01418397070111" lon="-0.473709053912556">
        <ele>733.8</ele>
        <time>2022-04-23T10:50:25.000Z</time>
      </trkpt>
      <trkpt lat="40.0141731974567" lon="-0.4737054579527243">
        <ele>733.1</ele>
        <time>2022-04-23T10:50:26.000Z</time>
      </trkpt>
      <trkpt lat="40.01416237002977" lon="-0.47370243880545426">
        <ele>733.1</ele>
        <time>2022-04-23T10:50:27.000Z</time>
      </trkpt>
      <trkpt lat="40.01415177453439" lon="-0.47369998795659235">
        <ele>733.1</ele>
        <time>2022-04-23T10:50:28.000Z</time>
      </trkpt>
      <trkpt lat="40.01414148154975" lon="-0.47369830937193086">
        <ele>733.1</ele>
        <time>2022-04-23T10:50:29.000Z</time>
      </trkpt>
      <trkpt lat="40.014131529210275" lon="-0.47369749725580257">
        <ele>733.1</ele>
        <time>2022-04-23T10:50:30.000Z</time>
      </trkpt>
      <trkpt lat="40.014121939813975" lon="-0.4736976928496825">
        <ele>733</ele>
        <time>2022-04-23T10:50:31.000Z</time>
      </trkpt>
      <trkpt lat="40.014112456342495" lon="-0.47369876339780087">
        <ele>733</ele>
        <time>2022-04-23T10:50:32.000Z</time>
      </trkpt>
      <trkpt lat="40.014103048990485" lon="-0.4737007754121558">
        <ele>733</ele>
        <time>2022-04-23T10:50:33.000Z</time>
      </trkpt>
      <trkpt lat="40.014093908903185" lon="-0.473703688207692">
        <ele>733</ele>
        <time>2022-04-23T10:50:34.000Z</time>
      </trkpt>
      <trkpt lat="40.014084950785474" lon="-0.47370720541058803">
        <ele>733</ele>
        <time>2022-04-23T10:50:35.000Z</time>
      </trkpt>
      <trkpt lat="40.014076123666946" lon="-0.47371088826355356">
        <ele>733.2</ele>
        <time>2022-04-23T10:50:36.000Z</time>
      </trkpt>
      <trkpt lat="40.014067362931954" lon="-0.4737142760594449">
        <ele>733.2</ele>
        <time>2022-04-23T10:50:37.000Z</time>
      </trkpt>
      <trkpt lat="40.01405860852157" lon="-0.473716944326055">
        <ele>733.2</ele>
        <time>2022-04-23T10:50:38.000Z</time>
      </trkpt>
      <trkpt lat="40.014049637580335" lon="-0.4737188739746111">
        <ele>733.2</ele>
        <time>2022-04-23T10:50:39.000Z</time>
      </trkpt>
      <trkpt lat="40.01404063622369" lon="-0.473719999513188">
        <ele>733.2</ele>
        <time>2022-04-23T10:50:40.000Z</time>
      </trkpt>
      <trkpt lat="40.014031500456554" lon="-0.47372033554792786">
        <ele>732.9</ele>
        <time>2022-04-23T10:50:41.000Z</time>
      </trkpt>
      <trkpt lat="40.01402216851435" lon="-0.4737199169604436">
        <ele>732.9</ele>
        <time>2022-04-23T10:50:42.000Z</time>
      </trkpt>
      <trkpt lat="40.0140126523491" lon="-0.4737189305784915">
        <ele>732.9</ele>
        <time>2022-04-23T10:50:43.000Z</time>
      </trkpt>
      <trkpt lat="40.014002976300624" lon="-0.4737175724145471">
        <ele>732.9</ele>
        <time>2022-04-23T10:50:44.000Z</time>
      </trkpt>
      <trkpt lat="40.01399294612359" lon="-0.47371589308616713">
        <ele>732.9</ele>
        <time>2022-04-23T10:50:45.000Z</time>
      </trkpt>
      <trkpt lat="40.01398290443028" lon="-0.4737141139694701">
        <ele>732.4</ele>
        <time>2022-04-23T10:50:46.000Z</time>
      </trkpt>
      <trkpt lat="40.01397292030589" lon="-0.4737124017589824">
        <ele>732.4</ele>
        <time>2022-04-23T10:50:47.000Z</time>
      </trkpt>
      <trkpt lat="40.01396309155783" lon="-0.47371030957747173">
        <ele>732.4</ele>
        <time>2022-04-23T10:50:48.000Z</time>
      </trkpt>
      <trkpt lat="40.01395350349368" lon="-0.4737079982469339">
        <ele>732.4</ele>
        <time>2022-04-23T10:50:49.000Z</time>
      </trkpt>
      <trkpt lat="40.01394419658848" lon="-0.47370535175135964">
        <ele>732.4</ele>
        <time>2022-04-23T10:50:50.000Z</time>
      </trkpt>
      <trkpt lat="40.01393489100298" lon="-0.47370210676159663">
        <ele>732</ele>
        <time>2022-04-23T10:50:51.000Z</time>
      </trkpt>
      <trkpt lat="40.01392559551445" lon="-0.4736982644115107">
        <ele>732</ele>
        <time>2022-04-23T10:50:52.000Z</time>
      </trkpt>
      <trkpt lat="40.01391657792296" lon="-0.4736939560791635">
        <ele>732</ele>
        <time>2022-04-23T10:50:53.000Z</time>
      </trkpt>
      <trkpt lat="40.01390770378068" lon="-0.4736891953993927">
        <ele>732</ele>
        <time>2022-04-23T10:50:54.000Z</time>
      </trkpt>
      <trkpt lat="40.013898950764705" lon="-0.47368415102558975">
        <ele>732</ele>
        <time>2022-04-23T10:50:55.000Z</time>
      </trkpt>
      <trkpt lat="40.01389032448999" lon="-0.4736790266593845">
        <ele>731.8</ele>
        <time>2022-04-23T10:50:56.000Z</time>
      </trkpt>
      <trkpt lat="40.01388160008418" lon="-0.47367379903824014">
        <ele>731.8</ele>
        <time>2022-04-23T10:50:57.000Z</time>
      </trkpt>
      <trkpt lat="40.01387280737752" lon="-0.47366856554456516">
        <ele>731.8</ele>
        <time>2022-04-23T10:50:58.000Z</time>
      </trkpt>
      <trkpt lat="40.013863951076125" lon="-0.47366414630470094">
        <ele>731.8</ele>
        <time>2022-04-23T10:50:59.000Z</time>
      </trkpt>
      <trkpt lat="40.01385506149581" lon="-0.4736606861689853">
        <ele>731.8</ele>
        <time>2022-04-23T10:51:00.000Z</time>
      </trkpt>
      <trkpt lat="40.013846311729296" lon="-0.47365830087300914">
        <ele>731.5</ele>
        <time>2022-04-23T10:51:01.000Z</time>
      </trkpt>
      <trkpt lat="40.01383801669999" lon="-0.47365743360792495">
        <ele>731.5</ele>
        <time>2022-04-23T10:51:02.000Z</time>
      </trkpt>
      <trkpt lat="40.01383038751055" lon="-0.47365816843423425">
        <ele>731.5</ele>
        <time>2022-04-23T10:51:03.000Z</time>
      </trkpt>
      <trkpt lat="40.013823013484405" lon="-0.4736600986476912">
        <ele>731.5</ele>
        <time>2022-04-23T10:51:04.000Z</time>
      </trkpt>
      <trkpt lat="40.013815886292484" lon="-0.4736626102213651">
        <ele>731.5</ele>
        <time>2022-04-23T10:51:05.000Z</time>
      </trkpt>
      <trkpt lat="40.01380895429208" lon="-0.4736652650766595">
        <ele>731.4</ele>
        <time>2022-04-23T10:51:06.000Z</time>
      </trkpt>
      <trkpt lat="40.01380239783427" lon="-0.4736679467627134">
        <ele>731.4</ele>
        <time>2022-04-23T10:51:07.000Z</time>
      </trkpt>
      <trkpt lat="40.013796103412155" lon="-0.4736705116971678">
        <ele>731.4</ele>
        <time>2022-04-23T10:51:08.000Z</time>
      </trkpt>
      <trkpt lat="40.01378999338739" lon="-0.47367287050376333">
        <ele>731.4</ele>
        <time>2022-04-23T10:51:09.000Z</time>
      </trkpt>
      <trkpt lat="40.01378414199947" lon="-0.4736748674080358">
        <ele>731.4</ele>
        <time>2022-04-23T10:51:10.000Z</time>
      </trkpt>
      <trkpt lat="40.01377838234335" lon="-0.4736761747674778">
        <ele>731.5</ele>
        <time>2022-04-23T10:51:11.000Z</time>
      </trkpt>
      <trkpt lat="40.01377245883243" lon="-0.47367676541807885">
        <ele>731.5</ele>
        <time>2022-04-23T10:51:12.000Z</time>
      </trkpt>
      <trkpt lat="40.01376609278531" lon="-0.4736763001104475">
        <ele>731.5</ele>
        <time>2022-04-23T10:51:13.000Z</time>
      </trkpt>
      <trkpt lat="40.01375916479381" lon="-0.47367460861841054">
        <ele>731.5</ele>
        <time>2022-04-23T10:51:14.000Z</time>
      </trkpt>
      <trkpt lat="40.013751876261985" lon="-0.47367191464271463">
        <ele>731.5</ele>
        <time>2022-04-23T10:51:15.000Z</time>
      </trkpt>
      <trkpt lat="40.013744384296736" lon="-0.4736687329421698">
        <ele>731.4</ele>
        <time>2022-04-23T10:51:16.000Z</time>
      </trkpt>
      <trkpt lat="40.01373675416109" lon="-0.47366535129109943">
        <ele>731.4</ele>
        <time>2022-04-23T10:51:17.000Z</time>
      </trkpt>
      <trkpt lat="40.013729009945855" lon="-0.4736617843200299">
        <ele>731.4</ele>
        <time>2022-04-23T10:51:18.000Z</time>
      </trkpt>
      <trkpt lat="40.01372119350802" lon="-0.47365835405497203">
        <ele>731.4</ele>
        <time>2022-04-23T10:51:19.000Z</time>
      </trkpt>
      <trkpt lat="40.01371334517321" lon="-0.47365517577634475">
        <ele>731.4</ele>
        <time>2022-04-23T10:51:20.000Z</time>
      </trkpt>
      <trkpt lat="40.01370535892946" lon="-0.473652249134641">
        <ele>731.1</ele>
        <time>2022-04-23T10:51:21.000Z</time>
      </trkpt>
      <trkpt lat="40.01369726271463" lon="-0.4736497610348337">
        <ele>731.1</ele>
        <time>2022-04-23T10:51:22.000Z</time>
      </trkpt>
      <trkpt lat="40.01368927893599" lon="-0.47364779112388217">
        <ele>731.1</ele>
        <time>2022-04-23T10:51:23.000Z</time>
      </trkpt>
      <trkpt lat="40.01368138172238" lon="-0.47364644258763683">
        <ele>731.1</ele>
        <time>2022-04-23T10:51:24.000Z</time>
      </trkpt>
      <trkpt lat="40.013673529104764" lon="-0.47364575160413785">
        <ele>731.1</ele>
        <time>2022-04-23T10:51:25.000Z</time>
      </trkpt>
      <trkpt lat="40.01366567410919" lon="-0.4736456564406927">
        <ele>730.5</ele>
        <time>2022-04-23T10:51:26.000Z</time>
      </trkpt>
      <trkpt lat="40.01365781722122" lon="-0.4736460197329157">
        <ele>730.5</ele>
        <time>2022-04-23T10:51:27.000Z</time>
      </trkpt>
      <trkpt lat="40.013650162210425" lon="-0.4736467166499059">
        <ele>730.5</ele>
        <time>2022-04-23T10:51:28.000Z</time>
      </trkpt>
      <trkpt lat="40.013642443318545" lon="-0.4736474345048046">
        <ele>730.5</ele>
        <time>2022-04-23T10:51:29.000Z</time>
      </trkpt>
      <trkpt lat="40.01363471383169" lon="-0.4736478608220836">
        <ele>730.5</ele>
        <time>2022-04-23T10:51:30.000Z</time>
      </trkpt>
      <trkpt lat="40.01362696994016" lon="-0.47364781402065576">
        <ele>729.4</ele>
        <time>2022-04-23T10:51:31.000Z</time>
      </trkpt>
      <trkpt lat="40.01361911961335" lon="-0.47364717496739694">
        <ele>729.4</ele>
        <time>2022-04-23T10:51:32.000Z</time>
      </trkpt>
      <trkpt lat="40.0136113678285" lon="-0.4736459901467404">
        <ele>729.4</ele>
        <time>2022-04-23T10:51:33.000Z</time>
      </trkpt>
      <trkpt lat="40.01360357150991" lon="-0.47364407868474123">
        <ele>729.4</ele>
        <time>2022-04-23T10:51:34.000Z</time>
      </trkpt>
      <trkpt lat="40.013595855456636" lon="-0.4736412588133669">
        <ele>729.4</ele>
        <time>2022-04-23T10:51:35.000Z</time>
      </trkpt>
      <trkpt lat="40.01358839943461" lon="-0.4736376751716254">
        <ele>728.8</ele>
        <time>2022-04-23T10:51:36.000Z</time>
      </trkpt>
      <trkpt lat="40.01358138169087" lon="-0.47363292574516774">
        <ele>728.8</ele>
        <time>2022-04-23T10:51:37.000Z</time>
      </trkpt>
      <trkpt lat="40.013574906842976" lon="-0.473627333055817">
        <ele>728.8</ele>
        <time>2022-04-23T10:51:38.000Z</time>
      </trkpt>
      <trkpt lat="40.01356909365174" lon="-0.4736208653797155">
        <ele>728.8</ele>
        <time>2022-04-23T10:51:39.000Z</time>
      </trkpt>
      <trkpt lat="40.013564100419245" lon="-0.4736140633148084">
        <ele>728.8</ele>
        <time>2022-04-23T10:51:40.000Z</time>
      </trkpt>
      <trkpt lat="40.013559993429425" lon="-0.4736072798713099">
        <ele>727.5</ele>
        <time>2022-04-23T10:51:41.000Z</time>
      </trkpt>
      <trkpt lat="40.01355673301651" lon="-0.4736007145039334">
        <ele>727.5</ele>
        <time>2022-04-23T10:51:42.000Z</time>
      </trkpt>
      <trkpt lat="40.01355434863725" lon="-0.47359449927756236">
        <ele>727.5</ele>
        <time>2022-04-23T10:51:43.000Z</time>
      </trkpt>
      <trkpt lat="40.013552660363864" lon="-0.47358854935952893">
        <ele>727.5</ele>
        <time>2022-04-23T10:51:44.000Z</time>
      </trkpt>
      <trkpt lat="40.0135516395862" lon="-0.4735831185163109">
        <ele>727.5</ele>
        <time>2022-04-23T10:51:45.000Z</time>
      </trkpt>
      <trkpt lat="40.01355123774915" lon="-0.47357836952876897">
        <ele>727.1</ele>
        <time>2022-04-23T10:51:46.000Z</time>
      </trkpt>
      <trkpt lat="40.01355132948094" lon="-0.47357417549334413">
        <ele>727.1</ele>
        <time>2022-04-23T10:51:47.000Z</time>
      </trkpt>
      <trkpt lat="40.01355179451433" lon="-0.4735709569970258">
        <ele>727.1</ele>
        <time>2022-04-23T10:51:48.000Z</time>
      </trkpt>
      <trkpt lat="40.01355255625674" lon="-0.4735684719289887">
        <ele>727.1</ele>
        <time>2022-04-23T10:51:49.000Z</time>
      </trkpt>
      <trkpt lat="40.01355335031943" lon="-0.4735667948155079">
        <ele>727.1</ele>
        <time>2022-04-23T10:51:50.000Z</time>
      </trkpt>
      <trkpt lat="40.01355405962233" lon="-0.47356577718925413">
        <ele>727.3</ele>
        <time>2022-04-23T10:51:51.000Z</time>
      </trkpt>
      <trkpt lat="40.01355462589933" lon="-0.47356517740270226">
        <ele>727.3</ele>
        <time>2022-04-23T10:51:52.000Z</time>
      </trkpt>
      <trkpt lat="40.01355506428967" lon="-0.47356489258699647">
        <ele>727.3</ele>
        <time>2022-04-23T10:51:53.000Z</time>
      </trkpt>
      <trkpt lat="40.013555404449285" lon="-0.47356482123066873">
        <ele>727.3</ele>
        <time>2022-04-23T10:51:54.000Z</time>
      </trkpt>
      <trkpt lat="40.013555684973284" lon="-0.4735649893354154">
        <ele>727.3</ele>
        <time>2022-04-23T10:51:55.000Z</time>
      </trkpt>
      <trkpt lat="40.013555922245885" lon="-0.4735653630071841">
        <ele>727.3</ele>
        <time>2022-04-23T10:51:56.000Z</time>
      </trkpt>
      <trkpt lat="40.013556134543734" lon="-0.4735659233319554">
        <ele>727.3</ele>
        <time>2022-04-23T10:51:57.000Z</time>
      </trkpt>
      <trkpt lat="40.01355632552714" lon="-0.47356666260431896">
        <ele>727.3</ele>
        <time>2022-04-23T10:51:58.000Z</time>
      </trkpt>
      <trkpt lat="40.013556494324604" lon="-0.4735675838966854">
        <ele>727.3</ele>
        <time>2022-04-23T10:51:59.000Z</time>
      </trkpt>
      <trkpt lat="40.01355663971601" lon="-0.4735686908585581">
        <ele>727.3</ele>
        <time>2022-04-23T10:52:00.000Z</time>
      </trkpt>
      <trkpt lat="40.013556713494864" lon="-0.4735699486855406">
        <ele>728.2</ele>
        <time>2022-04-23T10:52:01.000Z</time>
      </trkpt>
      <trkpt lat="40.01355671244906" lon="-0.47357113793599537">
        <ele>728.2</ele>
        <time>2022-04-23T10:52:02.000Z</time>
      </trkpt>
      <trkpt lat="40.01355664663822" lon="-0.4735722919675222">
        <ele>728.2</ele>
        <time>2022-04-23T10:52:03.000Z</time>
      </trkpt>
      <trkpt lat="40.01355653687879" lon="-0.47357337547178435">
        <ele>728.2</ele>
        <time>2022-04-23T10:52:04.000Z</time>
      </trkpt>
      <trkpt lat="40.01355641297612" lon="-0.47357441570220105">
        <ele>728.2</ele>
        <time>2022-04-23T10:52:05.000Z</time>
      </trkpt>
      <trkpt lat="40.013556285462954" lon="-0.4735754512427214">
        <ele>728.4</ele>
        <time>2022-04-23T10:52:06.000Z</time>
      </trkpt>
      <trkpt lat="40.01355614318405" lon="-0.4735764408759015">
        <ele>728.4</ele>
        <time>2022-04-23T10:52:07.000Z</time>
      </trkpt>
      <trkpt lat="40.013555999286645" lon="-0.473577378513817">
        <ele>728.4</ele>
        <time>2022-04-23T10:52:08.000Z</time>
      </trkpt>
      <trkpt lat="40.0135558344732" lon="-0.4735782582554888">
        <ele>728.4</ele>
        <time>2022-04-23T10:52:09.000Z</time>
      </trkpt>
      <trkpt lat="40.01355567112885" lon="-0.4735790731107766">
        <ele>728.4</ele>
        <time>2022-04-23T10:52:10.000Z</time>
      </trkpt>
      <trkpt lat="40.01355548751586" lon="-0.47357982163288403">
        <ele>728.3</ele>
        <time>2022-04-23T10:52:11.000Z</time>
      </trkpt>
      <trkpt lat="40.01355532521731" lon="-0.47358050279767416">
        <ele>728.3</ele>
        <time>2022-04-23T10:52:12.000Z</time>
      </trkpt>
      <trkpt lat="40.013555194890436" lon="-0.47358117780138714">
        <ele>728.3</ele>
        <time>2022-04-23T10:52:13.000Z</time>
      </trkpt>
      <trkpt lat="40.013555089115016" lon="-0.4735818183095704">
        <ele>728.3</ele>
        <time>2022-04-23T10:52:14.000Z</time>
      </trkpt>
      <trkpt lat="40.013555027064086" lon="-0.473582432076403">
        <ele>728.3</ele>
        <time>2022-04-23T10:52:15.000Z</time>
      </trkpt>
      <trkpt lat="40.0135549865766" lon="-0.4735830160863708">
        <ele>728.2</ele>
        <time>2022-04-23T10:52:16.000Z</time>
      </trkpt>
      <trkpt lat="40.01355494454531" lon="-0.4735835170030775">
        <ele>728.2</ele>
        <time>2022-04-23T10:52:17.000Z</time>
      </trkpt>
      <trkpt lat="40.01355491160254" lon="-0.47358397587327733">
        <ele>728.2</ele>
        <time>2022-04-23T10:52:18.000Z</time>
      </trkpt>
      <trkpt lat="40.01355486638405" lon="-0.4735843961107598">
        <ele>728.2</ele>
        <time>2022-04-23T10:52:19.000Z</time>
      </trkpt>
      <trkpt lat="40.01355482838657" lon="-0.47358478268990384">
        <ele>728.2</ele>
        <time>2022-04-23T10:52:20.000Z</time>
      </trkpt>
      <trkpt lat="40.013554801071216" lon="-0.4735851285636726">
        <ele>728.2</ele>
        <time>2022-04-23T10:52:21.000Z</time>
      </trkpt>
      <trkpt lat="40.01355477955757" lon="-0.4735854470864853">
        <ele>728.2</ele>
        <time>2022-04-23T10:52:22.000Z</time>
      </trkpt>
      <trkpt lat="40.01355476050903" lon="-0.4735858335599644">
        <ele>728.2</ele>
        <time>2022-04-23T10:52:23.000Z</time>
      </trkpt>
      <trkpt lat="40.013554782072475" lon="-0.47358624892060486">
        <ele>728.2</ele>
        <time>2022-04-23T10:52:24.000Z</time>
      </trkpt>
      <trkpt lat="40.01355500149174" lon="-0.47358669801273634">
        <ele>727.9</ele>
        <time>2022-04-23T10:52:25.000Z</time>
      </trkpt>
      <trkpt lat="40.01355541612742" lon="-0.47358718516862025">
        <ele>727.9</ele>
        <time>2022-04-23T10:52:26.000Z</time>
      </trkpt>
      <trkpt lat="40.013556275627444" lon="-0.4735876988220129">
        <ele>727.9</ele>
        <time>2022-04-23T10:52:27.000Z</time>
      </trkpt>
      <trkpt lat="40.0135578580009" lon="-0.4735882729319913">
        <ele>727.9</ele>
        <time>2022-04-23T10:52:28.000Z</time>
      </trkpt>
      <trkpt lat="40.01356005236786" lon="-0.4735889057835326">
        <ele>727.9</ele>
        <time>2022-04-23T10:52:29.000Z</time>
      </trkpt>
      <trkpt lat="40.01356292257205" lon="-0.47358958857393674">
        <ele>727.6</ele>
        <time>2022-04-23T10:52:30.000Z</time>
      </trkpt>
      <trkpt lat="40.01356655890106" lon="-0.4735904343484034">
        <ele>727.6</ele>
        <time>2022-04-23T10:52:31.000Z</time>
      </trkpt>
      <trkpt lat="40.01357100438219" lon="-0.47359153526299186">
        <ele>727.6</ele>
        <time>2022-04-23T10:52:32.000Z</time>
      </trkpt>
      <trkpt lat="40.01357636551297" lon="-0.47359291302777745">
        <ele>727.6</ele>
        <time>2022-04-23T10:52:33.000Z</time>
      </trkpt>
      <trkpt lat="40.01358239273261" lon="-0.47359443184709227">
        <ele>727.6</ele>
        <time>2022-04-23T10:52:34.000Z</time>
      </trkpt>
      <trkpt lat="40.013589130662005" lon="-0.47359629958007404">
        <ele>727.3</ele>
        <time>2022-04-23T10:52:35.000Z</time>
      </trkpt>
      <trkpt lat="40.013596537344576" lon="-0.47359844703246173">
        <ele>727.3</ele>
        <time>2022-04-23T10:52:36.000Z</time>
      </trkpt>
      <trkpt lat="40.01360473293552" lon="-0.4736008270126801">
        <ele>727.3</ele>
        <time>2022-04-23T10:52:37.000Z</time>
      </trkpt>
      <trkpt lat="40.01361377700821" lon="-0.4736034151771589">
        <ele>727.3</ele>
        <time>2022-04-23T10:52:38.000Z</time>
      </trkpt>
      <trkpt lat="40.01362306086841" lon="-0.47360614930552136">
        <ele>727.3</ele>
        <time>2022-04-23T10:52:39.000Z</time>
      </trkpt>
      <trkpt lat="40.01363272857538" lon="-0.4736086581156514">
        <ele>726.2</ele>
        <time>2022-04-23T10:52:40.000Z</time>
      </trkpt>
      <trkpt lat="40.013642457212775" lon="-0.4736109890673506">
        <ele>726.2</ele>
        <time>2022-04-23T10:52:41.000Z</time>
      </trkpt>
      <trkpt lat="40.01365193530584" lon="-0.47361253246594953">
        <ele>726.2</ele>
        <time>2022-04-23T10:52:42.000Z</time>
      </trkpt>
      <trkpt lat="40.01366095887334" lon="-0.4736133400953831">
        <ele>726.2</ele>
        <time>2022-04-23T10:52:43.000Z</time>
      </trkpt>
      <trkpt lat="40.01366937255139" lon="-0.47361322335191164">
        <ele>726.2</ele>
        <time>2022-04-23T10:52:44.000Z</time>
      </trkpt>
      <trkpt lat="40.01367723288803" lon="-0.4736120794560883">
        <ele>726.2</ele>
        <time>2022-04-23T10:52:45.000Z</time>
      </trkpt>
      <trkpt lat="40.013684448649435" lon="-0.47360989255817626">
        <ele>726.2</ele>
        <time>2022-04-23T10:52:46.000Z</time>
      </trkpt>
      <trkpt lat="40.013690723014555" lon="-0.47360659605676875">
        <ele>726.2</ele>
        <time>2022-04-23T10:52:47.000Z</time>
      </trkpt>
      <trkpt lat="40.013695818449314" lon="-0.47360218858634995">
        <ele>726.2</ele>
        <time>2022-04-23T10:52:48.000Z</time>
      </trkpt>
      <trkpt lat="40.01369935911233" lon="-0.47359662212628156">
        <ele>726.2</ele>
        <time>2022-04-23T10:52:49.000Z</time>
      </trkpt>
      <trkpt lat="40.01370171567823" lon="-0.47359009866723467">
        <ele>726.4</ele>
        <time>2022-04-23T10:52:50.000Z</time>
      </trkpt>
      <trkpt lat="40.01370270982529" lon="-0.473583026774783">
        <ele>726.4</ele>
        <time>2022-04-23T10:52:51.000Z</time>
      </trkpt>
      <trkpt lat="40.01370253450402" lon="-0.47357533822190584">
        <ele>726.4</ele>
        <time>2022-04-23T10:52:52.000Z</time>
      </trkpt>
      <trkpt lat="40.01370149307176" lon="-0.4735677010628161">
        <ele>726.4</ele>
        <time>2022-04-23T10:52:53.000Z</time>
      </trkpt>
      <trkpt lat="40.013699292417535" lon="-0.4735601810617295">
        <ele>726.4</ele>
        <time>2022-04-23T10:52:54.000Z</time>
      </trkpt>
      <trkpt lat="40.01369619973138" lon="-0.4735530168587852">
        <ele>726</ele>
        <time>2022-04-23T10:52:55.000Z</time>
      </trkpt>
      <trkpt lat="40.013692113545545" lon="-0.4735466827431323">
        <ele>726</ele>
        <time>2022-04-23T10:52:56.000Z</time>
      </trkpt>
      <trkpt lat="40.01368736616372" lon="-0.4735411283044797">
        <ele>726</ele>
        <time>2022-04-23T10:52:57.000Z</time>
      </trkpt>
      <trkpt lat="40.01368268018543" lon="-0.4735368541100271">
        <ele>726</ele>
        <time>2022-04-23T10:52:58.000Z</time>
      </trkpt>
      <trkpt lat="40.01367817226742" lon="-0.473533923721283">
        <ele>726</ele>
        <time>2022-04-23T10:52:59.000Z</time>
      </trkpt>
      <trkpt lat="40.01367426234907" lon="-0.4735318250860846">
        <ele>725.5</ele>
        <time>2022-04-23T10:53:00.000Z</time>
      </trkpt>
      <trkpt lat="40.01367107755761" lon="-0.473530405599915">
        <ele>725.5</ele>
        <time>2022-04-23T10:53:01.000Z</time>
      </trkpt>
      <trkpt lat="40.013668836266504" lon="-0.47352963117364805">
        <ele>725.5</ele>
        <time>2022-04-23T10:53:02.000Z</time>
      </trkpt>
      <trkpt lat="40.0136677026916" lon="-0.4735295334336046">
        <ele>725.5</ele>
        <time>2022-04-23T10:53:03.000Z</time>
      </trkpt>
      <trkpt lat="40.013667379551165" lon="-0.47352997189422036">
        <ele>725.5</ele>
        <time>2022-04-23T10:53:04.000Z</time>
      </trkpt>
      <trkpt lat="40.013667680244204" lon="-0.47353045785527803">
        <ele>725.1</ele>
        <time>2022-04-23T10:53:05.000Z</time>
      </trkpt>
      <trkpt lat="40.01366847882625" lon="-0.4735310022165197">
        <ele>725.1</ele>
        <time>2022-04-23T10:53:06.000Z</time>
      </trkpt>
      <trkpt lat="40.013670101487996" lon="-0.4735313150578114">
        <ele>725.1</ele>
        <time>2022-04-23T10:53:07.000Z</time>
      </trkpt>
      <trkpt lat="40.013672206264566" lon="-0.47353105980389665">
        <ele>725.1</ele>
        <time>2022-04-23T10:53:08.000Z</time>
      </trkpt>
      <trkpt lat="40.01367433460904" lon="-0.4735297102841548">
        <ele>725.1</ele>
        <time>2022-04-23T10:53:09.000Z</time>
      </trkpt>
      <trkpt lat="40.013676506055496" lon="-0.4735274458688378">
        <ele>725.5</ele>
        <time>2022-04-23T10:53:10.000Z</time>
      </trkpt>
      <trkpt lat="40.01367834858471" lon="-0.4735249899480602">
        <ele>725.5</ele>
        <time>2022-04-23T10:53:11.000Z</time>
      </trkpt>
      <trkpt lat="40.013679965718644" lon="-0.4735222995162029">
        <ele>725.5</ele>
        <time>2022-04-23T10:53:12.000Z</time>
      </trkpt>
      <trkpt lat="40.01368141154021" lon="-0.4735192462716786">
        <ele>725.5</ele>
        <time>2022-04-23T10:53:13.000Z</time>
      </trkpt>
      <trkpt lat="40.013682486002395" lon="-0.47351592087498173">
        <ele>725.5</ele>
        <time>2022-04-23T10:53:14.000Z</time>
      </trkpt>
      <trkpt lat="40.01368354602254" lon="-0.4735121612280095">
        <ele>725.4</ele>
        <time>2022-04-23T10:53:15.000Z</time>
      </trkpt>
      <trkpt lat="40.01368531118729" lon="-0.4735081383209734">
        <ele>725.4</ele>
        <time>2022-04-23T10:53:16.000Z</time>
      </trkpt>
      <trkpt lat="40.01368758593162" lon="-0.4735038775703488">
        <ele>725.4</ele>
        <time>2022-04-23T10:53:17.000Z</time>
      </trkpt>
      <trkpt lat="40.01369032928249" lon="-0.4734992971752377">
        <ele>725.4</ele>
        <time>2022-04-23T10:53:18.000Z</time>
      </trkpt>
      <trkpt lat="40.01369347316316" lon="-0.4734947287365179">
        <ele>725.4</ele>
        <time>2022-04-23T10:53:19.000Z</time>
      </trkpt>
      <trkpt lat="40.0136969321042" lon="-0.4734902064652365">
        <ele>725.1</ele>
        <time>2022-04-23T10:53:20.000Z</time>
      </trkpt>
      <trkpt lat="40.01370063555132" lon="-0.4734853300945793">
        <ele>725.1</ele>
        <time>2022-04-23T10:53:21.000Z</time>
      </trkpt>
      <trkpt lat="40.0137045388338" lon="-0.4734797921396529">
        <ele>725.1</ele>
        <time>2022-04-23T10:53:22.000Z</time>
      </trkpt>
      <trkpt lat="40.013708309274506" lon="-0.47347363518341673">
        <ele>725.1</ele>
        <time>2022-04-23T10:53:23.000Z</time>
      </trkpt>
      <trkpt lat="40.01371169878175" lon="-0.47346704053873157">
        <ele>725.1</ele>
        <time>2022-04-23T10:53:24.000Z</time>
      </trkpt>
      <trkpt lat="40.01371486545841" lon="-0.47345992328352043">
        <ele>724.5</ele>
        <time>2022-04-23T10:53:25.000Z</time>
      </trkpt>
      <trkpt lat="40.013717766825025" lon="-0.473452748050785">
        <ele>724.5</ele>
        <time>2022-04-23T10:53:26.000Z</time>
      </trkpt>
      <trkpt lat="40.01372016502381" lon="-0.4734458503672607">
        <ele>724.5</ele>
        <time>2022-04-23T10:53:27.000Z</time>
      </trkpt>
      <trkpt lat="40.01372216357675" lon="-0.47343919420934066">
        <ele>724.5</ele>
        <time>2022-04-23T10:53:28.000Z</time>
      </trkpt>
      <trkpt lat="40.013723771310914" lon="-0.47343298364848196">
        <ele>724.5</ele>
        <time>2022-04-23T10:53:29.000Z</time>
      </trkpt>
      <trkpt lat="40.01372509391457" lon="-0.4734271873916146">
        <ele>724.3</ele>
        <time>2022-04-23T10:53:30.000Z</time>
      </trkpt>
      <trkpt lat="40.01372613132548" lon="-0.4734219739336325">
        <ele>724.3</ele>
        <time>2022-04-23T10:53:31.000Z</time>
      </trkpt>
      <trkpt lat="40.01372693567188" lon="-0.4734175726974436">
        <ele>724.3</ele>
        <time>2022-04-23T10:53:32.000Z</time>
      </trkpt>
      <trkpt lat="40.01372753980941" lon="-0.473414139099877">
        <ele>724.3</ele>
        <time>2022-04-23T10:53:33.000Z</time>
      </trkpt>
      <trkpt lat="40.013728032581454" lon="-0.4734116975820397">
        <ele>724.3</ele>
        <time>2022-04-23T10:53:34.000Z</time>
      </trkpt>
      <trkpt lat="40.01372853420547" lon="-0.47341019505950555">
        <ele>724.4</ele>
        <time>2022-04-23T10:53:35.000Z</time>
      </trkpt>
      <trkpt lat="40.01372898834508" lon="-0.47340962173795">
        <ele>724.4</ele>
        <time>2022-04-23T10:53:36.000Z</time>
      </trkpt>
      <trkpt lat="40.013729295798484" lon="-0.47340964049753576">
        <ele>724.4</ele>
        <time>2022-04-23T10:53:37.000Z</time>
      </trkpt>
      <trkpt lat="40.013729589544404" lon="-0.4734100325387429">
        <ele>724.4</ele>
        <time>2022-04-23T10:53:38.000Z</time>
      </trkpt>
      <trkpt lat="40.013729895927106" lon="-0.47341070909491734">
        <ele>724.4</ele>
        <time>2022-04-23T10:53:39.000Z</time>
      </trkpt>
      <trkpt lat="40.01373019501409" lon="-0.47341151162805095">
        <ele>724.2</ele>
        <time>2022-04-23T10:53:40.000Z</time>
      </trkpt>
      <trkpt lat="40.013730491125514" lon="-0.4734123675869895">
        <ele>724.2</ele>
        <time>2022-04-23T10:53:41.000Z</time>
      </trkpt>
      <trkpt lat="40.013730787647795" lon="-0.47341323017030523">
        <ele>724.2</ele>
        <time>2022-04-23T10:53:42.000Z</time>
      </trkpt>
      <trkpt lat="40.013731087332374" lon="-0.47341407127925966">
        <ele>724.2</ele>
        <time>2022-04-23T10:53:43.000Z</time>
      </trkpt>
      <trkpt lat="40.013731421316784" lon="-0.4734149157532352">
        <ele>724.2</ele>
        <time>2022-04-23T10:53:44.000Z</time>
      </trkpt>
      <trkpt lat="40.01373176356802" lon="-0.47341571899351076">
        <ele>724.5</ele>
        <time>2022-04-23T10:53:45.000Z</time>
      </trkpt>
      <trkpt lat="40.01373207692273" lon="-0.4734164554779463">
        <ele>724.5</ele>
        <time>2022-04-23T10:53:46.000Z</time>
      </trkpt>
      <trkpt lat="40.01373239960252" lon="-0.4734171523136558">
        <ele>724.5</ele>
        <time>2022-04-23T10:53:47.000Z</time>
      </trkpt>
      <trkpt lat="40.013732692962485" lon="-0.47341778788810057">
        <ele>724.5</ele>
        <time>2022-04-23T10:53:48.000Z</time>
      </trkpt>
      <trkpt lat="40.01373299577203" lon="-0.4734183938682419">
        <ele>724.5</ele>
        <time>2022-04-23T10:53:49.000Z</time>
      </trkpt>
      <trkpt lat="40.01373313786418" lon="-0.47341892150191517">
        <ele>724.8</ele>
        <time>2022-04-23T10:53:50.000Z</time>
      </trkpt>
      <trkpt lat="40.01373275455276" lon="-0.47341909173621616">
        <ele>724.8</ele>
        <time>2022-04-23T10:53:51.000Z</time>
      </trkpt>
      <trkpt lat="40.01373195543537" lon="-0.47341897568363067">
        <ele>724.8</ele>
        <time>2022-04-23T10:53:52.000Z</time>
      </trkpt>
      <trkpt lat="40.013730642667234" lon="-0.47341852373041854">
        <ele>724.8</ele>
        <time>2022-04-23T10:53:53.000Z</time>
      </trkpt>
      <trkpt lat="40.01372877993163" lon="-0.4734177214736394">
        <ele>724.8</ele>
        <time>2022-04-23T10:53:54.000Z</time>
      </trkpt>
      <trkpt lat="40.01372648605161" lon="-0.473416641895235">
        <ele>724.6</ele>
        <time>2022-04-23T10:53:55.000Z</time>
      </trkpt>
      <trkpt lat="40.01372392811898" lon="-0.47341537632220165">
        <ele>724.6</ele>
        <time>2022-04-23T10:53:56.000Z</time>
      </trkpt>
      <trkpt lat="40.013721340281386" lon="-0.47341438448631457">
        <ele>724.6</ele>
        <time>2022-04-23T10:53:57.000Z</time>
      </trkpt>
      <trkpt lat="40.01371874580793" lon="-0.4734135739958003">
        <ele>724.6</ele>
        <time>2022-04-23T10:53:58.000Z</time>
      </trkpt>
      <trkpt lat="40.01371618257159" lon="-0.4734129110135031">
        <ele>724.6</ele>
        <time>2022-04-23T10:53:59.000Z</time>
      </trkpt>
      <trkpt lat="40.01371380108074" lon="-0.4734125954818201">
        <ele>724.4</ele>
        <time>2022-04-23T10:54:00.000Z</time>
      </trkpt>
      <trkpt lat="40.01371171033535" lon="-0.47341258305400086">
        <ele>724.4</ele>
        <time>2022-04-23T10:54:01.000Z</time>
      </trkpt>
      <trkpt lat="40.01371033713479" lon="-0.47341297942746946">
        <ele>724.4</ele>
        <time>2022-04-23T10:54:02.000Z</time>
      </trkpt>
      <trkpt lat="40.01370953606274" lon="-0.4734137147739752">
        <ele>724.4</ele>
        <time>2022-04-23T10:54:03.000Z</time>
      </trkpt>
      <trkpt lat="40.01370942436111" lon="-0.4734148056991655">
        <ele>724.4</ele>
        <time>2022-04-23T10:54:04.000Z</time>
      </trkpt>
      <trkpt lat="40.0137100074332" lon="-0.47341625703924195">
        <ele>723.8</ele>
        <time>2022-04-23T10:54:05.000Z</time>
      </trkpt>
      <trkpt lat="40.0137112606902" lon="-0.4734177283906272">
        <ele>723.8</ele>
        <time>2022-04-23T10:54:06.000Z</time>
      </trkpt>
      <trkpt lat="40.013713172068066" lon="-0.47341899037918167">
        <ele>723.8</ele>
        <time>2022-04-23T10:54:07.000Z</time>
      </trkpt>
      <trkpt lat="40.01371543208401" lon="-0.4734196661875736">
        <ele>723.8</ele>
        <time>2022-04-23T10:54:08.000Z</time>
      </trkpt>
      <trkpt lat="40.01371788008291" lon="-0.4734195698943266">
        <ele>723.8</ele>
        <time>2022-04-23T10:54:09.000Z</time>
      </trkpt>
      <trkpt lat="40.013720427171556" lon="-0.4734186143421446">
        <ele>723.4</ele>
        <time>2022-04-23T10:54:10.000Z</time>
      </trkpt>
      <trkpt lat="40.01372289420654" lon="-0.4734167854206977">
        <ele>723.4</ele>
        <time>2022-04-23T10:54:11.000Z</time>
      </trkpt>
      <trkpt lat="40.013724916576386" lon="-0.4734146280764487">
        <ele>723.4</ele>
        <time>2022-04-23T10:54:12.000Z</time>
      </trkpt>
      <trkpt lat="40.013726627048165" lon="-0.4734125609944186">
        <ele>723.4</ele>
        <time>2022-04-23T10:54:13.000Z</time>
      </trkpt>
      <trkpt lat="40.013728071612285" lon="-0.4734105344145619">
        <ele>723.4</ele>
        <time>2022-04-23T10:54:14.000Z</time>
      </trkpt>
      <trkpt lat="40.013729330384656" lon="-0.4734083039176816">
        <ele>723.1</ele>
        <time>2022-04-23T10:54:15.000Z</time>
      </trkpt>
      <trkpt lat="40.01373041064855" lon="-0.4734059054461037">
        <ele>723.1</ele>
        <time>2022-04-23T10:54:16.000Z</time>
      </trkpt>
      <trkpt lat="40.01373122698433" lon="-0.47340364129088497">
        <ele>723.1</ele>
        <time>2022-04-23T10:54:17.000Z</time>
      </trkpt>
      <trkpt lat="40.01373161309701" lon="-0.47340166068339307">
        <ele>723.1</ele>
        <time>2022-04-23T10:54:18.000Z</time>
      </trkpt>
      <trkpt lat="40.013731688656215" lon="-0.4733999223005195">
        <ele>723.1</ele>
        <time>2022-04-23T10:54:19.000Z</time>
      </trkpt>
      <trkpt lat="40.013731545817066" lon="-0.4733986843385404">
        <ele>722.7</ele>
        <time>2022-04-23T10:54:20.000Z</time>
      </trkpt>
      <trkpt lat="40.013731273945844" lon="-0.47339809902808133">
        <ele>722.7</ele>
        <time>2022-04-23T10:54:21.000Z</time>
      </trkpt>
      <trkpt lat="40.013730865460474" lon="-0.47339795433217674">
        <ele>722.7</ele>
        <time>2022-04-23T10:54:22.000Z</time>
      </trkpt>
      <trkpt lat="40.01373074250401" lon="-0.47339780760425454">
        <ele>722.7</ele>
        <time>2022-04-23T10:54:23.000Z</time>
      </trkpt>
      <trkpt lat="40.013730710370496" lon="-0.47339741025541765">
        <ele>722.7</ele>
        <time>2022-04-23T10:54:24.000Z</time>
      </trkpt>
      <trkpt lat="40.01373075714525" lon="-0.4733968226853552">
        <ele>722.5</ele>
        <time>2022-04-23T10:54:25.000Z</time>
      </trkpt>
      <trkpt lat="40.013730758601895" lon="-0.4733963411703519">
        <ele>722.5</ele>
        <time>2022-04-23T10:54:26.000Z</time>
      </trkpt>
      <trkpt lat="40.01373073771076" lon="-0.4733959433338308">
        <ele>722.5</ele>
        <time>2022-04-23T10:54:27.000Z</time>
      </trkpt>
      <trkpt lat="40.01373067854823" lon="-0.47339557583126735">
        <ele>722.5</ele>
        <time>2022-04-23T10:54:28.000Z</time>
      </trkpt>
      <trkpt lat="40.013730587364236" lon="-0.47339522446292326">
        <ele>722.5</ele>
        <time>2022-04-23T10:54:29.000Z</time>
      </trkpt>
      <trkpt lat="40.01373046224147" lon="-0.4733948959994807">
        <ele>722.7</ele>
        <time>2022-04-23T10:54:30.000Z</time>
      </trkpt>
      <trkpt lat="40.01373029716657" lon="-0.47339455618925225">
        <ele>722.7</ele>
        <time>2022-04-23T10:54:31.000Z</time>
      </trkpt>
      <trkpt lat="40.01373008730892" lon="-0.4733941952379134">
        <ele>722.7</ele>
        <time>2022-04-23T10:54:32.000Z</time>
      </trkpt>
      <trkpt lat="40.013729841881556" lon="-0.4733938460072516">
        <ele>722.7</ele>
        <time>2022-04-23T10:54:33.000Z</time>
      </trkpt>
      <trkpt lat="40.01372944325661" lon="-0.47339327835908906">
        <ele>722.7</ele>
        <time>2022-04-23T10:54:34.000Z</time>
      </trkpt>
      <trkpt lat="40.01372889717355" lon="-0.4733925271303342">
        <ele>722.7</ele>
        <time>2022-04-23T10:54:35.000Z</time>
      </trkpt>
      <trkpt lat="40.0137280500364" lon="-0.4733913662712284">
        <ele>722.7</ele>
        <time>2022-04-23T10:54:36.000Z</time>
      </trkpt>
      <trkpt lat="40.013726952093464" lon="-0.47338983348788904">
        <ele>722.7</ele>
        <time>2022-04-23T10:54:37.000Z</time>
      </trkpt>
      <trkpt lat="40.01372560421625" lon="-0.4733879312593775">
        <ele>722.7</ele>
        <time>2022-04-23T10:54:38.000Z</time>
      </trkpt>
      <trkpt lat="40.01372404948185" lon="-0.47338573549374097">
        <ele>722.7</ele>
        <time>2022-04-23T10:54:39.000Z</time>
      </trkpt>
      <trkpt lat="40.01372221698736" lon="-0.47338297451023476">
        <ele>722.5</ele>
        <time>2022-04-23T10:54:40.000Z</time>
      </trkpt>
      <trkpt lat="40.01372008393679" lon="-0.4733794783752965">
        <ele>722.5</ele>
        <time>2022-04-23T10:54:41.000Z</time>
      </trkpt>
      <trkpt lat="40.01371769571047" lon="-0.4733751124799566">
        <ele>722.5</ele>
        <time>2022-04-23T10:54:42.000Z</time>
      </trkpt>
      <trkpt lat="40.01371501111127" lon="-0.47336986997225183">
        <ele>722.5</ele>
        <time>2022-04-23T10:54:43.000Z</time>
      </trkpt>
      <trkpt lat="40.01371210898522" lon="-0.47336393576577795">
        <ele>722.5</ele>
        <time>2022-04-23T10:54:44.000Z</time>
      </trkpt>
      <trkpt lat="40.01370895676303" lon="-0.4733575355282744">
        <ele>721.8</ele>
        <time>2022-04-23T10:54:45.000Z</time>
      </trkpt>
      <trkpt lat="40.01370564210535" lon="-0.47335080590072837">
        <ele>721.8</ele>
        <time>2022-04-23T10:54:46.000Z</time>
      </trkpt>
      <trkpt lat="40.0137023446038" lon="-0.47334397489989155">
        <ele>721.8</ele>
        <time>2022-04-23T10:54:47.000Z</time>
      </trkpt>
      <trkpt lat="40.013699119113205" lon="-0.47333712170942327">
        <ele>721.8</ele>
        <time>2022-04-23T10:54:48.000Z</time>
      </trkpt>
      <trkpt lat="40.01369592721279" lon="-0.4733302112892131">
        <ele>721.8</ele>
        <time>2022-04-23T10:54:49.000Z</time>
      </trkpt>
      <trkpt lat="40.01369281110812" lon="-0.4733230635212266">
        <ele>722.3</ele>
        <time>2022-04-23T10:54:50.000Z</time>
      </trkpt>
      <trkpt lat="40.01368989208738" lon="-0.4733160799971536">
        <ele>722.3</ele>
        <time>2022-04-23T10:54:51.000Z</time>
      </trkpt>
      <trkpt lat="40.013687249245564" lon="-0.4733092764610657">
        <ele>722.3</ele>
        <time>2022-04-23T10:54:52.000Z</time>
      </trkpt>
      <trkpt lat="40.01368486607396" lon="-0.47330291973312166">
        <ele>722.3</ele>
        <time>2022-04-23T10:54:53.000Z</time>
      </trkpt>
      <trkpt lat="40.01368290007784" lon="-0.47329693752226554">
        <ele>722.3</ele>
        <time>2022-04-23T10:54:54.000Z</time>
      </trkpt>
      <trkpt lat="40.01368135881437" lon="-0.4732910408430915">
        <ele>722.7</ele>
        <time>2022-04-23T10:54:55.000Z</time>
      </trkpt>
      <trkpt lat="40.01368035229198" lon="-0.4732853622806797">
        <ele>722.7</ele>
        <time>2022-04-23T10:54:56.000Z</time>
      </trkpt>
      <trkpt lat="40.013679812570885" lon="-0.4732798526358216">
        <ele>722.7</ele>
        <time>2022-04-23T10:54:57.000Z</time>
      </trkpt>
      <trkpt lat="40.0136797484657" lon="-0.473274470983684">
        <ele>722.7</ele>
        <time>2022-04-23T10:54:58.000Z</time>
      </trkpt>
      <trkpt lat="40.01368004411648" lon="-0.4732688170411967">
        <ele>722.7</ele>
        <time>2022-04-23T10:54:59.000Z</time>
      </trkpt>
      <trkpt lat="40.013680708337844" lon="-0.4732630653342818">
        <ele>722.7</ele>
        <time>2022-04-23T10:55:00.000Z</time>
      </trkpt>
      <trkpt lat="40.01368171210877" lon="-0.4732573501061456">
        <ele>722.7</ele>
        <time>2022-04-23T10:55:01.000Z</time>
      </trkpt>
      <trkpt lat="40.01368296551518" lon="-0.47325163436594103">
        <ele>722.7</ele>
        <time>2022-04-23T10:55:02.000Z</time>
      </trkpt>
      <trkpt lat="40.01368421661834" lon="-0.4732460619642534">
        <ele>722.7</ele>
        <time>2022-04-23T10:55:03.000Z</time>
      </trkpt>
      <trkpt lat="40.01368551313919" lon="-0.47324059035876365">
        <ele>722.7</ele>
        <time>2022-04-23T10:55:04.000Z</time>
      </trkpt>
      <trkpt lat="40.01368675099551" lon="-0.4732353140789275">
        <ele>722.9</ele>
        <time>2022-04-23T10:55:05.000Z</time>
      </trkpt>
      <trkpt lat="40.01368784983484" lon="-0.4732303386352234">
        <ele>722.9</ele>
        <time>2022-04-23T10:55:06.000Z</time>
      </trkpt>
      <trkpt lat="40.013688838939636" lon="-0.4732258144701017">
        <ele>722.9</ele>
        <time>2022-04-23T10:55:07.000Z</time>
      </trkpt>
      <trkpt lat="40.0136897390392" lon="-0.47322172047496414">
        <ele>722.9</ele>
        <time>2022-04-23T10:55:08.000Z</time>
      </trkpt>
      <trkpt lat="40.01369046837419" lon="-0.4732181208290526">
        <ele>722.9</ele>
        <time>2022-04-23T10:55:09.000Z</time>
      </trkpt>
      <trkpt lat="40.01369109817123" lon="-0.4732152199045627">
        <ele>723.2</ele>
        <time>2022-04-23T10:55:10.000Z</time>
      </trkpt>
      <trkpt lat="40.0136915551868" lon="-0.4732130109633244">
        <ele>723.2</ele>
        <time>2022-04-23T10:55:11.000Z</time>
      </trkpt>
      <trkpt lat="40.0136917636127" lon="-0.47321148281298503">
        <ele>723.2</ele>
        <time>2022-04-23T10:55:12.000Z</time>
      </trkpt>
      <trkpt lat="40.013691747838514" lon="-0.4732105469226047">
        <ele>723.2</ele>
        <time>2022-04-23T10:55:13.000Z</time>
      </trkpt>
      <trkpt lat="40.01369176084879" lon="-0.47321004142979456">
        <ele>723.2</ele>
        <time>2022-04-23T10:55:14.000Z</time>
      </trkpt>
      <trkpt lat="40.01369173511459" lon="-0.47320990657698286">
        <ele>722.9</ele>
        <time>2022-04-23T10:55:15.000Z</time>
      </trkpt>
      <trkpt lat="40.013691661124085" lon="-0.4732101315863486">
        <ele>722.9</ele>
        <time>2022-04-23T10:55:16.000Z</time>
      </trkpt>
      <trkpt lat="40.01369151964198" lon="-0.4732106819298499">
        <ele>722.9</ele>
        <time>2022-04-23T10:55:17.000Z</time>
      </trkpt>
      <trkpt lat="40.01369132440067" lon="-0.473211275132665">
        <ele>722.9</ele>
        <time>2022-04-23T10:55:18.000Z</time>
      </trkpt>
      <trkpt lat="40.01369133985115" lon="-0.47321171341446316">
        <ele>722.9</ele>
        <time>2022-04-23T10:55:19.000Z</time>
      </trkpt>
      <trkpt lat="40.01369134000054" lon="-0.4732121552075876">
        <ele>722.7</ele>
        <time>2022-04-23T10:55:20.000Z</time>
      </trkpt>
      <trkpt lat="40.01369129062373" lon="-0.4732127071279344">
        <ele>722.7</ele>
        <time>2022-04-23T10:55:21.000Z</time>
      </trkpt>
      <trkpt lat="40.01369130130586" lon="-0.4732133552765037">
        <ele>722.7</ele>
        <time>2022-04-23T10:55:22.000Z</time>
      </trkpt>
      <trkpt lat="40.0136911581679" lon="-0.4732146902957685">
        <ele>722.7</ele>
        <time>2022-04-23T10:55:23.000Z</time>
      </trkpt>
      <trkpt lat="40.01369090707577" lon="-0.4732166421786604">
        <ele>722.7</ele>
        <time>2022-04-23T10:55:24.000Z</time>
      </trkpt>
      <trkpt lat="40.01369035393355" lon="-0.47321965514859715">
        <ele>722.4</ele>
        <time>2022-04-23T10:55:25.000Z</time>
      </trkpt>
      <trkpt lat="40.01368955279924" lon="-0.473223620313823">
        <ele>722.4</ele>
        <time>2022-04-23T10:55:26.000Z</time>
      </trkpt>
      <trkpt lat="40.01368853456138" lon="-0.4732284460791154">
        <ele>722.4</ele>
        <time>2022-04-23T10:55:27.000Z</time>
      </trkpt>
      <trkpt lat="40.013687199682" lon="-0.4732343399378491">
        <ele>722.4</ele>
        <time>2022-04-23T10:55:28.000Z</time>
      </trkpt>
      <trkpt lat="40.013685414310864" lon="-0.4732412651105066">
        <ele>722.4</ele>
        <time>2022-04-23T10:55:29.000Z</time>
      </trkpt>
      <trkpt lat="40.01368303177421" lon="-0.47324891103978395">
        <ele>722.3</ele>
        <time>2022-04-23T10:55:30.000Z</time>
      </trkpt>
      <trkpt lat="40.01368030406058" lon="-0.47325674412600444">
        <ele>722.3</ele>
        <time>2022-04-23T10:55:31.000Z</time>
      </trkpt>
      <trkpt lat="40.01367741111019" lon="-0.4732639529032854">
        <ele>722.3</ele>
        <time>2022-04-23T10:55:32.000Z</time>
      </trkpt>
      <trkpt lat="40.01367434634943" lon="-0.47327058317330195">
        <ele>722.3</ele>
        <time>2022-04-23T10:55:33.000Z</time>
      </trkpt>
      <trkpt lat="40.013671416048965" lon="-0.4732761078063214">
        <ele>722.3</ele>
        <time>2022-04-23T10:55:34.000Z</time>
      </trkpt>
      <trkpt lat="40.01366856928817" lon="-0.47328069871102707">
        <ele>722.6</ele>
        <time>2022-04-23T10:55:35.000Z</time>
      </trkpt>
      <trkpt lat="40.013665927803416" lon="-0.4732840003737591">
        <ele>722.6</ele>
        <time>2022-04-23T10:55:36.000Z</time>
      </trkpt>
      <trkpt lat="40.013663515797546" lon="-0.4732862003903764">
        <ele>722.6</ele>
        <time>2022-04-23T10:55:37.000Z</time>
      </trkpt>
      <trkpt lat="40.013661294351785" lon="-0.47328758624259176">
        <ele>722.6</ele>
        <time>2022-04-23T10:55:38.000Z</time>
      </trkpt>
      <trkpt lat="40.01365941530665" lon="-0.47328795765475695">
        <ele>722.6</ele>
        <time>2022-04-23T10:55:39.000Z</time>
      </trkpt>
      <trkpt lat="40.01365802366759" lon="-0.473287405035396">
        <ele>722.9</ele>
        <time>2022-04-23T10:55:40.000Z</time>
      </trkpt>
      <trkpt lat="40.01365696163054" lon="-0.47328637690767567">
        <ele>722.9</ele>
        <time>2022-04-23T10:55:41.000Z</time>
      </trkpt>
      <trkpt lat="40.01365622910833" lon="-0.47328529346031">
        <ele>722.9</ele>
        <time>2022-04-23T10:55:42.000Z</time>
      </trkpt>
      <trkpt lat="40.013655672417855" lon="-0.4732848724506608">
        <ele>722.9</ele>
        <time>2022-04-23T10:55:43.000Z</time>
      </trkpt>
      <trkpt lat="40.01365529099884" lon="-0.47328494550575523">
        <ele>722.9</ele>
        <time>2022-04-23T10:55:44.000Z</time>
      </trkpt>
      <trkpt lat="40.01365501783281" lon="-0.4732854454227093">
        <ele>722.8</ele>
        <time>2022-04-23T10:55:45.000Z</time>
      </trkpt>
      <trkpt lat="40.01365487603946" lon="-0.4732862613265183">
        <ele>722.8</ele>
        <time>2022-04-23T10:55:46.000Z</time>
      </trkpt>
      <trkpt lat="40.0136548742093" lon="-0.47328744287156255">
        <ele>722.8</ele>
        <time>2022-04-23T10:55:47.000Z</time>
      </trkpt>
      <trkpt lat="40.013654936285135" lon="-0.47328889960867754">
        <ele>722.8</ele>
        <time>2022-04-23T10:55:48.000Z</time>
      </trkpt>
      <trkpt lat="40.01365507054622" lon="-0.4732904230772485">
        <ele>722.8</ele>
        <time>2022-04-23T10:55:49.000Z</time>
      </trkpt>
      <trkpt lat="40.0136552237438" lon="-0.47329199333099115">
        <ele>723.1</ele>
        <time>2022-04-23T10:55:50.000Z</time>
      </trkpt>
      <trkpt lat="40.013655383041886" lon="-0.47329354432120757">
        <ele>723.1</ele>
        <time>2022-04-23T10:55:51.000Z</time>
      </trkpt>
      <trkpt lat="40.01365553956362" lon="-0.47329503105902954">
        <ele>723.1</ele>
        <time>2022-04-23T10:55:52.000Z</time>
      </trkpt>
      <trkpt lat="40.01365571071413" lon="-0.47329634561181355">
        <ele>723.1</ele>
        <time>2022-04-23T10:55:53.000Z</time>
      </trkpt>
      <trkpt lat="40.013655864633805" lon="-0.4732975158344562">
        <ele>723.1</ele>
        <time>2022-04-23T10:55:54.000Z</time>
      </trkpt>
      <trkpt lat="40.01365612299675" lon="-0.4732985763200238">
        <ele>723.1</ele>
        <time>2022-04-23T10:55:55.000Z</time>
      </trkpt>
      <trkpt lat="40.01365671660156" lon="-0.47329932107883477">
        <ele>723.1</ele>
        <time>2022-04-23T10:55:56.000Z</time>
      </trkpt>
      <trkpt lat="40.0136575614479" lon="-0.4732998129815117">
        <ele>723.1</ele>
        <time>2022-04-23T10:55:57.000Z</time>
      </trkpt>
      <trkpt lat="40.01365853518937" lon="-0.4733005709972051">
        <ele>723.1</ele>
        <time>2022-04-23T10:55:58.000Z</time>
      </trkpt>
      <trkpt lat="40.013659614083764" lon="-0.47330151560900463">
        <ele>723.1</ele>
        <time>2022-04-23T10:55:59.000Z</time>
      </trkpt>
      <trkpt lat="40.01366079491897" lon="-0.4733027769879539">
        <ele>723.3</ele>
        <time>2022-04-23T10:56:00.000Z</time>
      </trkpt>
      <trkpt lat="40.013662098747986" lon="-0.47330457149515176">
        <ele>723.3</ele>
        <time>2022-04-23T10:56:01.000Z</time>
      </trkpt>
      <trkpt lat="40.013663547706955" lon="-0.4733070079654576">
        <ele>723.3</ele>
        <time>2022-04-23T10:56:02.000Z</time>
      </trkpt>
      <trkpt lat="40.013665165662594" lon="-0.4733101675413955">
        <ele>723.3</ele>
        <time>2022-04-23T10:56:03.000Z</time>
      </trkpt>
      <trkpt lat="40.01366693035424" lon="-0.4733139005770661">
        <ele>723.3</ele>
        <time>2022-04-23T10:56:04.000Z</time>
      </trkpt>
      <trkpt lat="40.013668720618234" lon="-0.473318287442827">
        <ele>722.8</ele>
        <time>2022-04-23T10:56:05.000Z</time>
      </trkpt>
      <trkpt lat="40.01367051274974" lon="-0.47332334220836764">
        <ele>722.8</ele>
        <time>2022-04-23T10:56:06.000Z</time>
      </trkpt>
      <trkpt lat="40.01367211221709" lon="-0.4733293820797533">
        <ele>722.8</ele>
        <time>2022-04-23T10:56:07.000Z</time>
      </trkpt>
      <trkpt lat="40.01367363535332" lon="-0.473336369269586">
        <ele>722.8</ele>
        <time>2022-04-23T10:56:08.000Z</time>
      </trkpt>
      <trkpt lat="40.013675254666005" lon="-0.4733438249044852">
        <ele>722.8</ele>
        <time>2022-04-23T10:56:09.000Z</time>
      </trkpt>
      <trkpt lat="40.01367708364958" lon="-0.4733517715317175">
        <ele>722.7</ele>
        <time>2022-04-23T10:56:10.000Z</time>
      </trkpt>
      <trkpt lat="40.013679061547926" lon="-0.47335995831903815">
        <ele>722.7</ele>
        <time>2022-04-23T10:56:11.000Z</time>
      </trkpt>
      <trkpt lat="40.01368123415224" lon="-0.47336823496217434">
        <ele>722.7</ele>
        <time>2022-04-23T10:56:12.000Z</time>
      </trkpt>
      <trkpt lat="40.01368364375525" lon="-0.4733765630072261">
        <ele>722.7</ele>
        <time>2022-04-23T10:56:13.000Z</time>
      </trkpt>
      <trkpt lat="40.01368629965714" lon="-0.4733849485339899">
        <ele>722.7</ele>
        <time>2022-04-23T10:56:14.000Z</time>
      </trkpt>
      <trkpt lat="40.01368887692466" lon="-0.47339362226586473">
        <ele>722.7</ele>
        <time>2022-04-23T10:56:15.000Z</time>
      </trkpt>
      <trkpt lat="40.01369156858302" lon="-0.47340256316740525">
        <ele>722.7</ele>
        <time>2022-04-23T10:56:16.000Z</time>
      </trkpt>
      <trkpt lat="40.013693725450494" lon="-0.47341157193833144">
        <ele>722.7</ele>
        <time>2022-04-23T10:56:17.000Z</time>
      </trkpt>
      <trkpt lat="40.01369544888275" lon="-0.47342035396861293">
        <ele>722.7</ele>
        <time>2022-04-23T10:56:18.000Z</time>
      </trkpt>
      <trkpt lat="40.01369688678611" lon="-0.47342776554124383">
        <ele>722.7</ele>
        <time>2022-04-23T10:56:19.000Z</time>
      </trkpt>
      <trkpt lat="40.01369798436799" lon="-0.4734338287401909">
        <ele>721.9</ele>
        <time>2022-04-23T10:56:20.000Z</time>
      </trkpt>
      <trkpt lat="40.01369903833742" lon="-0.4734385369085645">
        <ele>721.9</ele>
        <time>2022-04-23T10:56:21.000Z</time>
      </trkpt>
      <trkpt lat="40.01370007891063" lon="-0.47344211002445513">
        <ele>721.9</ele>
        <time>2022-04-23T10:56:22.000Z</time>
      </trkpt>
      <trkpt lat="40.01370094903053" lon="-0.47344455914203804">
        <ele>721.9</ele>
        <time>2022-04-23T10:56:23.000Z</time>
      </trkpt>
      <trkpt lat="40.01370129192916" lon="-0.47344588088003614">
        <ele>721.9</ele>
        <time>2022-04-23T10:56:24.000Z</time>
      </trkpt>
      <trkpt lat="40.01370108706397" lon="-0.4734460265025408">
        <ele>721.6</ele>
        <time>2022-04-23T10:56:25.000Z</time>
      </trkpt>
      <trkpt lat="40.01370055460124" lon="-0.47344526939719134">
        <ele>721.6</ele>
        <time>2022-04-23T10:56:26.000Z</time>
      </trkpt>
      <trkpt lat="40.0136996406448" lon="-0.47344357084186145">
        <ele>721.6</ele>
        <time>2022-04-23T10:56:27.000Z</time>
      </trkpt>
      <trkpt lat="40.01369890012968" lon="-0.47344110152602426">
        <ele>721.6</ele>
        <time>2022-04-23T10:56:28.000Z</time>
      </trkpt>
      <trkpt lat="40.01369837661852" lon="-0.4734378146157395">
        <ele>721.6</ele>
        <time>2022-04-23T10:56:29.000Z</time>
      </trkpt>
      <trkpt lat="40.01369788700878" lon="-0.4734348079775694">
        <ele>721.7</ele>
        <time>2022-04-23T10:56:30.000Z</time>
      </trkpt>
      <trkpt lat="40.01369731323687" lon="-0.47343212165038745">
        <ele>721.7</ele>
        <time>2022-04-23T10:56:31.000Z</time>
      </trkpt>
      <trkpt lat="40.01369628225018" lon="-0.4734298537643845">
        <ele>721.7</ele>
        <time>2022-04-23T10:56:32.000Z</time>
      </trkpt>
      <trkpt lat="40.01369475433314" lon="-0.47342809847512507">
        <ele>721.7</ele>
        <time>2022-04-23T10:56:33.000Z</time>
      </trkpt>
      <trkpt lat="40.01369285792021" lon="-0.4734268439156267">
        <ele>721.7</ele>
        <time>2022-04-23T10:56:34.000Z</time>
      </trkpt>
      <trkpt lat="40.013690907922374" lon="-0.473426019810595">
        <ele>721.5</ele>
        <time>2022-04-23T10:56:35.000Z</time>
      </trkpt>
      <trkpt lat="40.013688887370236" lon="-0.47342560215783885">
        <ele>721.5</ele>
        <time>2022-04-23T10:56:36.000Z</time>
      </trkpt>
      <trkpt lat="40.013687089524176" lon="-0.47342545905503586">
        <ele>721.5</ele>
        <time>2022-04-23T10:56:37.000Z</time>
      </trkpt>
      <trkpt lat="40.013685598110605" lon="-0.47342556660566">
        <ele>721.5</ele>
        <time>2022-04-23T10:56:38.000Z</time>
      </trkpt>
      <trkpt lat="40.01368442768362" lon="-0.47342586954696225">
        <ele>721.5</ele>
        <time>2022-04-23T10:56:39.000Z</time>
      </trkpt>
      <trkpt lat="40.01368335273589" lon="-0.473426639080131">
        <ele>721.3</ele>
        <time>2022-04-23T10:56:40.000Z</time>
      </trkpt>
      <trkpt lat="40.013682375919274" lon="-0.47342790988764166">
        <ele>721.3</ele>
        <time>2022-04-23T10:56:41.000Z</time>
      </trkpt>
      <trkpt lat="40.01368162081272" lon="-0.4734295978846084">
        <ele>721.3</ele>
        <time>2022-04-23T10:56:42.000Z</time>
      </trkpt>
      <trkpt lat="40.0136811182176" lon="-0.4734316243181597">
        <ele>721.3</ele>
        <time>2022-04-23T10:56:43.000Z</time>
      </trkpt>
      <trkpt lat="40.01368056673123" lon="-0.4734338939029294">
        <ele>721.3</ele>
        <time>2022-04-23T10:56:44.000Z</time>
      </trkpt>
      <trkpt lat="40.0136798714844" lon="-0.47343638240914016">
        <ele>721.1</ele>
        <time>2022-04-23T10:56:45.000Z</time>
      </trkpt>
      <trkpt lat="40.013678955498605" lon="-0.4734391558367218">
        <ele>721.1</ele>
        <time>2022-04-23T10:56:46.000Z</time>
      </trkpt>
      <trkpt lat="40.01367778793512" lon="-0.47344224442209504">
        <ele>721.1</ele>
        <time>2022-04-23T10:56:47.000Z</time>
      </trkpt>
      <trkpt lat="40.01367618520587" lon="-0.47344547489106076">
        <ele>721.1</ele>
        <time>2022-04-23T10:56:48.000Z</time>
      </trkpt>
      <trkpt lat="40.013674133354364" lon="-0.4734487910298857">
        <ele>721.1</ele>
        <time>2022-04-23T10:56:49.000Z</time>
      </trkpt>
      <trkpt lat="40.01367169854005" lon="-0.47345215071891045">
        <ele>720.9</ele>
        <time>2022-04-23T10:56:50.000Z</time>
      </trkpt>
      <trkpt lat="40.01366899022355" lon="-0.47345546123311094">
        <ele>720.9</ele>
        <time>2022-04-23T10:56:51.000Z</time>
      </trkpt>
      <trkpt lat="40.01366604047614" lon="-0.47345879860245516">
        <ele>720.9</ele>
        <time>2022-04-23T10:56:52.000Z</time>
      </trkpt>
      <trkpt lat="40.01366332178877" lon="-0.47346172853602725">
        <ele>720.9</ele>
        <time>2022-04-23T10:56:53.000Z</time>
      </trkpt>
      <trkpt lat="40.01366070531612" lon="-0.47346450042740357">
        <ele>720.9</ele>
        <time>2022-04-23T10:56:54.000Z</time>
      </trkpt>
      <trkpt lat="40.013658567609234" lon="-0.47346698341465476">
        <ele>721.1</ele>
        <time>2022-04-23T10:56:55.000Z</time>
      </trkpt>
      <trkpt lat="40.013656998731605" lon="-0.47346918811304045">
        <ele>721.1</ele>
        <time>2022-04-23T10:56:56.000Z</time>
      </trkpt>
      <trkpt lat="40.01365603541081" lon="-0.4734710267475311">
        <ele>721.1</ele>
        <time>2022-04-23T10:56:57.000Z</time>
      </trkpt>
      <trkpt lat="40.013655647667186" lon="-0.47347249910679706">
        <ele>721.1</ele>
        <time>2022-04-23T10:56:58.000Z</time>
      </trkpt>
      <trkpt lat="40.0136557221308" lon="-0.4734734354604774">
        <ele>721.1</ele>
        <time>2022-04-23T10:56:59.000Z</time>
      </trkpt>
      <trkpt lat="40.01365617961947" lon="-0.4734739420668332">
        <ele>720.6</ele>
        <time>2022-04-23T10:57:00.000Z</time>
      </trkpt>
      <trkpt lat="40.0136569263098" lon="-0.47347414513853764">
        <ele>720.6</ele>
        <time>2022-04-23T10:57:01.000Z</time>
      </trkpt>
      <trkpt lat="40.01365789824602" lon="-0.47347411759250785">
        <ele>720.6</ele>
        <time>2022-04-23T10:57:02.000Z</time>
      </trkpt>
      <trkpt lat="40.01365907131241" lon="-0.4734737702556864">
        <ele>720.6</ele>
        <time>2022-04-23T10:57:03.000Z</time>
      </trkpt>
      <trkpt lat="40.01365996874767" lon="-0.47347355606478203">
        <ele>720.6</ele>
        <time>2022-04-23T10:57:04.000Z</time>
      </trkpt>
      <trkpt lat="40.01366068115062" lon="-0.473473271704248">
        <ele>720.9</ele>
        <time>2022-04-23T10:57:05.000Z</time>
      </trkpt>
      <trkpt lat="40.013661206255385" lon="-0.4734729790937229">
        <ele>720.9</ele>
        <time>2022-04-23T10:57:06.000Z</time>
      </trkpt>
      <trkpt lat="40.01366151515299" lon="-0.47347261111160327">
        <ele>720.9</ele>
        <time>2022-04-23T10:57:07.000Z</time>
      </trkpt>
      <trkpt lat="40.01366165197878" lon="-0.4734722404228364">
        <ele>720.9</ele>
        <time>2022-04-23T10:57:08.000Z</time>
      </trkpt>
      <trkpt lat="40.01366169474462" lon="-0.4734718552010801">
        <ele>720.9</ele>
        <time>2022-04-23T10:57:09.000Z</time>
      </trkpt>
      <trkpt lat="40.013661786986866" lon="-0.4734716105217846">
        <ele>720.9</ele>
        <time>2022-04-23T10:57:10.000Z</time>
      </trkpt>
      <trkpt lat="40.01366192968907" lon="-0.473471486113543">
        <ele>720.9</ele>
        <time>2022-04-23T10:57:11.000Z</time>
      </trkpt>
      <trkpt lat="40.01366207829259" lon="-0.47347146823178865">
        <ele>720.9</ele>
        <time>2022-04-23T10:57:12.000Z</time>
      </trkpt>
      <trkpt lat="40.01366223562357" lon="-0.4734715297043832">
        <ele>720.9</ele>
        <time>2022-04-23T10:57:13.000Z</time>
      </trkpt>
      <trkpt lat="40.013662391261356" lon="-0.473471677196344">
        <ele>720.9</ele>
        <time>2022-04-23T10:57:14.000Z</time>
      </trkpt>
      <trkpt lat="40.013662554095255" lon="-0.47347187701682036">
        <ele>721.5</ele>
        <time>2022-04-23T10:57:15.000Z</time>
      </trkpt>
      <trkpt lat="40.013662715845996" lon="-0.4734721424308228">
        <ele>721.5</ele>
        <time>2022-04-23T10:57:16.000Z</time>
      </trkpt>
      <trkpt lat="40.01366288262655" lon="-0.4734724480787724">
        <ele>721.5</ele>
        <time>2022-04-23T10:57:17.000Z</time>
      </trkpt>
      <trkpt lat="40.0136630478882" lon="-0.47347282754585507">
        <ele>721.5</ele>
        <time>2022-04-23T10:57:18.000Z</time>
      </trkpt>
      <trkpt lat="40.01366318689275" lon="-0.47347324592200946">
        <ele>721.5</ele>
        <time>2022-04-23T10:57:19.000Z</time>
      </trkpt>
      <trkpt lat="40.01366329124887" lon="-0.47347366744372704">
        <ele>721.8</ele>
        <time>2022-04-23T10:57:20.000Z</time>
      </trkpt>
      <trkpt lat="40.01366334931579" lon="-0.4734740994018867">
        <ele>721.8</ele>
        <time>2022-04-23T10:57:21.000Z</time>
      </trkpt>
      <trkpt lat="40.01366335703481" lon="-0.4734745173797657">
        <ele>721.8</ele>
        <time>2022-04-23T10:57:22.000Z</time>
      </trkpt>
      <trkpt lat="40.01366336724383" lon="-0.47347487878627653">
        <ele>721.8</ele>
        <time>2022-04-23T10:57:23.000Z</time>
      </trkpt>
      <trkpt lat="40.0136633758966" lon="-0.4734751870108244">
        <ele>721.8</ele>
        <time>2022-04-23T10:57:24.000Z</time>
      </trkpt>
      <trkpt lat="40.013663430552214" lon="-0.47347545672457597">
        <ele>722.3</ele>
        <time>2022-04-23T10:57:25.000Z</time>
      </trkpt>
      <trkpt lat="40.01366351373083" lon="-0.4734755081264916">
        <ele>722.3</ele>
        <time>2022-04-23T10:57:26.000Z</time>
      </trkpt>
      <trkpt lat="40.013663637197745" lon="-0.473475296463417">
        <ele>722.3</ele>
        <time>2022-04-23T10:57:27.000Z</time>
      </trkpt>
      <trkpt lat="40.01366388931078" lon="-0.47347444747023454">
        <ele>722.3</ele>
        <time>2022-04-23T10:57:28.000Z</time>
      </trkpt>
      <trkpt lat="40.01366425232865" lon="-0.4734730527015261">
        <ele>722.3</ele>
        <time>2022-04-23T10:57:29.000Z</time>
      </trkpt>
      <trkpt lat="40.01366469581104" lon="-0.4734712494078845">
        <ele>722.1</ele>
        <time>2022-04-23T10:57:30.000Z</time>
      </trkpt>
      <trkpt lat="40.01366519514425" lon="-0.47346915139041934">
        <ele>722.1</ele>
        <time>2022-04-23T10:57:31.000Z</time>
      </trkpt>
      <trkpt lat="40.01366573845095" lon="-0.47346681577320787">
        <ele>722.1</ele>
        <time>2022-04-23T10:57:32.000Z</time>
      </trkpt>
      <trkpt lat="40.013666334508414" lon="-0.47346430817416024">
        <ele>722.1</ele>
        <time>2022-04-23T10:57:33.000Z</time>
      </trkpt>
      <trkpt lat="40.01366690607668" lon="-0.47346166916047455">
        <ele>722.1</ele>
        <time>2022-04-23T10:57:34.000Z</time>
      </trkpt>
      <trkpt lat="40.01366731187284" lon="-0.47345865745851673">
        <ele>722.3</ele>
        <time>2022-04-23T10:57:35.000Z</time>
      </trkpt>
      <trkpt lat="40.01366734027135" lon="-0.473455134500947">
        <ele>722.3</ele>
        <time>2022-04-23T10:57:36.000Z</time>
      </trkpt>
      <trkpt lat="40.0136669637452" lon="-0.473451149267516">
        <ele>722.3</ele>
        <time>2022-04-23T10:57:37.000Z</time>
      </trkpt>
      <trkpt lat="40.013666250869136" lon="-0.47344644816243525">
        <ele>722.3</ele>
        <time>2022-04-23T10:57:38.000Z</time>
      </trkpt>
      <trkpt lat="40.01366532578238" lon="-0.47344116353507104">
        <ele>722.3</ele>
        <time>2022-04-23T10:57:39.000Z</time>
      </trkpt>
      <trkpt lat="40.01366455173933" lon="-0.4734351048146907">
        <ele>722.6</ele>
        <time>2022-04-23T10:57:40.000Z</time>
      </trkpt>
      <trkpt lat="40.01366419325327" lon="-0.4734279099282816">
        <ele>722.6</ele>
        <time>2022-04-23T10:57:41.000Z</time>
      </trkpt>
      <trkpt lat="40.01366431406833" lon="-0.47341940472381305">
        <ele>722.6</ele>
        <time>2022-04-23T10:57:42.000Z</time>
      </trkpt>
      <trkpt lat="40.01366494174886" lon="-0.47340942639604006">
        <ele>722.6</ele>
        <time>2022-04-23T10:57:43.000Z</time>
      </trkpt>
      <trkpt lat="40.013666019584996" lon="-0.4733978738805384">
        <ele>722.6</ele>
        <time>2022-04-23T10:57:44.000Z</time>
      </trkpt>
      <trkpt lat="40.01366754857274" lon="-0.4733847162906416">
        <ele>722.5</ele>
        <time>2022-04-23T10:57:45.000Z</time>
      </trkpt>
      <trkpt lat="40.013669384254435" lon="-0.4733703049540534">
        <ele>722.5</ele>
        <time>2022-04-23T10:57:46.000Z</time>
      </trkpt>
      <trkpt lat="40.01367177479646" lon="-0.47335496984603753">
        <ele>722.5</ele>
        <time>2022-04-23T10:57:47.000Z</time>
      </trkpt>
      <trkpt lat="40.01367464116604" lon="-0.47333930436448257">
        <ele>722.5</ele>
        <time>2022-04-23T10:57:48.000Z</time>
      </trkpt>
      <trkpt lat="40.01367788185812" lon="-0.47332387302011614">
        <ele>722.5</ele>
        <time>2022-04-23T10:57:49.000Z</time>
      </trkpt>
      <trkpt lat="40.013681246091814" lon="-0.4733091959200186">
        <ele>722.6</ele>
        <time>2022-04-23T10:57:50.000Z</time>
      </trkpt>
      <trkpt lat="40.01368438649893" lon="-0.47329546180610654">
        <ele>722.6</ele>
        <time>2022-04-23T10:57:51.000Z</time>
      </trkpt>
      <trkpt lat="40.01368704511492" lon="-0.47328304479719274">
        <ele>722.6</ele>
        <time>2022-04-23T10:57:52.000Z</time>
      </trkpt>
      <trkpt lat="40.01368917172883" lon="-0.4732720864111062">
        <ele>722.6</ele>
        <time>2022-04-23T10:57:53.000Z</time>
      </trkpt>
      <trkpt lat="40.013690748362826" lon="-0.47326272396346397">
        <ele>722.6</ele>
        <time>2022-04-23T10:57:54.000Z</time>
      </trkpt>
      <trkpt lat="40.01369189466166" lon="-0.47325509524131104">
        <ele>723.1</ele>
        <time>2022-04-23T10:57:55.000Z</time>
      </trkpt>
      <trkpt lat="40.01369267844063" lon="-0.4732492379670212">
        <ele>723.1</ele>
        <time>2022-04-23T10:57:56.000Z</time>
      </trkpt>
      <trkpt lat="40.01369336090128" lon="-0.47324507185151715">
        <ele>723.1</ele>
        <time>2022-04-23T10:57:57.000Z</time>
      </trkpt>
      <trkpt lat="40.01369385466933" lon="-0.4732423841506913">
        <ele>723.1</ele>
        <time>2022-04-23T10:57:58.000Z</time>
      </trkpt>
      <trkpt lat="40.013694276177425" lon="-0.4732407138241491">
        <ele>723.1</ele>
        <time>2022-04-23T10:57:59.000Z</time>
      </trkpt>
      <trkpt lat="40.01369466621185" lon="-0.4732397706347618">
        <ele>723.4</ele>
        <time>2022-04-23T10:58:00.000Z</time>
      </trkpt>
      <trkpt lat="40.0136950414681" lon="-0.47323929986506724">
        <ele>723.4</ele>
        <time>2022-04-23T10:58:01.000Z</time>
      </trkpt>
      <trkpt lat="40.01369542999607" lon="-0.473239190323066">
        <ele>723.4</ele>
        <time>2022-04-23T10:58:02.000Z</time>
      </trkpt>
      <trkpt lat="40.01369576634599" lon="-0.47323927305869196">
        <ele>723.4</ele>
        <time>2022-04-23T10:58:03.000Z</time>
      </trkpt>
      <trkpt lat="40.01369603265206" lon="-0.4732394853313718">
        <ele>723.4</ele>
        <time>2022-04-23T10:58:04.000Z</time>
      </trkpt>
      <trkpt lat="40.013696226710614" lon="-0.47323978485888457">
        <ele>723.6</ele>
        <time>2022-04-23T10:58:05.000Z</time>
      </trkpt>
      <trkpt lat="40.01369627024835" lon="-0.4732400986267763">
        <ele>723.6</ele>
        <time>2022-04-23T10:58:06.000Z</time>
      </trkpt>
      <trkpt lat="40.0136961761386" lon="-0.4732403816624347">
        <ele>723.6</ele>
        <time>2022-04-23T10:58:07.000Z</time>
      </trkpt>
      <trkpt lat="40.01369598417164" lon="-0.4732406038107198">
        <ele>723.6</ele>
        <time>2022-04-23T10:58:08.000Z</time>
      </trkpt>
      <trkpt lat="40.013695715661925" lon="-0.4732408389964294">
        <ele>723.6</ele>
        <time>2022-04-23T10:58:09.000Z</time>
      </trkpt>
      <trkpt lat="40.013695387802926" lon="-0.4732410881868038">
        <ele>723.1</ele>
        <time>2022-04-23T10:58:10.000Z</time>
      </trkpt>
      <trkpt lat="40.013694985430526" lon="-0.47324137201088506">
        <ele>723.1</ele>
        <time>2022-04-23T10:58:11.000Z</time>
      </trkpt>
      <trkpt lat="40.013694526821354" lon="-0.4732416754723838">
        <ele>723.1</ele>
        <time>2022-04-23T10:58:12.000Z</time>
      </trkpt>
      <trkpt lat="40.01369399002601" lon="-0.4732420142991158">
        <ele>723.1</ele>
        <time>2022-04-23T10:58:13.000Z</time>
      </trkpt>
      <trkpt lat="40.013693464858996" lon="-0.47324240731569134">
        <ele>723.1</ele>
        <time>2022-04-23T10:58:14.000Z</time>
      </trkpt>
      <trkpt lat="40.01369297793846" lon="-0.47324285027925794">
        <ele>723.2</ele>
        <time>2022-04-23T10:58:15.000Z</time>
      </trkpt>
      <trkpt lat="40.01369253751878" lon="-0.4732433411821822">
        <ele>723.2</ele>
        <time>2022-04-23T10:58:16.000Z</time>
      </trkpt>
      <trkpt lat="40.013692132519424" lon="-0.4732438836089431">
        <ele>723.2</ele>
        <time>2022-04-23T10:58:17.000Z</time>
      </trkpt>
      <trkpt lat="40.01369177595066" lon="-0.4732444702036372">
        <ele>723.2</ele>
        <time>2022-04-23T10:58:18.000Z</time>
      </trkpt>
      <trkpt lat="40.01369143462074" lon="-0.47324512429382576">
        <ele>723.2</ele>
        <time>2022-04-23T10:58:19.000Z</time>
      </trkpt>
      <trkpt lat="40.01369111344741" lon="-0.47324576423304415">
        <ele>723.9</ele>
        <time>2022-04-23T10:58:20.000Z</time>
      </trkpt>
      <trkpt lat="40.013690799221195" lon="-0.47324639469493285">
        <ele>723.9</ele>
        <time>2022-04-23T10:58:21.000Z</time>
      </trkpt>
      <trkpt lat="40.013690445951696" lon="-0.4732469526625639">
        <ele>723.9</ele>
        <time>2022-04-23T10:58:22.000Z</time>
      </trkpt>
      <trkpt lat="40.01368984339532" lon="-0.47324747408639156">
        <ele>723.9</ele>
        <time>2022-04-23T10:58:23.000Z</time>
      </trkpt>
      <trkpt lat="40.01368878016306" lon="-0.4732480438153401">
        <ele>723.9</ele>
        <time>2022-04-23T10:58:24.000Z</time>
      </trkpt>
      <trkpt lat="40.01368733612184" lon="-0.4732486314910675">
        <ele>723.9</ele>
        <time>2022-04-23T10:58:25.000Z</time>
      </trkpt>
      <trkpt lat="40.01368551124677" lon="-0.4732492387310598">
        <ele>723.9</ele>
        <time>2022-04-23T10:58:26.000Z</time>
      </trkpt>
      <trkpt lat="40.013683303520935" lon="-0.4732500693141634">
        <ele>723.9</ele>
        <time>2022-04-23T10:58:27.000Z</time>
      </trkpt>
      <trkpt lat="40.01368080264678" lon="-0.47325105779315757">
        <ele>723.9</ele>
        <time>2022-04-23T10:58:28.000Z</time>
      </trkpt>
      <trkpt lat="40.01367804009797" lon="-0.47325218537594416">
        <ele>723.9</ele>
        <time>2022-04-23T10:58:29.000Z</time>
      </trkpt>
      <trkpt lat="40.01367490325156" lon="-0.47325330286366757">
        <ele>723.6</ele>
        <time>2022-04-23T10:58:30.000Z</time>
      </trkpt>
      <trkpt lat="40.01367147473839" lon="-0.47325440268096663">
        <ele>723.6</ele>
        <time>2022-04-23T10:58:31.000Z</time>
      </trkpt>
      <trkpt lat="40.01366770411094" lon="-0.47325523845790707">
        <ele>723.6</ele>
        <time>2022-04-23T10:58:32.000Z</time>
      </trkpt>
      <trkpt lat="40.013663415064386" lon="-0.473255434409422">
        <ele>723.6</ele>
        <time>2022-04-23T10:58:33.000Z</time>
      </trkpt>
      <trkpt lat="40.013658973218654" lon="-0.4732551232262567">
        <ele>723.6</ele>
        <time>2022-04-23T10:58:34.000Z</time>
      </trkpt>
      <trkpt lat="40.01365449091034" lon="-0.4732546330060902">
        <ele>723.8</ele>
        <time>2022-04-23T10:58:35.000Z</time>
      </trkpt>
      <trkpt lat="40.01364983325586" lon="-0.47325406312270835">
        <ele>723.8</ele>
        <time>2022-04-23T10:58:36.000Z</time>
      </trkpt>
      <trkpt lat="40.013644955422656" lon="-0.4732536332290786">
        <ele>723.8</ele>
        <time>2022-04-23T10:58:37.000Z</time>
      </trkpt>
      <trkpt lat="40.01364001654698" lon="-0.4732530673690914">
        <ele>723.8</ele>
        <time>2022-04-23T10:58:38.000Z</time>
      </trkpt>
      <trkpt lat="40.013635149059745" lon="-0.4732528089858697">
        <ele>723.8</ele>
        <time>2022-04-23T10:58:39.000Z</time>
      </trkpt>
      <trkpt lat="40.013630370752054" lon="-0.47325271222932275">
        <ele>724.8</ele>
        <time>2022-04-23T10:58:40.000Z</time>
      </trkpt>
      <trkpt lat="40.01362587252016" lon="-0.47325280278415216">
        <ele>724.8</ele>
        <time>2022-04-23T10:58:41.000Z</time>
      </trkpt>
      <trkpt lat="40.013621666403225" lon="-0.4732530487558108">
        <ele>724.8</ele>
        <time>2022-04-23T10:58:42.000Z</time>
      </trkpt>
      <trkpt lat="40.01361779636231" lon="-0.47325363246504">
        <ele>724.8</ele>
        <time>2022-04-23T10:58:43.000Z</time>
      </trkpt>
      <trkpt lat="40.01361449581051" lon="-0.4732549430188135">
        <ele>724.8</ele>
        <time>2022-04-23T10:58:44.000Z</time>
      </trkpt>
      <trkpt lat="40.01361161685395" lon="-0.47325677856463755">
        <ele>724.7</ele>
        <time>2022-04-23T10:58:45.000Z</time>
      </trkpt>
      <trkpt lat="40.01360928360695" lon="-0.47325870758326816">
        <ele>724.7</ele>
        <time>2022-04-23T10:58:46.000Z</time>
      </trkpt>
      <trkpt lat="40.013607557834085" lon="-0.47326063766667603">
        <ele>724.7</ele>
        <time>2022-04-23T10:58:47.000Z</time>
      </trkpt>
      <trkpt lat="40.013606460127704" lon="-0.4732623450328339">
        <ele>724.7</ele>
        <time>2022-04-23T10:58:48.000Z</time>
      </trkpt>
      <trkpt lat="40.013605854122666" lon="-0.4732638898050767">
        <ele>724.7</ele>
        <time>2022-04-23T10:58:49.000Z</time>
      </trkpt>
      <trkpt lat="40.01360553246379" lon="-0.4732648780402288">
        <ele>725.5</ele>
        <time>2022-04-23T10:58:50.000Z</time>
      </trkpt>
      <trkpt lat="40.01360539627296" lon="-0.47326553966513835">
        <ele>725.5</ele>
        <time>2022-04-23T10:58:51.000Z</time>
      </trkpt>
      <trkpt lat="40.013605554711994" lon="-0.4732659055664719">
        <ele>725.5</ele>
        <time>2022-04-23T10:58:52.000Z</time>
      </trkpt>
      <trkpt lat="40.01360586673456" lon="-0.47326603754194674">
        <ele>725.5</ele>
        <time>2022-04-23T10:58:53.000Z</time>
      </trkpt>
      <trkpt lat="40.013606332813744" lon="-0.4732660028188311">
        <ele>725.5</ele>
        <time>2022-04-23T10:58:54.000Z</time>
      </trkpt>
      <trkpt lat="40.01360705414337" lon="-0.47326568429601834">
        <ele>726.1</ele>
        <time>2022-04-23T10:58:55.000Z</time>
      </trkpt>
      <trkpt lat="40.0136081049256" lon="-0.4732649498923687">
        <ele>726.1</ele>
        <time>2022-04-23T10:58:56.000Z</time>
      </trkpt>
      <trkpt lat="40.01360936130757" lon="-0.4732639250646449">
        <ele>726.1</ele>
        <time>2022-04-23T10:58:57.000Z</time>
      </trkpt>
      <trkpt lat="40.013610541495375" lon="-0.47326265298915543">
        <ele>726.1</ele>
        <time>2022-04-23T10:58:58.000Z</time>
      </trkpt>
      <trkpt lat="40.013611682253945" lon="-0.4732612240419121">
        <ele>726.1</ele>
        <time>2022-04-23T10:58:59.000Z</time>
      </trkpt>
      <trkpt lat="40.01361277559036" lon="-0.47325970829500785">
        <ele>726.3</ele>
        <time>2022-04-23T10:59:00.000Z</time>
      </trkpt>
      <trkpt lat="40.013613411587514" lon="-0.4732583706503765">
        <ele>726.3</ele>
        <time>2022-04-23T10:59:01.000Z</time>
      </trkpt>
      <trkpt lat="40.01361371816941" lon="-0.47325710897068873">
        <ele>726.3</ele>
        <time>2022-04-23T10:59:02.000Z</time>
      </trkpt>
      <trkpt lat="40.01361349059538" lon="-0.47325607868090175">
        <ele>726.3</ele>
        <time>2022-04-23T10:59:03.000Z</time>
      </trkpt>
      <trkpt lat="40.01361283195163" lon="-0.47325522175472284">
        <ele>726.3</ele>
        <time>2022-04-23T10:59:04.000Z</time>
      </trkpt>
      <trkpt lat="40.013611806555005" lon="-0.47325451082493986">
        <ele>726.3</ele>
        <time>2022-04-23T10:59:05.000Z</time>
      </trkpt>
      <trkpt lat="40.01361036062139" lon="-0.4732540877914013">
        <ele>726.3</ele>
        <time>2022-04-23T10:59:06.000Z</time>
      </trkpt>
      <trkpt lat="40.01360847074473" lon="-0.47325409313967143">
        <ele>726.3</ele>
        <time>2022-04-23T10:59:07.000Z</time>
      </trkpt>
      <trkpt lat="40.013606281532084" lon="-0.4732544144341561">
        <ele>726.3</ele>
        <time>2022-04-23T10:59:08.000Z</time>
      </trkpt>
      <trkpt lat="40.01360408987924" lon="-0.47325501021356947">
        <ele>726.3</ele>
        <time>2022-04-23T10:59:09.000Z</time>
      </trkpt>
      <trkpt lat="40.01360190473775" lon="-0.47325579682381363">
        <ele>726.1</ele>
        <time>2022-04-23T10:59:10.000Z</time>
      </trkpt>
      <trkpt lat="40.013599722061365" lon="-0.4732567007708783">
        <ele>726.1</ele>
        <time>2022-04-23T10:59:11.000Z</time>
      </trkpt>
      <trkpt lat="40.013597959573374" lon="-0.473257470060205">
        <ele>726.1</ele>
        <time>2022-04-23T10:59:12.000Z</time>
      </trkpt>
      <trkpt lat="40.01359652668739" lon="-0.4732581401626917">
        <ele>726.1</ele>
        <time>2022-04-23T10:59:13.000Z</time>
      </trkpt>
      <trkpt lat="40.01359545625901" lon="-0.47325864586683175">
        <ele>726.1</ele>
        <time>2022-04-23T10:59:14.000Z</time>
      </trkpt>
      <trkpt lat="40.01359467779621" lon="-0.4732590254477074">
        <ele>725.5</ele>
        <time>2022-04-23T10:59:15.000Z</time>
      </trkpt>
      <trkpt lat="40.013594122139075" lon="-0.4732593192611869">
        <ele>725.5</ele>
        <time>2022-04-23T10:59:16.000Z</time>
      </trkpt>
      <trkpt lat="40.013593739250965" lon="-0.47325953892228245">
        <ele>725.5</ele>
        <time>2022-04-23T10:59:17.000Z</time>
      </trkpt>
      <trkpt lat="40.01359345342326" lon="-0.47325972733907645">
        <ele>725.5</ele>
        <time>2022-04-23T10:59:18.000Z</time>
      </trkpt>
      <trkpt lat="40.01359321321245" lon="-0.47325989307042665">
        <ele>725.5</ele>
        <time>2022-04-23T10:59:19.000Z</time>
      </trkpt>
      <trkpt lat="40.01359301336462" lon="-0.47326004149711554">
        <ele>725.4</ele>
        <time>2022-04-23T10:59:20.000Z</time>
      </trkpt>
      <trkpt lat="40.01359280629578" lon="-0.47326016073590443">
        <ele>725.4</ele>
        <time>2022-04-23T10:59:21.000Z</time>
      </trkpt>
      <trkpt lat="40.01359254549263" lon="-0.47326027076558996">
        <ele>725.4</ele>
        <time>2022-04-23T10:59:22.000Z</time>
      </trkpt>
      <trkpt lat="40.01359209886038" lon="-0.473260386078521">
        <ele>725.4</ele>
        <time>2022-04-23T10:59:23.000Z</time>
      </trkpt>
      <trkpt lat="40.013591322103224" lon="-0.47326047909615576">
        <ele>725.4</ele>
        <time>2022-04-23T10:59:24.000Z</time>
      </trkpt>
      <trkpt lat="40.01359029572305" lon="-0.47326051768010474">
        <ele>725.2</ele>
        <time>2022-04-23T10:59:25.000Z</time>
      </trkpt>
      <trkpt lat="40.013589087024684" lon="-0.47326052423132925">
        <ele>725.2</ele>
        <time>2022-04-23T10:59:26.000Z</time>
      </trkpt>
      <trkpt lat="40.01358775076335" lon="-0.4732604911663399">
        <ele>725.2</ele>
        <time>2022-04-23T10:59:27.000Z</time>
      </trkpt>
      <trkpt lat="40.013586532727466" lon="-0.4732604739998557">
        <ele>725.2</ele>
        <time>2022-04-23T10:59:28.000Z</time>
      </trkpt>
      <trkpt lat="40.01358561765052" lon="-0.4732604936941696">
        <ele>725.2</ele>
        <time>2022-04-23T10:59:29.000Z</time>
      </trkpt>
      <trkpt lat="40.01358503424228" lon="-0.4732605420724431">
        <ele>725.2</ele>
        <time>2022-04-23T10:59:30.000Z</time>
      </trkpt>
      <trkpt lat="40.01358476442531" lon="-0.4732605417960887">
        <ele>725.2</ele>
        <time>2022-04-23T10:59:31.000Z</time>
      </trkpt>
      <trkpt lat="40.013584845972986" lon="-0.4732604786816241">
        <ele>725.2</ele>
        <time>2022-04-23T10:59:32.000Z</time>
      </trkpt>
      <trkpt lat="40.01358519631673" lon="-0.47326036644110353">
        <ele>725.2</ele>
        <time>2022-04-23T10:59:33.000Z</time>
      </trkpt>
      <trkpt lat="40.01358587324957" lon="-0.4732602060092551">
        <ele>725.2</ele>
        <time>2022-04-23T10:59:34.000Z</time>
      </trkpt>
      <trkpt lat="40.0135869708937" lon="-0.4732600566153259">
        <ele>725.2</ele>
        <time>2022-04-23T10:59:35.000Z</time>
      </trkpt>
      <trkpt lat="40.01358837986319" lon="-0.4732599508284929">
        <ele>725.2</ele>
        <time>2022-04-23T10:59:36.000Z</time>
      </trkpt>
      <trkpt lat="40.01359002251967" lon="-0.4732598589162757">
        <ele>725.2</ele>
        <time>2022-04-23T10:59:37.000Z</time>
      </trkpt>
      <trkpt lat="40.01359182274369" lon="-0.47325980925376715">
        <ele>725.2</ele>
        <time>2022-04-23T10:59:38.000Z</time>
      </trkpt>
      <trkpt lat="40.01359351522518" lon="-0.4732597657279516">
        <ele>725.2</ele>
        <time>2022-04-23T10:59:39.000Z</time>
      </trkpt>
      <trkpt lat="40.0135949402552" lon="-0.4732596618512152">
        <ele>725.4</ele>
        <time>2022-04-23T10:59:40.000Z</time>
      </trkpt>
      <trkpt lat="40.01359605505547" lon="-0.4732595372804122">
        <ele>725.4</ele>
        <time>2022-04-23T10:59:41.000Z</time>
      </trkpt>
      <trkpt lat="40.01359685750948" lon="-0.4732594887883458">
        <ele>725.4</ele>
        <time>2022-04-23T10:59:42.000Z</time>
      </trkpt>
      <trkpt lat="40.01359734756741" lon="-0.473259506775765">
        <ele>725.4</ele>
        <time>2022-04-23T10:59:43.000Z</time>
      </trkpt>
      <trkpt lat="40.01359764425154" lon="-0.4732595741981068">
        <ele>725.4</ele>
        <time>2022-04-23T10:59:44.000Z</time>
      </trkpt>
      <trkpt lat="40.013597814318906" lon="-0.473259666817466">
        <ele>725</ele>
        <time>2022-04-23T10:59:45.000Z</time>
      </trkpt>
      <trkpt lat="40.01359789118537" lon="-0.4732598004591953">
        <ele>725</ele>
        <time>2022-04-23T10:59:46.000Z</time>
      </trkpt>
      <trkpt lat="40.01359791857543" lon="-0.4732599285657088">
        <ele>725</ele>
        <time>2022-04-23T10:59:47.000Z</time>
      </trkpt>
      <trkpt lat="40.01359789073717" lon="-0.4732601062778345">
        <ele>725</ele>
        <time>2022-04-23T10:59:48.000Z</time>
      </trkpt>
      <trkpt lat="40.01359785127059" lon="-0.4732602629545145">
        <ele>725</ele>
        <time>2022-04-23T10:59:49.000Z</time>
      </trkpt>
      <trkpt lat="40.01359780132108" lon="-0.4732604286370963">
        <ele>724.7</ele>
        <time>2022-04-23T10:59:50.000Z</time>
      </trkpt>
      <trkpt lat="40.01359774405096" lon="-0.47326059576647456">
        <ele>724.7</ele>
        <time>2022-04-23T10:59:51.000Z</time>
      </trkpt>
      <trkpt lat="40.01359769044115" lon="-0.4732607666185089">
        <ele>724.7</ele>
        <time>2022-04-23T10:59:52.000Z</time>
      </trkpt>
      <trkpt lat="40.01359765383807" lon="-0.47326090214595046">
        <ele>724.7</ele>
        <time>2022-04-23T10:59:53.000Z</time>
      </trkpt>
      <trkpt lat="40.0135976233853" lon="-0.4732610341864499">
        <ele>724.7</ele>
        <time>2022-04-23T10:59:54.000Z</time>
      </trkpt>
      <trkpt lat="40.01359759355504" lon="-0.47326119902371233">
        <ele>724.1</ele>
        <time>2022-04-23T10:59:55.000Z</time>
      </trkpt>
      <trkpt lat="40.01359756551758" lon="-0.4732613976818747">
        <ele>724.1</ele>
        <time>2022-04-23T10:59:56.000Z</time>
      </trkpt>
      <trkpt lat="40.01359755202175" lon="-0.473261597729937">
        <ele>724.1</ele>
        <time>2022-04-23T10:59:57.000Z</time>
      </trkpt>
      <trkpt lat="40.01359754771404" lon="-0.47326179348637837">
        <ele>724.1</ele>
        <time>2022-04-23T10:59:58.000Z</time>
      </trkpt>
      <trkpt lat="40.013597558993766" lon="-0.4732619905839512">
        <ele>724.1</ele>
        <time>2022-04-23T10:59:59.000Z</time>
      </trkpt>
      <trkpt lat="40.01359759280803" lon="-0.4732621798054241">
        <ele>723.6</ele>
        <time>2022-04-23T11:00:00.000Z</time>
      </trkpt>
      <trkpt lat="40.013597750039416" lon="-0.4732623619798602">
        <ele>723.6</ele>
        <time>2022-04-23T11:00:01.000Z</time>
      </trkpt>
      <trkpt lat="40.01359794816914" lon="-0.4732626598086064">
        <ele>723.6</ele>
        <time>2022-04-23T11:00:02.000Z</time>
      </trkpt>
      <trkpt lat="40.0135982146246" lon="-0.4732630902143046">
        <ele>723.6</ele>
        <time>2022-04-23T11:00:03.000Z</time>
      </trkpt>
      <trkpt lat="40.01359854741381" lon="-0.4732640206507499">
        <ele>723.6</ele>
        <time>2022-04-23T11:00:04.000Z</time>
      </trkpt>
      <trkpt lat="40.01359893434818" lon="-0.4732654066817828">
        <ele>723.5</ele>
        <time>2022-04-23T11:00:05.000Z</time>
      </trkpt>
      <trkpt lat="40.01359935904349" lon="-0.4732673565245292">
        <ele>723.5</ele>
        <time>2022-04-23T11:00:06.000Z</time>
      </trkpt>
      <trkpt lat="40.013599875781836" lon="-0.47327006802434446">
        <ele>723.5</ele>
        <time>2022-04-23T11:00:07.000Z</time>
      </trkpt>
      <trkpt lat="40.01360046301223" lon="-0.47327337789642737">
        <ele>723.5</ele>
        <time>2022-04-23T11:00:08.000Z</time>
      </trkpt>
      <trkpt lat="40.01360115019144" lon="-0.4732775530666014">
        <ele>723.5</ele>
        <time>2022-04-23T11:00:09.000Z</time>
      </trkpt>
      <trkpt lat="40.013601976698894" lon="-0.47328260304470865">
        <ele>724.1</ele>
        <time>2022-04-23T11:00:10.000Z</time>
      </trkpt>
      <trkpt lat="40.01360287991096" lon="-0.4732883314728307">
        <ele>724.1</ele>
        <time>2022-04-23T11:00:11.000Z</time>
      </trkpt>
      <trkpt lat="40.01360362436029" lon="-0.47329479124844814">
        <ele>724.1</ele>
        <time>2022-04-23T11:00:12.000Z</time>
      </trkpt>
      <trkpt lat="40.013604273367726" lon="-0.473301971626252">
        <ele>724.1</ele>
        <time>2022-04-23T11:00:13.000Z</time>
      </trkpt>
      <trkpt lat="40.0136048019834" lon="-0.4733095942035838">
        <ele>724.1</ele>
        <time>2022-04-23T11:00:14.000Z</time>
      </trkpt>
      <trkpt lat="40.01360522199749" lon="-0.4733173011258995">
        <ele>724.9</ele>
        <time>2022-04-23T11:00:15.000Z</time>
      </trkpt>
      <trkpt lat="40.013605467188306" lon="-0.4733249385207032">
        <ele>724.9</ele>
        <time>2022-04-23T11:00:16.000Z</time>
      </trkpt>
      <trkpt lat="40.01360559481353" lon="-0.4733322563604292">
        <ele>724.9</ele>
        <time>2022-04-23T11:00:17.000Z</time>
      </trkpt>
      <trkpt lat="40.0136055592936" lon="-0.4733389944736805">
        <ele>724.9</ele>
        <time>2022-04-23T11:00:18.000Z</time>
      </trkpt>
      <trkpt lat="40.01360540709203" lon="-0.473345262378074">
        <ele>724.9</ele>
        <time>2022-04-23T11:00:19.000Z</time>
      </trkpt>
      <trkpt lat="40.01360511476541" lon="-0.4733507931234021">
        <ele>725.1</ele>
        <time>2022-04-23T11:00:20.000Z</time>
      </trkpt>
      <trkpt lat="40.01360464888542" lon="-0.4733555020233021">
        <ele>725.1</ele>
        <time>2022-04-23T11:00:21.000Z</time>
      </trkpt>
      <trkpt lat="40.01360406672219" lon="-0.47335961836250445">
        <ele>725.1</ele>
        <time>2022-04-23T11:00:22.000Z</time>
      </trkpt>
      <trkpt lat="40.01360356853438" lon="-0.4733630582511973">
        <ele>725.1</ele>
        <time>2022-04-23T11:00:23.000Z</time>
      </trkpt>
      <trkpt lat="40.01360333021597" lon="-0.4733659520067293">
        <ele>725.1</ele>
        <time>2022-04-23T11:00:24.000Z</time>
      </trkpt>
      <trkpt lat="40.01360344061035" lon="-0.47336864615311475">
        <ele>725.2</ele>
        <time>2022-04-23T11:00:25.000Z</time>
      </trkpt>
      <trkpt lat="40.01360381868031" lon="-0.4733710822820416">
        <ele>725.2</ele>
        <time>2022-04-23T11:00:26.000Z</time>
      </trkpt>
      <trkpt lat="40.01360451401428" lon="-0.47337355816535953">
        <ele>725.2</ele>
        <time>2022-04-23T11:00:27.000Z</time>
      </trkpt>
      <trkpt lat="40.01360532210815" lon="-0.4733763697135901">
        <ele>725.2</ele>
        <time>2022-04-23T11:00:28.000Z</time>
      </trkpt>
      <trkpt lat="40.01360621201114" lon="-0.47337946238738265">
        <ele>725.2</ele>
        <time>2022-04-23T11:00:29.000Z</time>
      </trkpt>
      <trkpt lat="40.01360695707052" lon="-0.47338298536120854">
        <ele>725.7</ele>
        <time>2022-04-23T11:00:30.000Z</time>
      </trkpt>
      <trkpt lat="40.013607509988645" lon="-0.4733872004158228">
        <ele>725.7</ele>
        <time>2022-04-23T11:00:31.000Z</time>
      </trkpt>
      <trkpt lat="40.013607823019655" lon="-0.47339228553157736">
        <ele>725.7</ele>
        <time>2022-04-23T11:00:32.000Z</time>
      </trkpt>
      <trkpt lat="40.0136079180756" lon="-0.47339805413675023">
        <ele>725.7</ele>
        <time>2022-04-23T11:00:33.000Z</time>
      </trkpt>
      <trkpt lat="40.013607439384536" lon="-0.4734041063140342">
        <ele>725.7</ele>
        <time>2022-04-23T11:00:34.000Z</time>
      </trkpt>
      <trkpt lat="40.0136062208631" lon="-0.4734102413895054">
        <ele>725.3</ele>
        <time>2022-04-23T11:00:35.000Z</time>
      </trkpt>
      <trkpt lat="40.01360424618931" lon="-0.47341597228856086">
        <ele>725.3</ele>
        <time>2022-04-23T11:00:36.000Z</time>
      </trkpt>
      <trkpt lat="40.013601582917005" lon="-0.47342139046824555">
        <ele>725.3</ele>
        <time>2022-04-23T11:00:37.000Z</time>
      </trkpt>
      <trkpt lat="40.013598323861146" lon="-0.4734261246220594">
        <ele>725.3</ele>
        <time>2022-04-23T11:00:38.000Z</time>
      </trkpt>
      <trkpt lat="40.013595212151344" lon="-0.4734306350263584">
        <ele>725.3</ele>
        <time>2022-04-23T11:00:39.000Z</time>
      </trkpt>
      <trkpt lat="40.01359202118467" lon="-0.47343520983748527">
        <ele>725.1</ele>
        <time>2022-04-23T11:00:40.000Z</time>
      </trkpt>
      <trkpt lat="40.01358894575424" lon="-0.47343962576922505">
        <ele>725.1</ele>
        <time>2022-04-23T11:00:41.000Z</time>
      </trkpt>
      <trkpt lat="40.01358597109433" lon="-0.4734438040443219">
        <ele>725.1</ele>
        <time>2022-04-23T11:00:42.000Z</time>
      </trkpt>
      <trkpt lat="40.01358306566902" lon="-0.47344770555863036">
        <ele>725.1</ele>
        <time>2022-04-23T11:00:43.000Z</time>
      </trkpt>
      <trkpt lat="40.01358021951828" lon="-0.47345138959829425">
        <ele>725.1</ele>
        <time>2022-04-23T11:00:44.000Z</time>
      </trkpt>
      <trkpt lat="40.01357771601717" lon="-0.4734552770510414">
        <ele>725.5</ele>
        <time>2022-04-23T11:00:45.000Z</time>
      </trkpt>
      <trkpt lat="40.01357558307864" lon="-0.4734592411840024">
        <ele>725.5</ele>
        <time>2022-04-23T11:00:46.000Z</time>
      </trkpt>
      <trkpt lat="40.013573788755934" lon="-0.4734635507843285">
        <ele>725.5</ele>
        <time>2022-04-23T11:00:47.000Z</time>
      </trkpt>
      <trkpt lat="40.013572356430195" lon="-0.4734681164676326">
        <ele>725.5</ele>
        <time>2022-04-23T11:00:48.000Z</time>
      </trkpt>
      <trkpt lat="40.0135713708861" lon="-0.4734731712656855">
        <ele>725.5</ele>
        <time>2022-04-23T11:00:49.000Z</time>
      </trkpt>
      <trkpt lat="40.013570322568974" lon="-0.47347780242059456">
        <ele>725.7</ele>
        <time>2022-04-23T11:00:50.000Z</time>
      </trkpt>
      <trkpt lat="40.01356937390186" lon="-0.47348174484348005">
        <ele>725.7</ele>
        <time>2022-04-23T11:00:51.000Z</time>
      </trkpt>
      <trkpt lat="40.01356851895854" lon="-0.47348516858169754">
        <ele>725.7</ele>
        <time>2022-04-23T11:00:52.000Z</time>
      </trkpt>
      <trkpt lat="40.01356780367963" lon="-0.4734879597040878">
        <ele>725.7</ele>
        <time>2022-04-23T11:00:53.000Z</time>
      </trkpt>
      <trkpt lat="40.01356730139576" lon="-0.4734900156913021">
        <ele>725.7</ele>
        <time>2022-04-23T11:00:54.000Z</time>
      </trkpt>
      <trkpt lat="40.01356698566309" lon="-0.47349149400844337">
        <ele>726.3</ele>
        <time>2022-04-23T11:00:55.000Z</time>
      </trkpt>
      <trkpt lat="40.013566869628846" lon="-0.4734923646791889">
        <ele>726.3</ele>
        <time>2022-04-23T11:00:56.000Z</time>
      </trkpt>
      <trkpt lat="40.01356692413506" lon="-0.473492762279996">
        <ele>726.3</ele>
        <time>2022-04-23T11:00:57.000Z</time>
      </trkpt>
      <trkpt lat="40.01356711190636" lon="-0.47349277788589067">
        <ele>726.3</ele>
        <time>2022-04-23T11:00:58.000Z</time>
      </trkpt>
      <trkpt lat="40.013567402489976" lon="-0.47349249706919533">
        <ele>726.3</ele>
        <time>2022-04-23T11:00:59.000Z</time>
      </trkpt>
      <trkpt lat="40.01356764551449" lon="-0.47349196057592563">
        <ele>726.2</ele>
        <time>2022-04-23T11:01:00.000Z</time>
      </trkpt>
      <trkpt lat="40.013567777136174" lon="-0.4734914312353577">
        <ele>726.2</ele>
        <time>2022-04-23T11:01:01.000Z</time>
      </trkpt>
      <trkpt lat="40.0135678825879" lon="-0.47349100247965764">
        <ele>726.2</ele>
        <time>2022-04-23T11:01:02.000Z</time>
      </trkpt>
      <trkpt lat="40.01356797364739" lon="-0.4734906314576399">
        <ele>726.2</ele>
        <time>2022-04-23T11:01:03.000Z</time>
      </trkpt>
      <trkpt lat="40.01356805342716" lon="-0.4734902888188431">
        <ele>726.2</ele>
        <time>2022-04-23T11:01:04.000Z</time>
      </trkpt>
      <trkpt lat="40.01356812593611" lon="-0.47348997360415496">
        <ele>726.3</ele>
        <time>2022-04-23T11:01:05.000Z</time>
      </trkpt>
      <trkpt lat="40.01356821739401" lon="-0.47348965460991416">
        <ele>726.3</ele>
        <time>2022-04-23T11:01:06.000Z</time>
      </trkpt>
      <trkpt lat="40.01356833103785" lon="-0.47348935743141357">
        <ele>726.3</ele>
        <time>2022-04-23T11:01:07.000Z</time>
      </trkpt>
      <trkpt lat="40.01356847279386" lon="-0.473489065690592">
        <ele>726.3</ele>
        <time>2022-04-23T11:01:08.000Z</time>
      </trkpt>
      <trkpt lat="40.013568649559325" lon="-0.4734887837603511">
        <ele>726.3</ele>
        <time>2022-04-23T11:01:09.000Z</time>
      </trkpt>
      <trkpt lat="40.01356886467089" lon="-0.47348850845448726">
        <ele>726.5</ele>
        <time>2022-04-23T11:01:10.000Z</time>
      </trkpt>
      <trkpt lat="40.01356911080791" lon="-0.4734882421301409">
        <ele>726.5</ele>
        <time>2022-04-23T11:01:11.000Z</time>
      </trkpt>
      <trkpt lat="40.0135693903608" lon="-0.4734879921513437">
        <ele>726.5</ele>
        <time>2022-04-23T11:01:12.000Z</time>
      </trkpt>
      <trkpt lat="40.01356969282174" lon="-0.4734877607939552">
        <ele>726.5</ele>
        <time>2022-04-23T11:01:13.000Z</time>
      </trkpt>
      <trkpt lat="40.01357001460512" lon="-0.47348754860255604">
        <ele>726.5</ele>
        <time>2022-04-23T11:01:14.000Z</time>
      </trkpt>
      <trkpt lat="40.01357035284744" lon="-0.47348735611359893">
        <ele>726.6</ele>
        <time>2022-04-23T11:01:15.000Z</time>
      </trkpt>
      <trkpt lat="40.013570705257884" lon="-0.47348718385540844">
        <ele>726.6</ele>
        <time>2022-04-23T11:01:16.000Z</time>
      </trkpt>
      <trkpt lat="40.0135710447701" lon="-0.4734870445484143">
        <ele>726.6</ele>
        <time>2022-04-23T11:01:17.000Z</time>
      </trkpt>
      <trkpt lat="40.01357136959129" lon="-0.47348691710027446">
        <ele>726.6</ele>
        <time>2022-04-23T11:01:18.000Z</time>
      </trkpt>
      <trkpt lat="40.01357167202733" lon="-0.47348680465655213">
        <ele>726.6</ele>
        <time>2022-04-23T11:01:19.000Z</time>
      </trkpt>
      <trkpt lat="40.01357194672472" lon="-0.4734867093549297">
        <ele>726.7</ele>
        <time>2022-04-23T11:01:20.000Z</time>
      </trkpt>
      <trkpt lat="40.01357219009783" lon="-0.4734866325284106">
        <ele>726.7</ele>
        <time>2022-04-23T11:01:21.000Z</time>
      </trkpt>
      <trkpt lat="40.0135724092183" lon="-0.47348657059251614">
        <ele>726.7</ele>
        <time>2022-04-23T11:01:22.000Z</time>
      </trkpt>
      <trkpt lat="40.01357260139691" lon="-0.4734865154191761">
        <ele>726.7</ele>
        <time>2022-04-23T11:01:23.000Z</time>
      </trkpt>
      <trkpt lat="40.01357277689248" lon="-0.47348646426923063">
        <ele>726.7</ele>
        <time>2022-04-23T11:01:24.000Z</time>
      </trkpt>
      <trkpt lat="40.01357293904162" lon="-0.4734864163705133">
        <ele>726.9</ele>
        <time>2022-04-23T11:01:25.000Z</time>
      </trkpt>
      <trkpt lat="40.013573095189855" lon="-0.4734863701217943">
        <ele>726.9</ele>
        <time>2022-04-23T11:01:26.000Z</time>
      </trkpt>
      <trkpt lat="40.01357325071559" lon="-0.47348632439327165">
        <ele>726.9</ele>
        <time>2022-04-23T11:01:27.000Z</time>
      </trkpt>
      <trkpt lat="40.01357340945342" lon="-0.4734862783640104">
        <ele>726.9</ele>
        <time>2022-04-23T11:01:28.000Z</time>
      </trkpt>
      <trkpt lat="40.01357357421708" lon="-0.4734862314569177">
        <ele>726.9</ele>
        <time>2022-04-23T11:01:29.000Z</time>
      </trkpt>
      <trkpt lat="40.01357374697364" lon="-0.4734861832737179">
        <ele>726.9</ele>
        <time>2022-04-23T11:01:30.000Z</time>
      </trkpt>
      <trkpt lat="40.01357392433672" lon="-0.4734861345296812">
        <ele>726.9</ele>
        <time>2022-04-23T11:01:31.000Z</time>
      </trkpt>
      <trkpt lat="40.0135741039657" lon="-0.4734860857043639">
        <ele>726.9</ele>
        <time>2022-04-23T11:01:32.000Z</time>
      </trkpt>
      <trkpt lat="40.01357428416738" lon="-0.4734860371472729">
        <ele>726.9</ele>
        <time>2022-04-23T11:01:33.000Z</time>
      </trkpt>
      <trkpt lat="40.013574474926685" lon="-0.4734859904921502">
        <ele>726.9</ele>
        <time>2022-04-23T11:01:34.000Z</time>
      </trkpt>
      <trkpt lat="40.01357466481449" lon="-0.4734859471532802">
        <ele>726.5</ele>
        <time>2022-04-23T11:01:35.000Z</time>
      </trkpt>
      <trkpt lat="40.013574853158495" lon="-0.4734859070087417">
        <ele>726.5</ele>
        <time>2022-04-23T11:01:36.000Z</time>
      </trkpt>
      <trkpt lat="40.0135750470801" lon="-0.4734858716272525">
        <ele>726.5</ele>
        <time>2022-04-23T11:01:37.000Z</time>
      </trkpt>
      <trkpt lat="40.01357524921873" lon="-0.47348585251815956">
        <ele>726.5</ele>
        <time>2022-04-23T11:01:38.000Z</time>
      </trkpt>
      <trkpt lat="40.013575671772635" lon="-0.47348606231990603">
        <ele>726.5</ele>
        <time>2022-04-23T11:01:39.000Z</time>
      </trkpt>
      <trkpt lat="40.013576283890636" lon="-0.4734864821184727">
        <ele>726.4</ele>
        <time>2022-04-23T11:01:40.000Z</time>
      </trkpt>
      <trkpt lat="40.01357753026278" lon="-0.4734872783848642">
        <ele>726.4</ele>
        <time>2022-04-23T11:01:41.000Z</time>
      </trkpt>
      <trkpt lat="40.01357940299575" lon="-0.4734884450230279">
        <ele>726.4</ele>
        <time>2022-04-23T11:01:42.000Z</time>
      </trkpt>
      <trkpt lat="40.013581947059045" lon="-0.4734898394015888">
        <ele>726.4</ele>
        <time>2022-04-23T11:01:43.000Z</time>
      </trkpt>
      <trkpt lat="40.01358502028582" lon="-0.47349140445336657">
        <ele>726.4</ele>
        <time>2022-04-23T11:01:44.000Z</time>
      </trkpt>
      <trkpt lat="40.01358863160273" lon="-0.4734930042445162">
        <ele>725.7</ele>
        <time>2022-04-23T11:01:45.000Z</time>
      </trkpt>
      <trkpt lat="40.01359288024894" lon="-0.4734947460249231">
        <ele>725.7</ele>
        <time>2022-04-23T11:01:46.000Z</time>
      </trkpt>
      <trkpt lat="40.013597622812604" lon="-0.47349657827075065">
        <ele>725.7</ele>
        <time>2022-04-23T11:01:47.000Z</time>
      </trkpt>
      <trkpt lat="40.01360293487783" lon="-0.47349856572207755">
        <ele>725.7</ele>
        <time>2022-04-23T11:01:48.000Z</time>
      </trkpt>
      <trkpt lat="40.01360885083159" lon="-0.4735007410456177">
        <ele>725.7</ele>
        <time>2022-04-23T11:01:49.000Z</time>
      </trkpt>
      <trkpt lat="40.01361520947093" lon="-0.4735026600829782">
        <ele>725.1</ele>
        <time>2022-04-23T11:01:50.000Z</time>
      </trkpt>
      <trkpt lat="40.013621958132255" lon="-0.4735039152845941">
        <ele>725.1</ele>
        <time>2022-04-23T11:01:51.000Z</time>
      </trkpt>
      <trkpt lat="40.01362852057853" lon="-0.47350442567863066">
        <ele>725.1</ele>
        <time>2022-04-23T11:01:52.000Z</time>
      </trkpt>
      <trkpt lat="40.013634932068236" lon="-0.47350418668898425">
        <ele>725.1</ele>
        <time>2022-04-23T11:01:53.000Z</time>
      </trkpt>
      <trkpt lat="40.01364119021096" lon="-0.47350327263060027">
        <ele>725.1</ele>
        <time>2022-04-23T11:01:54.000Z</time>
      </trkpt>
      <trkpt lat="40.01364746402828" lon="-0.47350174316351357">
        <ele>724.7</ele>
        <time>2022-04-23T11:01:55.000Z</time>
      </trkpt>
      <trkpt lat="40.013653844741526" lon="-0.47349964693422386">
        <ele>724.7</ele>
        <time>2022-04-23T11:01:56.000Z</time>
      </trkpt>
      <trkpt lat="40.01366005623401" lon="-0.47349659203157324">
        <ele>724.7</ele>
        <time>2022-04-23T11:01:57.000Z</time>
      </trkpt>
      <trkpt lat="40.013665686297806" lon="-0.4734927142349734">
        <ele>724.7</ele>
        <time>2022-04-23T11:01:58.000Z</time>
      </trkpt>
      <trkpt lat="40.01367034862105" lon="-0.4734887439246791">
        <ele>724.7</ele>
        <time>2022-04-23T11:01:59.000Z</time>
      </trkpt>
      <trkpt lat="40.01367432880735" lon="-0.47348438242662516">
        <ele>724.3</ele>
        <time>2022-04-23T11:02:00.000Z</time>
      </trkpt>
      <trkpt lat="40.01367782260846" lon="-0.47347963319524117">
        <ele>724.3</ele>
        <time>2022-04-23T11:02:01.000Z</time>
      </trkpt>
      <trkpt lat="40.013680869441174" lon="-0.4734747579543857">
        <ele>724.3</ele>
        <time>2022-04-23T11:02:02.000Z</time>
      </trkpt>
      <trkpt lat="40.01368357561627" lon="-0.4734697523880536">
        <ele>724.3</ele>
        <time>2022-04-23T11:02:03.000Z</time>
      </trkpt>
      <trkpt lat="40.0136858497132" lon="-0.47346451578132775">
        <ele>724.3</ele>
        <time>2022-04-23T11:02:04.000Z</time>
      </trkpt>
      <trkpt lat="40.0136875942856" lon="-0.4734589607086857">
        <ele>723.7</ele>
        <time>2022-04-23T11:02:05.000Z</time>
      </trkpt>
      <trkpt lat="40.01368872690185" lon="-0.4734529240966561">
        <ele>723.7</ele>
        <time>2022-04-23T11:02:06.000Z</time>
      </trkpt>
      <trkpt lat="40.01368916056117" lon="-0.47344671748603956">
        <ele>723.7</ele>
        <time>2022-04-23T11:02:07.000Z</time>
      </trkpt>
      <trkpt lat="40.013688926787026" lon="-0.47344092634172824">
        <ele>723.7</ele>
        <time>2022-04-23T11:02:08.000Z</time>
      </trkpt>
      <trkpt lat="40.01368864570278" lon="-0.4734355664890748">
        <ele>723.7</ele>
        <time>2022-04-23T11:02:09.000Z</time>
      </trkpt>
      <trkpt lat="40.01368888585134" lon="-0.47343032080329467">
        <ele>723.2</ele>
        <time>2022-04-23T11:02:10.000Z</time>
      </trkpt>
      <trkpt lat="40.01368917436825" lon="-0.47342547405132507">
        <ele>723.2</ele>
        <time>2022-04-23T11:02:11.000Z</time>
      </trkpt>
      <trkpt lat="40.01368926439439" lon="-0.4734211906721532">
        <ele>723.2</ele>
        <time>2022-04-23T11:02:12.000Z</time>
      </trkpt>
      <trkpt lat="40.01368919908155" lon="-0.4734176159956732">
        <ele>723.2</ele>
        <time>2022-04-23T11:02:13.000Z</time>
      </trkpt>
      <trkpt lat="40.01368900299363" lon="-0.473414642942689">
        <ele>723.2</ele>
        <time>2022-04-23T11:02:14.000Z</time>
      </trkpt>
      <trkpt lat="40.01368874453109" lon="-0.47341235210301597">
        <ele>722.9</ele>
        <time>2022-04-23T11:02:15.000Z</time>
      </trkpt>
      <trkpt lat="40.01368848182308" lon="-0.4734108869127079">
        <ele>722.9</ele>
        <time>2022-04-23T11:02:16.000Z</time>
      </trkpt>
      <trkpt lat="40.013688272861835" lon="-0.47341039898465725">
        <ele>722.9</ele>
        <time>2022-04-23T11:02:17.000Z</time>
      </trkpt>
      <trkpt lat="40.01368809481401" lon="-0.4734106649594965">
        <ele>722.9</ele>
        <time>2022-04-23T11:02:18.000Z</time>
      </trkpt>
      <trkpt lat="40.013688104836284" lon="-0.47341136895603575">
        <ele>722.9</ele>
        <time>2022-04-23T11:02:19.000Z</time>
      </trkpt>
      <trkpt lat="40.01368823935882" lon="-0.4734124150711753">
        <ele>722.8</ele>
        <time>2022-04-23T11:02:20.000Z</time>
      </trkpt>
      <trkpt lat="40.01368822893815" lon="-0.47341332125345925">
        <ele>722.8</ele>
        <time>2022-04-23T11:02:21.000Z</time>
      </trkpt>
      <trkpt lat="40.01368822078337" lon="-0.4734140472608124">
        <ele>722.8</ele>
        <time>2022-04-23T11:02:22.000Z</time>
      </trkpt>
      <trkpt lat="40.01368821280291" lon="-0.4734146613527678">
        <ele>722.8</ele>
        <time>2022-04-23T11:02:23.000Z</time>
      </trkpt>
      <trkpt lat="40.013688204735296" lon="-0.47341517386823057">
        <ele>722.8</ele>
        <time>2022-04-23T11:02:24.000Z</time>
      </trkpt>
      <trkpt lat="40.01368819626927" lon="-0.47341561445027264">
        <ele>722.8</ele>
        <time>2022-04-23T11:02:25.000Z</time>
      </trkpt>
      <trkpt lat="40.01368818737995" lon="-0.47341601045797804">
        <ele>722.8</ele>
        <time>2022-04-23T11:02:26.000Z</time>
      </trkpt>
      <trkpt lat="40.01368817817938" lon="-0.47341636596350994">
        <ele>722.8</ele>
        <time>2022-04-23T11:02:27.000Z</time>
      </trkpt>
      <trkpt lat="40.01368816838121" lon="-0.47341669195601915">
        <ele>722.8</ele>
        <time>2022-04-23T11:02:28.000Z</time>
      </trkpt>
      <trkpt lat="40.01368815828423" lon="-0.4734169836480724">
        <ele>722.8</ele>
        <time>2022-04-23T11:02:29.000Z</time>
      </trkpt>
      <trkpt lat="40.01368814819971" lon="-0.4734172488832573">
        <ele>722.7</ele>
        <time>2022-04-23T11:02:30.000Z</time>
      </trkpt>
      <trkpt lat="40.013688138077846" lon="-0.47341748525566507">
        <ele>722.7</ele>
        <time>2022-04-23T11:02:31.000Z</time>
      </trkpt>
      <trkpt lat="40.01368812824233" lon="-0.4734176916842625">
        <ele>722.7</ele>
        <time>2022-04-23T11:02:32.000Z</time>
      </trkpt>
      <trkpt lat="40.0136881185562" lon="-0.47341787995475126">
        <ele>722.7</ele>
        <time>2022-04-23T11:02:33.000Z</time>
      </trkpt>
      <trkpt lat="40.01368810939298" lon="-0.47341804241861724">
        <ele>722.7</ele>
        <time>2022-04-23T11:02:34.000Z</time>
      </trkpt>
      <trkpt lat="40.01368810054101" lon="-0.47341818916279554">
        <ele>722.5</ele>
        <time>2022-04-23T11:02:35.000Z</time>
      </trkpt>
      <trkpt lat="40.01368811869722" lon="-0.4734183256065379">
        <ele>722.5</ele>
        <time>2022-04-23T11:02:36.000Z</time>
      </trkpt>
      <trkpt lat="40.013688162477585" lon="-0.47341845954388817">
        <ele>722.5</ele>
        <time>2022-04-23T11:02:37.000Z</time>
      </trkpt>
      <trkpt lat="40.01368823064527" lon="-0.47341859858785595">
        <ele>722.5</ele>
        <time>2022-04-23T11:02:38.000Z</time>
      </trkpt>
      <trkpt lat="40.01368832239578" lon="-0.47341874004727463">
        <ele>722.5</ele>
        <time>2022-04-23T11:02:39.000Z</time>
      </trkpt>
      <trkpt lat="40.0136884366688" lon="-0.4734188862940277">
        <ele>722.6</ele>
        <time>2022-04-23T11:02:40.000Z</time>
      </trkpt>
      <trkpt lat="40.01368834794282" lon="-0.4734188760908904">
        <ele>722.6</ele>
        <time>2022-04-23T11:02:41.000Z</time>
      </trkpt>
      <trkpt lat="40.01368861803096" lon="-0.4734191003850869">
        <ele>722.6</ele>
        <time>2022-04-23T11:02:42.000Z</time>
      </trkpt>
      <trkpt lat="40.01368887711577" lon="-0.4734193252722312">
        <ele>722.6</ele>
        <time>2022-04-23T11:02:43.000Z</time>
      </trkpt>
      <trkpt lat="40.013689125296835" lon="-0.47341954952498444">
        <ele>722.6</ele>
        <time>2022-04-23T11:02:44.000Z</time>
      </trkpt>
      <trkpt lat="40.01368936236245" lon="-0.473419776532768">
        <ele>722.6</ele>
        <time>2022-04-23T11:02:45.000Z</time>
      </trkpt>
      <trkpt lat="40.01368958838733" lon="-0.4734200055071431">
        <ele>722.6</ele>
        <time>2022-04-23T11:02:46.000Z</time>
      </trkpt>
      <trkpt lat="40.01368980317232" lon="-0.4734202389027711">
        <ele>722.6</ele>
        <time>2022-04-23T11:02:47.000Z</time>
      </trkpt>
      <trkpt lat="40.01369000665514" lon="-0.4734204774024732">
        <ele>722.6</ele>
        <time>2022-04-23T11:02:48.000Z</time>
      </trkpt>
      <trkpt lat="40.01369019877361" lon="-0.4734207215995511">
        <ele>722.6</ele>
        <time>2022-04-23T11:02:49.000Z</time>
      </trkpt>
      <trkpt lat="40.01369037947789" lon="-0.47342097199796096">
        <ele>722.8</ele>
        <time>2022-04-23T11:02:50.000Z</time>
      </trkpt>
      <trkpt lat="40.0136901231742" lon="-0.4734210097290049">
        <ele>722.8</ele>
        <time>2022-04-23T11:02:51.000Z</time>
      </trkpt>
      <trkpt lat="40.01369014087582" lon="-0.4734211688826924">
        <ele>722.8</ele>
        <time>2022-04-23T11:02:52.000Z</time>
      </trkpt>
      <trkpt lat="40.013690127450566" lon="-0.473421314808087">
        <ele>722.8</ele>
        <time>2022-04-23T11:02:53.000Z</time>
      </trkpt>
      <trkpt lat="40.013690083926" lon="-0.4734214470411345">
        <ele>722.8</ele>
        <time>2022-04-23T11:02:54.000Z</time>
      </trkpt>
      <trkpt lat="40.01369001133509" lon="-0.47342156506398675">
        <ele>722.8</ele>
        <time>2022-04-23T11:02:55.000Z</time>
      </trkpt>
      <trkpt lat="40.01368991071556" lon="-0.4734216683128386">
        <ele>722.8</ele>
        <time>2022-04-23T11:02:56.000Z</time>
      </trkpt>
      <trkpt lat="40.01368978310503" lon="-0.4734217561973723">
        <ele>722.8</ele>
        <time>2022-04-23T11:02:57.000Z</time>
      </trkpt>
      <trkpt lat="40.01368965549452" lon="-0.47342184408195354">
        <ele>722.8</ele>
        <time>2022-04-23T11:02:58.000Z</time>
      </trkpt>
      <trkpt lat="40.013689527884154" lon="-0.47342193196643956">
        <ele>722.8</ele>
        <time>2022-04-23T11:02:59.000Z</time>
      </trkpt>
      <trkpt lat="40.01368940027374" lon="-0.47342201985090965">
        <ele>722.9</ele>
        <time>2022-04-23T11:03:00.000Z</time>
      </trkpt>
      <trkpt lat="40.01368927266338" lon="-0.4734221077352846">
        <ele>722.9</ele>
        <time>2022-04-23T11:03:01.000Z</time>
      </trkpt>
      <trkpt lat="40.013689145052936" lon="-0.473422195619596">
        <ele>722.9</ele>
        <time>2022-04-23T11:03:02.000Z</time>
      </trkpt>
      <trkpt lat="40.01368901744252" lon="-0.47342228350389154">
        <ele>722.9</ele>
        <time>2022-04-23T11:03:03.000Z</time>
      </trkpt>
      <trkpt lat="40.01368888983211" lon="-0.4734223713881711">
        <ele>722.9</ele>
        <time>2022-04-23T11:03:04.000Z</time>
      </trkpt>
      <trkpt lat="40.013688762221676" lon="-0.4734224592724825">
        <ele>723</ele>
        <time>2022-04-23T11:03:05.000Z</time>
      </trkpt>
      <trkpt lat="40.013688634611306" lon="-0.4734225471566987">
        <ele>723</ele>
        <time>2022-04-23T11:03:06.000Z</time>
      </trkpt>
      <trkpt lat="40.013688507001014" lon="-0.47342263504086723">
        <ele>723</ele>
        <time>2022-04-23T11:03:07.000Z</time>
      </trkpt>
      <trkpt lat="40.0136883793909" lon="-0.47342272292495635">
        <ele>723</ele>
        <time>2022-04-23T11:03:08.000Z</time>
      </trkpt>
      <trkpt lat="40.013688251780806" lon="-0.47342281080896614">
        <ele>723</ele>
        <time>2022-04-23T11:03:09.000Z</time>
      </trkpt>
      <trkpt lat="40.01368812417061" lon="-0.4734228986929759">
        <ele>723.3</ele>
        <time>2022-04-23T11:03:10.000Z</time>
      </trkpt>
      <trkpt lat="40.0136879965604" lon="-0.4734229865770174">
        <ele>723.3</ele>
        <time>2022-04-23T11:03:11.000Z</time>
      </trkpt>
      <trkpt lat="40.01368786895009" lon="-0.4734230744612494">
        <ele>723.3</ele>
        <time>2022-04-23T11:03:12.000Z</time>
      </trkpt>
      <trkpt lat="40.013687741339865" lon="-0.47342316234548143">
        <ele>723.3</ele>
        <time>2022-04-23T11:03:13.000Z</time>
      </trkpt>
      <trkpt lat="40.01368756628168" lon="-0.4734231743486968">
        <ele>723.3</ele>
        <time>2022-04-23T11:03:14.000Z</time>
      </trkpt>
      <trkpt lat="40.013687387403586" lon="-0.473423224397955">
        <ele>723.3</ele>
        <time>2022-04-23T11:03:15.000Z</time>
      </trkpt>
      <trkpt lat="40.01368722466919" lon="-0.4734232943593563">
        <ele>723.3</ele>
        <time>2022-04-23T11:03:16.000Z</time>
      </trkpt>
      <trkpt lat="40.01368708072438" lon="-0.47342340039450553">
        <ele>723.3</ele>
        <time>2022-04-23T11:03:17.000Z</time>
      </trkpt>
      <trkpt lat="40.01368695409588" lon="-0.47342353419125943">
        <ele>723.3</ele>
        <time>2022-04-23T11:03:18.000Z</time>
      </trkpt>
      <trkpt lat="40.01368683942719" lon="-0.4734236897226586">
        <ele>723.3</ele>
        <time>2022-04-23T11:03:19.000Z</time>
      </trkpt>
      <trkpt lat="40.01368674211574" lon="-0.47342386151783145">
        <ele>723.5</ele>
        <time>2022-04-23T11:03:20.000Z</time>
      </trkpt>
      <trkpt lat="40.01368666196267" lon="-0.4734240456689221">
        <ele>723.5</ele>
        <time>2022-04-23T11:03:21.000Z</time>
      </trkpt>
      <trkpt lat="40.013686598233264" lon="-0.4734242394083487">
        <ele>723.5</ele>
        <time>2022-04-23T11:03:22.000Z</time>
      </trkpt>
      <trkpt lat="40.01368655085985" lon="-0.47342444008355683">
        <ele>723.5</ele>
        <time>2022-04-23T11:03:23.000Z</time>
      </trkpt>
      <trkpt lat="40.01368651945599" lon="-0.47342464574669874">
        <ele>723.5</ele>
        <time>2022-04-23T11:03:24.000Z</time>
      </trkpt>
      <trkpt lat="40.013686550933265" lon="-0.473424930752541">
        <ele>723.4</ele>
        <time>2022-04-23T11:03:25.000Z</time>
      </trkpt>
      <trkpt lat="40.0136866015799" lon="-0.47342517940092416">
        <ele>723.4</ele>
        <time>2022-04-23T11:03:26.000Z</time>
      </trkpt>
      <trkpt lat="40.013686650916945" lon="-0.47342540876703754">
        <ele>723.4</ele>
        <time>2022-04-23T11:03:27.000Z</time>
      </trkpt>
      <trkpt lat="40.01368669950774" lon="-0.47342561317824305">
        <ele>723.4</ele>
        <time>2022-04-23T11:03:28.000Z</time>
      </trkpt>
      <trkpt lat="40.01368675116316" lon="-0.4734258080974399">
        <ele>723.4</ele>
        <time>2022-04-23T11:03:29.000Z</time>
      </trkpt>
      <trkpt lat="40.013686812753605" lon="-0.473426004307434">
        <ele>723.4</ele>
        <time>2022-04-23T11:03:30.000Z</time>
      </trkpt>
      <trkpt lat="40.013686879862234" lon="-0.47342621037604543">
        <ele>723.4</ele>
        <time>2022-04-23T11:03:31.000Z</time>
      </trkpt>
      <trkpt lat="40.01368692244626" lon="-0.4734263922671612">
        <ele>723.4</ele>
        <time>2022-04-23T11:03:32.000Z</time>
      </trkpt>
      <trkpt lat="40.01368694600437" lon="-0.47342655050991417">
        <ele>723.4</ele>
        <time>2022-04-23T11:03:33.000Z</time>
      </trkpt>
      <trkpt lat="40.01368695414337" lon="-0.4734266969454399">
        <ele>723.4</ele>
        <time>2022-04-23T11:03:34.000Z</time>
      </trkpt>
      <trkpt lat="40.01368695038771" lon="-0.47342683251789736">
        <ele>723.3</ele>
        <time>2022-04-23T11:03:35.000Z</time>
      </trkpt>
      <trkpt lat="40.01368693738063" lon="-0.4734269580111121">
        <ele>723.3</ele>
        <time>2022-04-23T11:03:36.000Z</time>
      </trkpt>
      <trkpt lat="40.01368691676028" lon="-0.4734270747502341">
        <ele>723.3</ele>
        <time>2022-04-23T11:03:37.000Z</time>
      </trkpt>
      <trkpt lat="40.01368689020287" lon="-0.4734271835152788">
        <ele>723.3</ele>
        <time>2022-04-23T11:03:38.000Z</time>
      </trkpt>
      <trkpt lat="40.01368679932032" lon="-0.4734273321011177">
        <ele>723.3</ele>
        <time>2022-04-23T11:03:39.000Z</time>
      </trkpt>
      <trkpt lat="40.01368671653413" lon="-0.4734273553585202">
        <ele>723.3</ele>
        <time>2022-04-23T11:03:40.000Z</time>
      </trkpt>
      <trkpt lat="40.01368665692278" lon="-0.4734273704499531">
        <ele>723.3</ele>
        <time>2022-04-23T11:03:41.000Z</time>
      </trkpt>
      <trkpt lat="40.01368661440987" lon="-0.47342738061358536">
        <ele>723.3</ele>
        <time>2022-04-23T11:03:42.000Z</time>
      </trkpt>
      <trkpt lat="40.013686584667724" lon="-0.4734273877115739">
        <ele>723.3</ele>
        <time>2022-04-23T11:03:43.000Z</time>
      </trkpt>
      <trkpt lat="40.013729557965334" lon="-0.47333472576535396">
        <ele>723.5</ele>
        <time>2022-04-23T11:04:40.000Z</time>
      </trkpt>
      <trkpt lat="40.01372973858137" lon="-0.4733355982726501">
        <ele>723.3</ele>
        <time>2022-04-23T11:04:41.000Z</time>
      </trkpt>
      <trkpt lat="40.013732256617885" lon="-0.4733397686030539">
        <ele>723.5</ele>
        <time>2022-04-23T11:04:42.000Z</time>
      </trkpt>
      <trkpt lat="40.01372983506071" lon="-0.47334691010066965">
        <ele>723.6</ele>
        <time>2022-04-23T11:04:43.000Z</time>
      </trkpt>
      <trkpt lat="40.01372706559629" lon="-0.47335429701209153">
        <ele>723.5</ele>
        <time>2022-04-23T11:04:44.000Z</time>
      </trkpt>
      <trkpt lat="40.01372322022999" lon="-0.47335730489010674">
        <ele>722.9</ele>
        <time>2022-04-23T11:04:45.000Z</time>
      </trkpt>
      <trkpt lat="40.013721589749636" lon="-0.4733607110442975">
        <ele>722.4</ele>
        <time>2022-04-23T11:04:46.000Z</time>
      </trkpt>
      <trkpt lat="40.013719439441765" lon="-0.4733640325650677">
        <ele>722.6</ele>
        <time>2022-04-23T11:04:47.000Z</time>
      </trkpt>
      <trkpt lat="40.01371654969259" lon="-0.47336677264527255">
        <ele>722.7</ele>
        <time>2022-04-23T11:04:48.000Z</time>
      </trkpt>
      <trkpt lat="40.013713346537926" lon="-0.4733686603812599">
        <ele>722.9</ele>
        <time>2022-04-23T11:04:49.000Z</time>
      </trkpt>
      <trkpt lat="40.013709964476384" lon="-0.4733695815198171">
        <ele>723</ele>
        <time>2022-04-23T11:04:50.000Z</time>
      </trkpt>
      <trkpt lat="40.01370632436528" lon="-0.4733695640003104">
        <ele>722.9</ele>
        <time>2022-04-23T11:04:51.000Z</time>
      </trkpt>
      <trkpt lat="40.01370256346597" lon="-0.473368872154545">
        <ele>723.2</ele>
        <time>2022-04-23T11:04:52.000Z</time>
      </trkpt>
      <trkpt lat="40.013698395951906" lon="-0.473367987336148">
        <ele>722.7</ele>
        <time>2022-04-23T11:04:53.000Z</time>
      </trkpt>
      <trkpt lat="40.01369384116304" lon="-0.473367567348545">
        <ele>722.7</ele>
        <time>2022-04-23T11:04:54.000Z</time>
      </trkpt>
      <trkpt lat="40.013689762221965" lon="-0.47336756430569404">
        <ele>722.4</ele>
        <time>2022-04-23T11:04:55.000Z</time>
      </trkpt>
      <trkpt lat="40.01368605379952" lon="-0.47336782164656166">
        <ele>722.4</ele>
        <time>2022-04-23T11:04:56.000Z</time>
      </trkpt>
      <trkpt lat="40.013678397911754" lon="-0.47336008790397405">
        <ele>722.4</ele>
        <time>2022-04-23T11:04:57.000Z</time>
      </trkpt>
      <trkpt lat="40.01367172311721" lon="-0.473361310865918">
        <ele>722.4</ele>
        <time>2022-04-23T11:04:58.000Z</time>
      </trkpt>
      <trkpt lat="40.01366613198465" lon="-0.47336856984856923">
        <ele>722.4</ele>
        <time>2022-04-23T11:04:59.000Z</time>
      </trkpt>
      <trkpt lat="40.01367059055543" lon="-0.473372518832137">
        <ele>722.2</ele>
        <time>2022-04-23T11:05:00.000Z</time>
      </trkpt>
      <trkpt lat="40.01367378660716" lon="-0.47337522502798635">
        <ele>722.2</ele>
        <time>2022-04-23T11:05:01.000Z</time>
      </trkpt>
      <trkpt lat="40.013668322606094" lon="-0.4734050730139363">
        <ele>722.9</ele>
        <time>2022-04-23T11:05:53.000Z</time>
      </trkpt>
      <trkpt lat="40.01364144993162" lon="-0.4734249692500667">
        <ele>723.4</ele>
        <time>2022-04-23T11:06:45.000Z</time>
      </trkpt>
      <trkpt lat="40.01371810517128" lon="-0.47356791984184227">
        <ele>726.7</ele>
        <time>2022-04-23T11:07:15.000Z</time>
      </trkpt>
      <trkpt lat="40.01373915418625" lon="-0.4735579323955172">
        <ele>727.3</ele>
        <time>2022-04-23T11:07:38.000Z</time>
      </trkpt>
      <trkpt lat="40.01363041258101" lon="-0.4734619539488207">
        <ele>725.5</ele>
        <time>2022-04-23T11:08:29.000Z</time>
      </trkpt>
      <trkpt lat="40.01352103758401" lon="-0.4734489717104704">
        <ele>726.4</ele>
        <time>2022-04-23T11:09:16.000Z</time>
      </trkpt>
      <trkpt lat="40.013522075383975" lon="-0.47347774858743125">
        <ele>725.4</ele>
        <time>2022-04-23T11:10:07.000Z</time>
      </trkpt>
      <trkpt lat="40.01357516542004" lon="-0.47365806242541986">
        <ele>728.7</ele>
        <time>2022-04-23T11:11:00.000Z</time>
      </trkpt>
      <trkpt lat="40.01375079662266" lon="-0.47377981571771755">
        <ele>732.9</ele>
        <time>2022-04-23T11:11:46.000Z</time>
      </trkpt>
      <trkpt lat="40.01384215306109" lon="-0.4737832208028856">
        <ele>733.6</ele>
        <time>2022-04-23T11:12:23.000Z</time>
      </trkpt>
      <trkpt lat="40.013915574307" lon="-0.47385116418472556">
        <ele>733.7</ele>
        <time>2022-04-23T11:12:36.000Z</time>
      </trkpt>
      <trkpt lat="40.0146117923014" lon="-0.47380732155042793">
        <ele>731.9</ele>
        <time>2022-04-23T11:14:02.000Z</time>
      </trkpt>
      <trkpt lat="40.01500385636354" lon="-0.4739761033268309">
        <ele>729.7</ele>
        <time>2022-04-23T11:15:07.000Z</time>
      </trkpt>
      <trkpt lat="40.01510274747122" lon="-0.47397792586122284">
        <ele>729.6</ele>
        <time>2022-04-23T11:15:24.000Z</time>
      </trkpt>
      <trkpt lat="40.015767165964526" lon="-0.4744179850762519">
        <ele>726.8</ele>
        <time>2022-04-23T11:17:31.000Z</time>
      </trkpt>
      <trkpt lat="40.01604948902602" lon="-0.47454400147362785">
        <ele>720.4</ele>
        <time>2022-04-23T11:18:27.000Z</time>
      </trkpt>
      <trkpt lat="40.016301571359264" lon="-0.4748588966014078">
        <ele>717.6</ele>
        <time>2022-04-23T11:19:06.000Z</time>
      </trkpt>
      <trkpt lat="40.01636653853534" lon="-0.4749840531988841">
        <ele>718.2</ele>
        <time>2022-04-23T11:19:22.000Z</time>
      </trkpt>
      <trkpt lat="40.01647656840774" lon="-0.4750600573317824">
        <ele>718.3</ele>
        <time>2022-04-23T11:19:37.000Z</time>
      </trkpt>
      <trkpt lat="40.01660767428248" lon="-0.4752223167434406">
        <ele>716.1</ele>
        <time>2022-04-23T11:20:23.000Z</time>
      </trkpt>
      <trkpt lat="40.01672226641726" lon="-0.4754987367908774">
        <ele>716.7</ele>
        <time>2022-04-23T11:20:51.000Z</time>
      </trkpt>
      <trkpt lat="40.01677311386896" lon="-0.4758041311480511">
        <ele>713.8</ele>
        <time>2022-04-23T11:21:26.000Z</time>
      </trkpt>
      <trkpt lat="40.016945966425276" lon="-0.47571972548146707">
        <ele>710</ele>
        <time>2022-04-23T11:22:04.000Z</time>
      </trkpt>
      <trkpt lat="40.01696659442586" lon="-0.4757434502854959">
        <ele>709.6</ele>
        <time>2022-04-23T11:22:17.000Z</time>
      </trkpt>
      <trkpt lat="40.017039471601706" lon="-0.47559247112991443">
        <ele>707.2</ele>
        <time>2022-04-23T11:22:44.000Z</time>
      </trkpt>
      <trkpt lat="40.01711540326704" lon="-0.4750294039312282">
        <ele>700.5</ele>
        <time>2022-04-23T11:23:40.000Z</time>
      </trkpt>
      <trkpt lat="40.01718305566481" lon="-0.47488481636806607">
        <ele>698.6</ele>
        <time>2022-04-23T11:23:56.000Z</time>
      </trkpt>
      <trkpt lat="40.017089000545816" lon="-0.4747710461595501">
        <ele>697.9</ele>
        <time>2022-04-23T11:24:21.000Z</time>
      </trkpt>
      <trkpt lat="40.017100542840815" lon="-0.47480113353973263">
        <ele>697.5</ele>
        <time>2022-04-23T11:24:40.000Z</time>
      </trkpt>
      <trkpt lat="40.017672338789765" lon="-0.4745254319415308">
        <ele>685.5</ele>
        <time>2022-04-23T11:29:57.000Z</time>
      </trkpt>
      <trkpt lat="40.01756635634081" lon="-0.47433555988933646">
        <ele>677.7</ele>
        <time>2022-04-23T11:30:18.000Z</time>
      </trkpt>
      <trkpt lat="40.01730642343728" lon="-0.47420816505417723">
        <ele>675.3</ele>
        <time>2022-04-23T11:30:54.000Z</time>
      </trkpt>
      <trkpt lat="40.01720193734688" lon="-0.4740066740228841">
        <ele>675.3</ele>
        <time>2022-04-23T11:31:11.000Z</time>
      </trkpt>
      <trkpt lat="40.01699469660682" lon="-0.47373325225635127">
        <ele>675.3</ele>
        <time>2022-04-23T11:31:44.000Z</time>
      </trkpt>
      <trkpt lat="40.016837722540295" lon="-0.47382072409229875">
        <ele>675.3</ele>
        <time>2022-04-23T11:32:14.000Z</time>
      </trkpt>
      <trkpt lat="40.01695716544814" lon="-0.47383293699806456">
        <ele>675.3</ele>
        <time>2022-04-23T11:32:39.000Z</time>
      </trkpt>
      <trkpt lat="40.017090628747816" lon="-0.4735862377086036">
        <ele>675.3</ele>
        <time>2022-04-23T11:33:04.000Z</time>
      </trkpt>
      <trkpt lat="40.017265370446246" lon="-0.47363543219060084">
        <ele>675.4</ele>
        <time>2022-04-23T11:33:25.000Z</time>
      </trkpt>
      <trkpt lat="40.01757382974043" lon="-0.473807171276324">
        <ele>675.1</ele>
        <time>2022-04-23T11:33:57.000Z</time>
      </trkpt>
      <trkpt lat="40.01775536047834" lon="-0.47405021349458">
        <ele>677.5</ele>
        <time>2022-04-23T11:34:42.000Z</time>
      </trkpt>
      <trkpt lat="40.017939778233774" lon="-0.4740530744008611">
        <ele>676.6</ele>
        <time>2022-04-23T11:35:04.000Z</time>
      </trkpt>
      <trkpt lat="40.01852845707843" lon="-0.4742536229069197">
        <ele>669</ele>
        <time>2022-04-23T11:36:04.000Z</time>
      </trkpt>
      <trkpt lat="40.018762059896595" lon="-0.4745382743212126">
        <ele>665.3</ele>
        <time>2022-04-23T11:36:35.000Z</time>
      </trkpt>
      <trkpt lat="40.01887888629445" lon="-0.47479198621366553">
        <ele>662.9</ele>
        <time>2022-04-23T11:37:01.000Z</time>
      </trkpt>
      <trkpt lat="40.01923101580126" lon="-0.47501053889251127">
        <ele>663.4</ele>
        <time>2022-04-23T11:37:38.000Z</time>
      </trkpt>
      <trkpt lat="40.019844071225" lon="-0.4748508836764189">
        <ele>661.2</ele>
        <time>2022-04-23T11:38:40.000Z</time>
      </trkpt>
      <trkpt lat="40.02012125354608" lon="-0.47489751845661377">
        <ele>655.2</ele>
        <time>2022-04-23T11:39:07.000Z</time>
      </trkpt>
      <trkpt lat="40.02020454315213" lon="-0.4748308366854706">
        <ele>656</ele>
        <time>2022-04-23T11:39:15.000Z</time>
      </trkpt>
      <trkpt lat="40.020487776210956" lon="-0.4744281785841149">
        <ele>652.4</ele>
        <time>2022-04-23T11:39:52.000Z</time>
      </trkpt>
      <trkpt lat="40.02055844310872" lon="-0.4743774489553326">
        <ele>653.3</ele>
        <time>2022-04-23T11:40:00.000Z</time>
      </trkpt>
      <trkpt lat="40.02077583000713" lon="-0.4743444693866843">
        <ele>655.5</ele>
        <time>2022-04-23T11:40:21.000Z</time>
      </trkpt>
      <trkpt lat="40.02117706888594" lon="-0.4744273059112654">
        <ele>651.7</ele>
        <time>2022-04-23T11:41:05.000Z</time>
      </trkpt>
      <trkpt lat="40.02159740122485" lon="-0.47435976362523763">
        <ele>648.6</ele>
        <time>2022-04-23T11:41:48.000Z</time>
      </trkpt>
      <trkpt lat="40.02195957453524" lon="-0.4742362229420273">
        <ele>644.2</ele>
        <time>2022-04-23T11:42:25.000Z</time>
      </trkpt>
      <trkpt lat="40.02220179027236" lon="-0.47408142127267167">
        <ele>641.7</ele>
        <time>2022-04-23T11:42:49.000Z</time>
      </trkpt>
      <trkpt lat="40.02266880896535" lon="-0.4738971692328089">
        <ele>645.7</ele>
        <time>2022-04-23T11:43:41.000Z</time>
      </trkpt>
      <trkpt lat="40.02276107633524" lon="-0.47390327819473477">
        <ele>645.8</ele>
        <time>2022-04-23T11:43:53.000Z</time>
      </trkpt>
      <trkpt lat="40.022750344611666" lon="-0.4740170799490642">
        <ele>646.6</ele>
        <time>2022-04-23T11:44:38.000Z</time>
      </trkpt>
      <trkpt lat="40.02281532356546" lon="-0.4741896466431458">
        <ele>645.9</ele>
        <time>2022-04-23T11:44:53.000Z</time>
      </trkpt>
      <trkpt lat="40.022910731504325" lon="-0.4741936144750474">
        <ele>645.7</ele>
        <time>2022-04-23T11:45:05.000Z</time>
      </trkpt>
      <trkpt lat="40.023014763526696" lon="-0.4740722200925651">
        <ele>646.7</ele>
        <time>2022-04-23T11:45:32.000Z</time>
      </trkpt>
      <trkpt lat="40.02289139113529" lon="-0.47383625009126384">
        <ele>646.4</ele>
        <time>2022-04-23T11:45:56.000Z</time>
      </trkpt>
      <trkpt lat="40.022904397229674" lon="-0.4737350632204823">
        <ele>646.9</ele>
        <time>2022-04-23T11:46:07.000Z</time>
      </trkpt>
      <trkpt lat="40.02300175822909" lon="-0.473729044487199">
        <ele>647.4</ele>
        <time>2022-04-23T11:46:19.000Z</time>
      </trkpt>
      <trkpt lat="40.02306597984778" lon="-0.4736641694205646">
        <ele>647.4</ele>
        <time>2022-04-23T11:46:31.000Z</time>
      </trkpt>
      <trkpt lat="40.023298394949" lon="-0.47365747727256796">
        <ele>646.6</ele>
        <time>2022-04-23T11:47:09.000Z</time>
      </trkpt>
      <trkpt lat="40.0237608562102" lon="-0.4735091343003196">
        <ele>644.8</ele>
        <time>2022-04-23T11:47:58.000Z</time>
      </trkpt>
      <trkpt lat="40.02396045339037" lon="-0.4735040444880015">
        <ele>645.2</ele>
        <time>2022-04-23T11:48:18.000Z</time>
      </trkpt>
      <trkpt lat="40.02404202317468" lon="-0.47345002350114423">
        <ele>645.1</ele>
        <time>2022-04-23T11:48:26.000Z</time>
      </trkpt>
      <trkpt lat="40.02408919891439" lon="-0.47331972900479075">
        <ele>644.9</ele>
        <time>2022-04-23T11:48:36.000Z</time>
      </trkpt>
      <trkpt lat="40.02409331867795" lon="-0.4727757395432819">
        <ele>640.8</ele>
        <time>2022-04-23T11:49:18.000Z</time>
      </trkpt>
      <trkpt lat="40.02415602637342" lon="-0.47268052032729263">
        <ele>639.8</ele>
        <time>2022-04-23T11:49:29.000Z</time>
      </trkpt>
      <trkpt lat="40.024250963253095" lon="-0.4727350674169179">
        <ele>638.5</ele>
        <time>2022-04-23T11:49:39.000Z</time>
      </trkpt>
      <trkpt lat="40.0244424235442" lon="-0.47309574977680474">
        <ele>634.5</ele>
        <time>2022-04-23T11:50:11.000Z</time>
      </trkpt>
      <trkpt lat="40.024746597858716" lon="-0.4730798493123999">
        <ele>636.6</ele>
        <time>2022-04-23T11:50:42.000Z</time>
      </trkpt>
      <trkpt lat="40.02516891530454" lon="-0.4732451302057155">
        <ele>633.8</ele>
        <time>2022-04-23T11:51:29.000Z</time>
      </trkpt>
      <trkpt lat="40.025527607438136" lon="-0.473207795104475">
        <ele>636</ele>
        <time>2022-04-23T11:52:23.000Z</time>
      </trkpt>
      <trkpt lat="40.025688918147665" lon="-0.47335280843619726">
        <ele>635</ele>
        <time>2022-04-23T11:52:42.000Z</time>
      </trkpt>
      <trkpt lat="40.02583957741139" lon="-0.473653616278366">
        <ele>635.9</ele>
        <time>2022-04-23T11:53:10.000Z</time>
      </trkpt>
      <trkpt lat="40.02598325036768" lon="-0.473738572017759">
        <ele>638</ele>
        <time>2022-04-23T11:53:28.000Z</time>
      </trkpt>
      <trkpt lat="40.02604615636717" lon="-0.47373978341887396">
        <ele>638.1</ele>
        <time>2022-04-23T11:53:35.000Z</time>
      </trkpt>
      <trkpt lat="40.02615298576108" lon="-0.4735982974597183">
        <ele>639.4</ele>
        <time>2022-04-23T11:53:50.000Z</time>
      </trkpt>
      <trkpt lat="40.026173353058105" lon="-0.47317676127966224">
        <ele>641.9</ele>
        <time>2022-04-23T11:54:25.000Z</time>
      </trkpt>
      <trkpt lat="40.026318416234155" lon="-0.47292745369187583">
        <ele>643.9</ele>
        <time>2022-04-23T11:54:59.000Z</time>
      </trkpt>
      <trkpt lat="40.02639679288547" lon="-0.47269102228939613">
        <ele>645.2</ele>
        <time>2022-04-23T11:55:23.000Z</time>
      </trkpt>
      <trkpt lat="40.02641861613838" lon="-0.4723980246768949">
        <ele>650.8</ele>
        <time>2022-04-23T11:55:59.000Z</time>
      </trkpt>
      <trkpt lat="40.02635445487743" lon="-0.47219810125199363">
        <ele>653.9</ele>
        <time>2022-04-23T11:56:34.000Z</time>
      </trkpt>
      <trkpt lat="40.02634400487306" lon="-0.47226395147359346">
        <ele>652.4</ele>
        <time>2022-04-23T11:57:01.000Z</time>
      </trkpt>
      <trkpt lat="40.0264184818275" lon="-0.47243033830890335">
        <ele>651.2</ele>
        <time>2022-04-23T11:57:23.000Z</time>
      </trkpt>
      <trkpt lat="40.02638356184399" lon="-0.47270920919092796">
        <ele>644.6</ele>
        <time>2022-04-23T11:57:51.000Z</time>
      </trkpt>
      <trkpt lat="40.026132383706354" lon="-0.47331039512584455">
        <ele>640.9</ele>
        <time>2022-04-23T11:59:05.000Z</time>
      </trkpt>
      <trkpt lat="40.026163598263196" lon="-0.4735987161667891">
        <ele>638.1</ele>
        <time>2022-04-23T11:59:29.000Z</time>
      </trkpt>
      <trkpt lat="40.02605477078945" lon="-0.4738037681843206">
        <ele>636.2</ele>
        <time>2022-04-23T11:59:48.000Z</time>
      </trkpt>
      <trkpt lat="40.02608239704948" lon="-0.4739497940054916">
        <ele>636.1</ele>
        <time>2022-04-23T11:59:58.000Z</time>
      </trkpt>
      <trkpt lat="40.02614992250677" lon="-0.4740509485529115">
        <ele>634.6</ele>
        <time>2022-04-23T12:00:08.000Z</time>
      </trkpt>
      <trkpt lat="40.02629710821311" lon="-0.47410955933671933">
        <ele>633.4</ele>
        <time>2022-04-23T12:00:23.000Z</time>
      </trkpt>
      <trkpt lat="40.026739792408165" lon="-0.4741860667265104">
        <ele>633</ele>
        <time>2022-04-23T12:01:05.000Z</time>
      </trkpt>
      <trkpt lat="40.02684554049238" lon="-0.4740823686678625">
        <ele>631.7</ele>
        <time>2022-04-23T12:01:18.000Z</time>
      </trkpt>
      <trkpt lat="40.02699632166676" lon="-0.4737237232630618">
        <ele>625.6</ele>
        <time>2022-04-23T12:01:57.000Z</time>
      </trkpt>
      <trkpt lat="40.027046766982615" lon="-0.47367770915887547">
        <ele>625.2</ele>
        <time>2022-04-23T12:02:04.000Z</time>
      </trkpt>
      <trkpt lat="40.027100834359764" lon="-0.4736829215587593">
        <ele>624.5</ele>
        <time>2022-04-23T12:02:10.000Z</time>
      </trkpt>
      <trkpt lat="40.02714719850715" lon="-0.4737528418273477">
        <ele>624</ele>
        <time>2022-04-23T12:02:17.000Z</time>
      </trkpt>
      <trkpt lat="40.027186570221716" lon="-0.47402801128338273">
        <ele>622.9</ele>
        <time>2022-04-23T12:02:36.000Z</time>
      </trkpt>
      <trkpt lat="40.02738847035014" lon="-0.4744272649526328">
        <ele>624.5</ele>
        <time>2022-04-23T12:03:13.000Z</time>
      </trkpt>
      <trkpt lat="40.02746567654337" lon="-0.4745130302506201">
        <ele>623.5</ele>
        <time>2022-04-23T12:03:25.000Z</time>
      </trkpt>
      <trkpt lat="40.02778998072822" lon="-0.4746348275964877">
        <ele>624</ele>
        <time>2022-04-23T12:04:06.000Z</time>
      </trkpt>
      <trkpt lat="40.02814411341313" lon="-0.47451401875062865">
        <ele>623.9</ele>
        <time>2022-04-23T12:04:42.000Z</time>
      </trkpt>
      <trkpt lat="40.028559432095285" lon="-0.47455261037579777">
        <ele>626.3</ele>
        <time>2022-04-23T12:05:25.000Z</time>
      </trkpt>
      <trkpt lat="40.02872625327367" lon="-0.47466755390333">
        <ele>628</ele>
        <time>2022-04-23T12:05:44.000Z</time>
      </trkpt>
      <trkpt lat="40.028862300364686" lon="-0.4748234556223736">
        <ele>627.9</ele>
        <time>2022-04-23T12:06:03.000Z</time>
      </trkpt>
      <trkpt lat="40.02914686446828" lon="-0.4750007724170027">
        <ele>632.2</ele>
        <time>2022-04-23T12:06:36.000Z</time>
      </trkpt>
      <trkpt lat="40.02932659494209" lon="-0.4752242822638905">
        <ele>634.1</ele>
        <time>2022-04-23T12:07:03.000Z</time>
      </trkpt>
      <trkpt lat="40.029768376074465" lon="-0.47555817149207674">
        <ele>636.5</ele>
        <time>2022-04-23T12:07:59.000Z</time>
      </trkpt>
      <trkpt lat="40.030087784191494" lon="-0.475609062070119">
        <ele>633.2</ele>
        <time>2022-04-23T12:08:30.000Z</time>
      </trkpt>
      <trkpt lat="40.030241115405175" lon="-0.475876701870461">
        <ele>632.3</ele>
        <time>2022-04-23T12:08:54.000Z</time>
      </trkpt>
      <trkpt lat="40.030351567208974" lon="-0.47589578339738187">
        <ele>632</ele>
        <time>2022-04-23T12:09:05.000Z</time>
      </trkpt>
      <trkpt lat="40.0306264925021" lon="-0.4757899596711285">
        <ele>632.2</ele>
        <time>2022-04-23T12:09:32.000Z</time>
      </trkpt>
      <trkpt lat="40.03076752580378" lon="-0.47578885522309966">
        <ele>630.5</ele>
        <time>2022-04-23T12:09:47.000Z</time>
      </trkpt>
      <trkpt lat="40.03094935577537" lon="-0.47586806783104585">
        <ele>628.2</ele>
        <time>2022-04-23T12:10:05.000Z</time>
      </trkpt>
      <trkpt lat="40.03116593227667" lon="-0.47606994538399294">
        <ele>627.1</ele>
        <time>2022-04-23T12:10:29.000Z</time>
      </trkpt>
      <trkpt lat="40.03146017127088" lon="-0.47621104394038627">
        <ele>627.2</ele>
        <time>2022-04-23T12:10:59.000Z</time>
      </trkpt>
      <trkpt lat="40.03159458551603" lon="-0.4764919539693814">
        <ele>625.7</ele>
        <time>2022-04-23T12:11:23.000Z</time>
      </trkpt>
      <trkpt lat="40.03177508084477" lon="-0.47661910209962843">
        <ele>622.8</ele>
        <time>2022-04-23T12:11:43.000Z</time>
      </trkpt>
      <trkpt lat="40.031923580751" lon="-0.47696078348351406">
        <ele>620.8</ele>
        <time>2022-04-23T12:12:10.000Z</time>
      </trkpt>
      <trkpt lat="40.03236006358788" lon="-0.4774416493821418">
        <ele>618.8</ele>
        <time>2022-04-23T12:13:04.000Z</time>
      </trkpt>
      <trkpt lat="40.03246794600504" lon="-0.47766857876378865">
        <ele>619.9</ele>
        <time>2022-04-23T12:13:23.000Z</time>
      </trkpt>
      <trkpt lat="40.032648771632985" lon="-0.477805525376669">
        <ele>618</ele>
        <time>2022-04-23T12:13:43.000Z</time>
      </trkpt>
      <trkpt lat="40.03285530078867" lon="-0.4778836693223348">
        <ele>614.9</ele>
        <time>2022-04-23T12:14:03.000Z</time>
      </trkpt>
      <trkpt lat="40.03311930569052" lon="-0.47762129637611006">
        <ele>609.1</ele>
        <time>2022-04-23T12:14:32.000Z</time>
      </trkpt>
      <trkpt lat="40.03337140742092" lon="-0.4775505255953487">
        <ele>603.9</ele>
        <time>2022-04-23T12:14:58.000Z</time>
      </trkpt>
      <trkpt lat="40.03355742480948" lon="-0.47758077595031073">
        <ele>601.8</ele>
        <time>2022-04-23T12:15:16.000Z</time>
      </trkpt>
      <trkpt lat="40.033762011561834" lon="-0.4776772030153705">
        <ele>601.5</ele>
        <time>2022-04-23T12:15:37.000Z</time>
      </trkpt>
      <trkpt lat="40.034024601343894" lon="-0.4775018782764624">
        <ele>601.7</ele>
        <time>2022-04-23T12:16:05.000Z</time>
      </trkpt>
      <trkpt lat="40.034173685629476" lon="-0.4775282306675471">
        <ele>602.3</ele>
        <time>2022-04-23T12:16:48.000Z</time>
      </trkpt>
      <trkpt lat="40.03464543620399" lon="-0.47779822801056465">
        <ele>605.3</ele>
        <time>2022-04-23T12:18:00.000Z</time>
      </trkpt>
      <trkpt lat="40.03472478609879" lon="-0.47801794060501235">
        <ele>605.5</ele>
        <time>2022-04-23T12:18:18.000Z</time>
      </trkpt>
      <trkpt lat="40.03476287645663" lon="-0.4782722286060059">
        <ele>606.2</ele>
        <time>2022-04-23T12:18:37.000Z</time>
      </trkpt>
      <trkpt lat="40.034862334787505" lon="-0.4785142191540059">
        <ele>608.8</ele>
        <time>2022-04-23T12:18:59.000Z</time>
      </trkpt>
      <trkpt lat="40.03502878486792" lon="-0.4786290478655413">
        <ele>611.4</ele>
        <time>2022-04-23T12:19:20.000Z</time>
      </trkpt>
      <trkpt lat="40.03529971113787" lon="-0.4787020571660015">
        <ele>613.3</ele>
        <time>2022-04-23T12:19:50.000Z</time>
      </trkpt>
      <trkpt lat="40.03535280955436" lon="-0.4786360182334745">
        <ele>614.6</ele>
        <time>2022-04-23T12:20:01.000Z</time>
      </trkpt>
      <trkpt lat="40.03551399944883" lon="-0.4781577734254961">
        <ele>618.5</ele>
        <time>2022-04-23T12:20:46.000Z</time>
      </trkpt>
      <trkpt lat="40.03559102995351" lon="-0.47776173269291994">
        <ele>621.5</ele>
        <time>2022-04-23T12:21:19.000Z</time>
      </trkpt>
      <trkpt lat="40.03556734128824" lon="-0.4776047795215982">
        <ele>622.2</ele>
        <time>2022-04-23T12:21:31.000Z</time>
      </trkpt>
      <trkpt lat="40.03531020212777" lon="-0.47710148896573323">
        <ele>626</ele>
        <time>2022-04-23T12:22:31.000Z</time>
      </trkpt>
      <trkpt lat="40.03505243508754" lon="-0.4767488433878052">
        <ele>629.6</ele>
        <time>2022-04-23T12:23:13.000Z</time>
      </trkpt>
      <trkpt lat="40.03483338240048" lon="-0.4765830147167541">
        <ele>631</ele>
        <time>2022-04-23T12:23:40.000Z</time>
      </trkpt>
      <trkpt lat="40.03436445275293" lon="-0.47644093363751544">
        <ele>641.3</ele>
        <time>2022-04-23T12:25:27.000Z</time>
      </trkpt>
      <trkpt lat="40.03421004453726" lon="-0.4762718794039575">
        <ele>642.4</ele>
        <time>2022-04-23T12:25:49.000Z</time>
      </trkpt>
      <trkpt lat="40.033991528994136" lon="-0.4762280672583543">
        <ele>645.3</ele>
        <time>2022-04-23T12:26:14.000Z</time>
      </trkpt>
      <trkpt lat="40.033877394173736" lon="-0.4761359217524308">
        <ele>647.1</ele>
        <time>2022-04-23T12:26:26.000Z</time>
      </trkpt>
      <trkpt lat="40.033815793086404" lon="-0.47604999680464294">
        <ele>647.6</ele>
        <time>2022-04-23T12:26:39.000Z</time>
      </trkpt>
      <trkpt lat="40.033762318629314" lon="-0.47585155764266623">
        <ele>650.7</ele>
        <time>2022-04-23T12:27:04.000Z</time>
      </trkpt>
      <trkpt lat="40.03374896926278" lon="-0.47553517645780946">
        <ele>653.1</ele>
        <time>2022-04-23T12:27:31.000Z</time>
      </trkpt>
      <trkpt lat="40.03381979103886" lon="-0.4753570259292179">
        <ele>653</ele>
        <time>2022-04-23T12:27:49.000Z</time>
      </trkpt>
      <trkpt lat="40.034123083044896" lon="-0.47517392833387595">
        <ele>654.6</ele>
        <time>2022-04-23T12:28:24.000Z</time>
      </trkpt>
      <trkpt lat="40.03427633495192" lon="-0.47518424718941915">
        <ele>657.6</ele>
        <time>2022-04-23T12:28:42.000Z</time>
      </trkpt>
      <trkpt lat="40.03453646625216" lon="-0.47510649632605645">
        <ele>661.4</ele>
        <time>2022-04-23T12:29:10.000Z</time>
      </trkpt>
      <trkpt lat="40.03543523326107" lon="-0.474783144171689">
        <ele>668.5</ele>
        <time>2022-04-23T12:30:50.000Z</time>
      </trkpt>
      <trkpt lat="40.03552031609423" lon="-0.4747228859098042">
        <ele>667.7</ele>
        <time>2022-04-23T12:30:58.000Z</time>
      </trkpt>
      <trkpt lat="40.03599024189328" lon="-0.4741780416578394">
        <ele>669</ele>
        <time>2022-04-23T12:31:57.000Z</time>
      </trkpt>
      <trkpt lat="40.03625132497465" lon="-0.4736556469267639">
        <ele>670.2</ele>
        <time>2022-04-23T12:32:49.000Z</time>
      </trkpt>
      <trkpt lat="40.036326870826116" lon="-0.4735863762114811">
        <ele>670.8</ele>
        <time>2022-04-23T12:33:05.000Z</time>
      </trkpt>
      <trkpt lat="40.03643425224487" lon="-0.4733699219783278">
        <ele>671.9</ele>
        <time>2022-04-23T12:33:28.000Z</time>
      </trkpt>
      <trkpt lat="40.036782827339145" lon="-0.4731641221787282">
        <ele>676.3</ele>
        <time>2022-04-23T12:34:18.000Z</time>
      </trkpt>
      <trkpt lat="40.036781179627944" lon="-0.4731300454881638">
        <ele>676</ele>
        <time>2022-04-23T12:34:30.000Z</time>
      </trkpt>
      <trkpt lat="40.03690911454941" lon="-0.4729782097932642">
        <ele>676</ele>
        <time>2022-04-23T12:34:43.000Z</time>
      </trkpt>
      <trkpt lat="40.037122748792" lon="-0.47207978048698446">
        <ele>683</ele>
        <time>2022-04-23T12:35:59.000Z</time>
      </trkpt>
      <trkpt lat="40.03738968091296" lon="-0.47179395005971325">
        <ele>686.1</ele>
        <time>2022-04-23T12:36:41.000Z</time>
      </trkpt>
      <trkpt lat="40.03764326362379" lon="-0.4714330642812389">
        <ele>688.2</ele>
        <time>2022-04-23T12:37:17.000Z</time>
      </trkpt>
      <trkpt lat="40.037801802521685" lon="-0.4710646529243688">
        <ele>686.9</ele>
        <time>2022-04-23T12:38:00.000Z</time>
      </trkpt>
      <trkpt lat="40.03784177476327" lon="-0.47089068942316425">
        <ele>688.3</ele>
        <time>2022-04-23T12:38:29.000Z</time>
      </trkpt>
      <trkpt lat="40.03774594085921" lon="-0.47043270478813265">
        <ele>689.9</ele>
        <time>2022-04-23T12:39:09.000Z</time>
      </trkpt>
      <trkpt lat="40.03774399742254" lon="-0.4702230204818856">
        <ele>688.6</ele>
        <time>2022-04-23T12:39:25.000Z</time>
      </trkpt>
      <trkpt lat="40.03768006991082" lon="-0.47007713246152155">
        <ele>689.4</ele>
        <time>2022-04-23T12:39:36.000Z</time>
      </trkpt>
      <trkpt lat="40.037291315843824" lon="-0.46958967583701045">
        <ele>689.6</ele>
        <time>2022-04-23T12:40:33.000Z</time>
      </trkpt>
      <trkpt lat="40.037251544863146" lon="-0.46945967706399666">
        <ele>689.8</ele>
        <time>2022-04-23T12:40:45.000Z</time>
      </trkpt>
      <trkpt lat="40.037317784761846" lon="-0.46924824444295543">
        <ele>691.5</ele>
        <time>2022-04-23T12:41:03.000Z</time>
      </trkpt>
      <trkpt lat="40.03757357532302" lon="-0.4689455686068491">
        <ele>692.6</ele>
        <time>2022-04-23T12:41:40.000Z</time>
      </trkpt>
      <trkpt lat="40.03765487581325" lon="-0.4686780060983484">
        <ele>694.2</ele>
        <time>2022-04-23T12:42:02.000Z</time>
      </trkpt>
      <trkpt lat="40.03805776112088" lon="-0.46842700539104976">
        <ele>697.7</ele>
        <time>2022-04-23T12:42:47.000Z</time>
      </trkpt>
      <trkpt lat="40.038136026369365" lon="-0.4683118947097885">
        <ele>698.2</ele>
        <time>2022-04-23T12:42:59.000Z</time>
      </trkpt>
      <trkpt lat="40.03818892272192" lon="-0.46815152287798745">
        <ele>699.2</ele>
        <time>2022-04-23T12:43:12.000Z</time>
      </trkpt>
      <trkpt lat="40.03820912651275" lon="-0.46784987587365523">
        <ele>701.2</ele>
        <time>2022-04-23T12:43:39.000Z</time>
      </trkpt>
      <trkpt lat="40.03808933652929" lon="-0.4674221779679039">
        <ele>705.9</ele>
        <time>2022-04-23T12:44:20.000Z</time>
      </trkpt>
      <trkpt lat="40.03811120777706" lon="-0.4671524907681235">
        <ele>711.1</ele>
        <time>2022-04-23T12:44:45.000Z</time>
      </trkpt>
      <trkpt lat="40.03807283593657" lon="-0.4668405516409813">
        <ele>714.9</ele>
        <time>2022-04-23T12:45:11.000Z</time>
      </trkpt>
      <trkpt lat="40.03807415348552" lon="-0.4665570427440707">
        <ele>716.3</ele>
        <time>2022-04-23T12:45:35.000Z</time>
      </trkpt>
      <trkpt lat="40.037966710043854" lon="-0.46584887781662104">
        <ele>718</ele>
        <time>2022-04-23T12:46:29.000Z</time>
      </trkpt>
      <trkpt lat="40.0379564581692" lon="-0.46553322253675194">
        <ele>719.9</ele>
        <time>2022-04-23T12:46:54.000Z</time>
      </trkpt>
      <trkpt lat="40.0379017475739" lon="-0.4653674011324814">
        <ele>720.9</ele>
        <time>2022-04-23T12:47:15.000Z</time>
      </trkpt>
      <trkpt lat="40.038324129448604" lon="-0.4654416912748074">
        <ele>720.7</ele>
        <time>2022-04-23T12:48:07.000Z</time>
      </trkpt>
      <trkpt lat="40.03833502668282" lon="-0.46546600019390394">
        <ele>720.9</ele>
        <time>2022-04-23T12:48:13.000Z</time>
      </trkpt>
      <trkpt lat="40.03831204988517" lon="-0.4654674889835661">
        <ele>720.3</ele>
        <time>2022-04-23T12:48:25.000Z</time>
      </trkpt>
      <trkpt lat="40.03850907236255" lon="-0.4658821825012219">
        <ele>715.1</ele>
        <time>2022-04-23T12:49:01.000Z</time>
      </trkpt>
      <trkpt lat="40.03872713478695" lon="-0.4660976913254587">
        <ele>714.7</ele>
        <time>2022-04-23T12:49:26.000Z</time>
      </trkpt>
      <trkpt lat="40.03883896983848" lon="-0.46631253403518935">
        <ele>713.8</ele>
        <time>2022-04-23T12:49:44.000Z</time>
      </trkpt>
      <trkpt lat="40.03940092162633" lon="-0.46681371121357745">
        <ele>715.8</ele>
        <time>2022-04-23T12:51:00.000Z</time>
      </trkpt>
      <trkpt lat="40.03940690359014" lon="-0.46692857671188503">
        <ele>715.6</ele>
        <time>2022-04-23T12:51:58.000Z</time>
      </trkpt>
      <trkpt lat="40.03957027308582" lon="-0.46736628158802007">
        <ele>713.5</ele>
        <time>2022-04-23T12:52:42.000Z</time>
      </trkpt>
      <trkpt lat="40.039703042508194" lon="-0.46745306445065893">
        <ele>714.7</ele>
        <time>2022-04-23T12:53:02.000Z</time>
      </trkpt>
      <trkpt lat="40.0397426773167" lon="-0.4675889117428589">
        <ele>714.3</ele>
        <time>2022-04-23T12:53:17.000Z</time>
      </trkpt>
      <trkpt lat="40.039970861226635" lon="-0.46801066099435096">
        <ele>715.1</ele>
        <time>2022-04-23T12:54:08.000Z</time>
      </trkpt>
      <trkpt lat="40.04026728452818" lon="-0.4683874709650068">
        <ele>716.5</ele>
        <time>2022-04-23T12:54:56.000Z</time>
      </trkpt>
      <trkpt lat="40.04036201643061" lon="-0.46860331466772537">
        <ele>714.1</ele>
        <time>2022-04-23T12:55:36.000Z</time>
      </trkpt>
      <trkpt lat="40.04044853315821" lon="-0.4686991537541674">
        <ele>712.3</ele>
        <time>2022-04-23T12:55:50.000Z</time>
      </trkpt>
      <trkpt lat="40.04056950416363" lon="-0.46892072958002606">
        <ele>709.9</ele>
        <time>2022-04-23T12:56:16.000Z</time>
      </trkpt>
      <trkpt lat="40.04090887597271" lon="-0.4692461827141637">
        <ele>704.4</ele>
        <time>2022-04-23T12:57:11.000Z</time>
      </trkpt>
      <trkpt lat="40.041095926564054" lon="-0.46958099748570276">
        <ele>700.4</ele>
        <time>2022-04-23T12:57:52.000Z</time>
      </trkpt>
      <trkpt lat="40.041181067713154" lon="-0.4695999879608175">
        <ele>698.2</ele>
        <time>2022-04-23T12:58:06.000Z</time>
      </trkpt>
      <trkpt lat="40.04125617638194" lon="-0.4695305665489981">
        <ele>696.1</ele>
        <time>2022-04-23T12:58:21.000Z</time>
      </trkpt>
      <trkpt lat="40.04124402694897" lon="-0.46961930290739134">
        <ele>694</ele>
        <time>2022-04-23T12:58:37.000Z</time>
      </trkpt>
      <trkpt lat="40.04154127123015" lon="-0.4693687613774537">
        <ele>685.9</ele>
        <time>2022-04-23T12:59:28.000Z</time>
      </trkpt>
      <trkpt lat="40.04165794456116" lon="-0.46935268285237536">
        <ele>682.2</ele>
        <time>2022-04-23T12:59:51.000Z</time>
      </trkpt>
      <trkpt lat="40.04175127683161" lon="-0.46929332818627745">
        <ele>679.5</ele>
        <time>2022-04-23T13:00:07.000Z</time>
      </trkpt>
      <trkpt lat="40.04197522018786" lon="-0.46928930096113314">
        <ele>673.4</ele>
        <time>2022-04-23T13:00:46.000Z</time>
      </trkpt>
      <trkpt lat="40.04207393639754" lon="-0.46912774507030763">
        <ele>669.9</ele>
        <time>2022-04-23T13:01:07.000Z</time>
      </trkpt>
      <trkpt lat="40.04216371284088" lon="-0.4690798784565546">
        <ele>668.1</ele>
        <time>2022-04-23T13:01:22.000Z</time>
      </trkpt>
      <trkpt lat="40.04219133217869" lon="-0.4689941966569327">
        <ele>665.9</ele>
        <time>2022-04-23T13:01:31.000Z</time>
      </trkpt>
      <trkpt lat="40.04224409837905" lon="-0.468298122284649">
        <ele>657.9</ele>
        <time>2022-04-23T13:02:38.000Z</time>
      </trkpt>
      <trkpt lat="40.04229046010294" lon="-0.46811078626137514">
        <ele>656.8</ele>
        <time>2022-04-23T13:02:57.000Z</time>
      </trkpt>
      <trkpt lat="40.042256534856314" lon="-0.4678778540251116">
        <ele>653.5</ele>
        <time>2022-04-23T13:03:28.000Z</time>
      </trkpt>
      <trkpt lat="40.042326469323704" lon="-0.4674662264799823">
        <ele>649.8</ele>
        <time>2022-04-23T13:04:14.000Z</time>
      </trkpt>
      <trkpt lat="40.04229840446365" lon="-0.4671269437404335">
        <ele>647.4</ele>
        <time>2022-04-23T13:04:54.000Z</time>
      </trkpt>
      <trkpt lat="40.04238331972761" lon="-0.46690442677847793">
        <ele>645.4</ele>
        <time>2022-04-23T13:05:29.000Z</time>
      </trkpt>
      <trkpt lat="40.04258533057029" lon="-0.4665834909502762">
        <ele>641.5</ele>
        <time>2022-04-23T13:06:06.000Z</time>
      </trkpt>
      <trkpt lat="40.04276125664596" lon="-0.466541680043642">
        <ele>645.6</ele>
        <time>2022-04-23T13:06:30.000Z</time>
      </trkpt>
      <trkpt lat="40.04284679277213" lon="-0.4663924374674588">
        <ele>645.2</ele>
        <time>2022-04-23T13:07:22.000Z</time>
      </trkpt>
      <trkpt lat="40.042872460026736" lon="-0.4664090400961497">
        <ele>643.7</ele>
        <time>2022-04-23T13:07:41.000Z</time>
      </trkpt>
      <trkpt lat="40.04284314447863" lon="-0.466360343469947">
        <ele>642.5</ele>
        <time>2022-04-23T13:10:39.000Z</time>
      </trkpt>
      <trkpt lat="40.042835753389724" lon="-0.46644491061762533">
        <ele>643.4</ele>
        <time>2022-04-23T13:11:29.000Z</time>
      </trkpt>
      <trkpt lat="40.042837624112025" lon="-0.4664118818237509">
        <ele>645.4</ele>
        <time>2022-04-23T13:12:44.000Z</time>
      </trkpt>
      <trkpt lat="40.04282493569251" lon="-0.46643571861059735">
        <ele>642</ele>
        <time>2022-04-23T13:14:28.000Z</time>
      </trkpt>
      <trkpt lat="40.04280657708273" lon="-0.46640784394645335">
        <ele>646</ele>
        <time>2022-04-23T13:15:41.000Z</time>
      </trkpt>
      <trkpt lat="40.0428167728887" lon="-0.46645740711564637">
        <ele>643.7</ele>
        <time>2022-04-23T13:16:30.000Z</time>
      </trkpt>
      <trkpt lat="40.0428321495864" lon="-0.4663675083989848">
        <ele>640.4</ele>
        <time>2022-04-23T13:23:06.000Z</time>
      </trkpt>
      <trkpt lat="40.042816270125506" lon="-0.46642508238693486">
        <ele>641.5</ele>
        <time>2022-04-23T13:23:53.000Z</time>
      </trkpt>
      <trkpt lat="40.04279158521535" lon="-0.4664158875827709">
        <ele>642.3</ele>
        <time>2022-04-23T13:24:19.000Z</time>
      </trkpt>
      <trkpt lat="40.04282519385625" lon="-0.466438394542838">
        <ele>643.6</ele>
        <time>2022-04-23T13:24:54.000Z</time>
      </trkpt>
      <trkpt lat="40.04284051292903" lon="-0.46640591463812553">
        <ele>640.3</ele>
        <time>2022-04-23T13:29:51.000Z</time>
      </trkpt>
      <trkpt lat="40.04281062514348" lon="-0.4664168302501441">
        <ele>645.4</ele>
        <time>2022-04-23T13:31:06.000Z</time>
      </trkpt>
      <trkpt lat="40.04319158930517" lon="-0.46626037552036376">
        <ele>640.3</ele>
        <time>2022-04-23T13:32:45.000Z</time>
      </trkpt>
      <trkpt lat="40.043409474701114" lon="-0.46595944290429275">
        <ele>642.2</ele>
        <time>2022-04-23T13:33:14.000Z</time>
      </trkpt>
      <trkpt lat="40.04366441091345" lon="-0.46569245608663096">
        <ele>644</ele>
        <time>2022-04-23T13:33:52.000Z</time>
      </trkpt>
      <trkpt lat="40.043846871727865" lon="-0.4655277116067377">
        <ele>644.6</ele>
        <time>2022-04-23T13:34:15.000Z</time>
      </trkpt>
      <trkpt lat="40.04399529069026" lon="-0.46546471524984623">
        <ele>644.6</ele>
        <time>2022-04-23T13:34:30.000Z</time>
      </trkpt>
      <trkpt lat="40.04410764407998" lon="-0.46496423466084663">
        <ele>642.7</ele>
        <time>2022-04-23T13:35:14.000Z</time>
      </trkpt>
      <trkpt lat="40.04410357540512" lon="-0.4645176033624681">
        <ele>637.7</ele>
        <time>2022-04-23T13:35:47.000Z</time>
      </trkpt>
      <trkpt lat="40.04417341493015" lon="-0.46423342324289346">
        <ele>633.2</ele>
        <time>2022-04-23T13:36:11.000Z</time>
      </trkpt>
      <trkpt lat="40.04420571347967" lon="-0.46393683583780043">
        <ele>631.4</ele>
        <time>2022-04-23T13:36:37.000Z</time>
      </trkpt>
      <trkpt lat="40.04455907058397" lon="-0.46352203137108366">
        <ele>628</ele>
        <time>2022-04-23T13:37:25.000Z</time>
      </trkpt>
      <trkpt lat="40.044922266614236" lon="-0.463332513948382">
        <ele>624.1</ele>
        <time>2022-04-23T13:38:00.000Z</time>
      </trkpt>
      <trkpt lat="40.04514056990931" lon="-0.46327370343811825">
        <ele>623.2</ele>
        <time>2022-04-23T13:38:19.000Z</time>
      </trkpt>
      <trkpt lat="40.04526188102455" lon="-0.4630005534533131">
        <ele>621.9</ele>
        <time>2022-04-23T13:38:38.000Z</time>
      </trkpt>
      <trkpt lat="40.04561160316311" lon="-0.46259116385187976">
        <ele>615.5</ele>
        <time>2022-04-23T13:39:21.000Z</time>
      </trkpt>
      <trkpt lat="40.04574246095863" lon="-0.46208686419920186">
        <ele>616</ele>
        <time>2022-04-23T13:40:34.000Z</time>
      </trkpt>
      <trkpt lat="40.046073529297296" lon="-0.46150854301089533">
        <ele>609.5</ele>
        <time>2022-04-23T13:41:29.000Z</time>
      </trkpt>
      <trkpt lat="40.046870058631434" lon="-0.46121932619688216">
        <ele>595.5</ele>
        <time>2022-04-23T13:42:42.000Z</time>
      </trkpt>
      <trkpt lat="40.046988306517285" lon="-0.4612326457337792">
        <ele>594.5</ele>
        <time>2022-04-23T13:42:54.000Z</time>
      </trkpt>
      <trkpt lat="40.04727225942415" lon="-0.46134982867198887">
        <ele>592.4</ele>
        <time>2022-04-23T13:43:22.000Z</time>
      </trkpt>
      <trkpt lat="40.04804296785169" lon="-0.46094659921895115">
        <ele>585.5</ele>
        <time>2022-04-23T13:44:34.000Z</time>
      </trkpt>
      <trkpt lat="40.04834023937355" lon="-0.4609887692525321">
        <ele>578.9</ele>
        <time>2022-04-23T13:45:02.000Z</time>
      </trkpt>
      <trkpt lat="40.048451914218134" lon="-0.4609543711551027">
        <ele>576.4</ele>
        <time>2022-04-23T13:45:14.000Z</time>
      </trkpt>
      <trkpt lat="40.04856252548186" lon="-0.4607795911091093">
        <ele>574.4</ele>
        <time>2022-04-23T13:45:30.000Z</time>
      </trkpt>
      <trkpt lat="40.04881470604583" lon="-0.4605566361240603">
        <ele>568.8</ele>
        <time>2022-04-23T13:45:55.000Z</time>
      </trkpt>
      <trkpt lat="40.04897776887248" lon="-0.4602918219490505">
        <ele>565.9</ele>
        <time>2022-04-23T13:46:20.000Z</time>
      </trkpt>
      <trkpt lat="40.04910460550865" lon="-0.4602419170580801">
        <ele>563.6</ele>
        <time>2022-04-23T13:46:32.000Z</time>
      </trkpt>
      <trkpt lat="40.049381941002395" lon="-0.4602597622855323">
        <ele>555.9</ele>
        <time>2022-04-23T13:46:57.000Z</time>
      </trkpt>
      <trkpt lat="40.04965457531636" lon="-0.46014116918346565">
        <ele>553.2</ele>
        <time>2022-04-23T13:47:24.000Z</time>
      </trkpt>
      <trkpt lat="40.04980244965856" lon="-0.4599549323204776">
        <ele>551.9</ele>
        <time>2022-04-23T13:47:43.000Z</time>
      </trkpt>
      <trkpt lat="40.049888139804" lon="-0.4597612544655497">
        <ele>546.7</ele>
        <time>2022-04-23T13:48:10.000Z</time>
      </trkpt>
      <trkpt lat="40.05024822723695" lon="-0.4593694452711487">
        <ele>535.9</ele>
        <time>2022-04-23T13:48:59.000Z</time>
      </trkpt>
      <trkpt lat="40.05035049075797" lon="-0.4592872483564195">
        <ele>532.8</ele>
        <time>2022-04-23T13:49:12.000Z</time>
      </trkpt>
      <trkpt lat="40.05037373953891" lon="-0.4593101568514228">
        <ele>531</ele>
        <time>2022-04-23T13:49:21.000Z</time>
      </trkpt>
      <trkpt lat="40.05031575020424" lon="-0.4593446231867841">
        <ele>531.7</ele>
        <time>2022-04-23T13:49:35.000Z</time>
      </trkpt>
      <trkpt lat="40.05031809554021" lon="-0.45926880277827836">
        <ele>532.6</ele>
        <time>2022-04-23T13:50:02.000Z</time>
      </trkpt>
      <trkpt lat="40.05045654924624" lon="-0.45911758895248217">
        <ele>530.2</ele>
        <time>2022-04-23T13:50:17.000Z</time>
      </trkpt>
      <trkpt lat="40.0506711774429" lon="-0.4586802502260543">
        <ele>520.4</ele>
        <time>2022-04-23T13:50:55.000Z</time>
      </trkpt>
      <trkpt lat="40.05099960894067" lon="-0.45837779642417725">
        <ele>514.1</ele>
        <time>2022-04-23T13:51:29.000Z</time>
      </trkpt>
      <trkpt lat="40.051275662181304" lon="-0.4582124217638937">
        <ele>504.8</ele>
        <time>2022-04-23T13:51:57.000Z</time>
      </trkpt>
      <trkpt lat="40.051699381151494" lon="-0.4580524807034259">
        <ele>494.9</ele>
        <time>2022-04-23T13:52:41.000Z</time>
      </trkpt>
      <trkpt lat="40.05189982812066" lon="-0.4579239955731634">
        <ele>493.3</ele>
        <time>2022-04-23T13:53:00.000Z</time>
      </trkpt>
      <trkpt lat="40.05210651793149" lon="-0.45791758387464143">
        <ele>491.2</ele>
        <time>2022-04-23T13:53:20.000Z</time>
      </trkpt>
      <trkpt lat="40.05242999740637" lon="-0.4580174069919263">
        <ele>486.1</ele>
        <time>2022-04-23T13:53:48.000Z</time>
      </trkpt>
      <trkpt lat="40.052749051743454" lon="-0.4581883564765727">
        <ele>482.1</ele>
        <time>2022-04-23T13:54:18.000Z</time>
      </trkpt>
      <trkpt lat="40.05311749145094" lon="-0.45846843584771785">
        <ele>475.5</ele>
        <time>2022-04-23T13:54:57.000Z</time>
      </trkpt>
      <trkpt lat="40.053208264892376" lon="-0.45859031081050716">
        <ele>474.3</ele>
        <time>2022-04-23T13:55:13.000Z</time>
      </trkpt>
      <trkpt lat="40.05330036132342" lon="-0.4592022710549587">
        <ele>465</ele>
        <time>2022-04-23T13:56:06.000Z</time>
      </trkpt>
      <trkpt lat="40.05326521460003" lon="-0.4593372944068868">
        <ele>466.8</ele>
        <time>2022-04-23T13:56:29.000Z</time>
      </trkpt>
      <trkpt lat="40.053322983519436" lon="-0.45923475055414115">
        <ele>469.3</ele>
        <time>2022-04-23T13:56:52.000Z</time>
      </trkpt>
      <trkpt lat="40.05355942834561" lon="-0.45899960251099914">
        <ele>463.2</ele>
        <time>2022-04-23T13:57:16.000Z</time>
      </trkpt>
      <trkpt lat="40.05374695542437" lon="-0.45868752065568985">
        <ele>460.4</ele>
        <time>2022-04-23T13:57:42.000Z</time>
      </trkpt>
      <trkpt lat="40.053944855068345" lon="-0.4585519632394908">
        <ele>456.5</ele>
        <time>2022-04-23T13:58:01.000Z</time>
      </trkpt>
      <trkpt lat="40.054071531198765" lon="-0.458579547236257">
        <ele>454.2</ele>
        <time>2022-04-23T13:58:17.000Z</time>
      </trkpt>
      <trkpt lat="40.05405294649652" lon="-0.4586375053090395">
        <ele>452.8</ele>
        <time>2022-04-23T13:58:24.000Z</time>
      </trkpt>
      <trkpt lat="40.05385912946521" lon="-0.45879786640032305">
        <ele>448.9</ele>
        <time>2022-04-23T13:58:46.000Z</time>
      </trkpt>
      <trkpt lat="40.053653502139646" lon="-0.45914309003354087">
        <ele>445.9</ele>
        <time>2022-04-23T13:59:15.000Z</time>
      </trkpt>
      <trkpt lat="40.05332908363398" lon="-0.45988196847279156">
        <ele>437.1</ele>
        <time>2022-04-23T14:00:12.000Z</time>
      </trkpt>
      <trkpt lat="40.05306475114705" lon="-0.4602912381537031">
        <ele>429.8</ele>
        <time>2022-04-23T14:00:53.000Z</time>
      </trkpt>
      <trkpt lat="40.05318617436231" lon="-0.46046418325634036">
        <ele>427.1</ele>
        <time>2022-04-23T14:01:16.000Z</time>
      </trkpt>
      <trkpt lat="40.0532573076056" lon="-0.4604642077447339">
        <ele>429.4</ele>
        <time>2022-04-23T14:01:36.000Z</time>
      </trkpt>
      <trkpt lat="40.053334473186254" lon="-0.4604005546429725">
        <ele>427.4</ele>
        <time>2022-04-23T14:01:50.000Z</time>
      </trkpt>
      <trkpt lat="40.053780011492684" lon="-0.4597378343845194">
        <ele>418.7</ele>
        <time>2022-04-23T14:02:59.000Z</time>
      </trkpt>
      <trkpt lat="40.053894809024875" lon="-0.45968555505599884">
        <ele>416.3</ele>
        <time>2022-04-23T14:03:11.000Z</time>
      </trkpt>
      <trkpt lat="40.054199587576505" lon="-0.45938075207170087">
        <ele>416.1</ele>
        <time>2022-04-23T14:03:49.000Z</time>
      </trkpt>
      <trkpt lat="40.05425618634281" lon="-0.4593694238768455">
        <ele>414.6</ele>
        <time>2022-04-23T14:03:55.000Z</time>
      </trkpt>
      <trkpt lat="40.05432473867829" lon="-0.4594165768342801">
        <ele>411.3</ele>
        <time>2022-04-23T14:04:08.000Z</time>
      </trkpt>
      <trkpt lat="40.05405558376697" lon="-0.4599150030743535">
        <ele>405.6</ele>
        <time>2022-04-23T14:05:12.000Z</time>
      </trkpt>
      <trkpt lat="40.053871323332366" lon="-0.4601145128723317">
        <ele>402.6</ele>
        <time>2022-04-23T14:05:53.000Z</time>
      </trkpt>
      <trkpt lat="40.05370200053908" lon="-0.4607694496298171">
        <ele>397</ele>
        <time>2022-04-23T14:06:50.000Z</time>
      </trkpt>
      <trkpt lat="40.053576767478766" lon="-0.461019062424622">
        <ele>392.5</ele>
        <time>2022-04-23T14:07:11.000Z</time>
      </trkpt>
      <trkpt lat="40.053456920046216" lon="-0.4611639297624491">
        <ele>391.8</ele>
        <time>2022-04-23T14:07:25.000Z</time>
      </trkpt>
      <trkpt lat="40.053308480998815" lon="-0.4612575688553411">
        <ele>391.5</ele>
        <time>2022-04-23T14:07:40.000Z</time>
      </trkpt>
      <trkpt lat="40.05302232883678" lon="-0.4613176150380674">
        <ele>389.7</ele>
        <time>2022-04-23T14:08:06.000Z</time>
      </trkpt>
      <trkpt lat="40.05279836506872" lon="-0.4612698522391627">
        <ele>386.5</ele>
        <time>2022-04-23T14:08:25.000Z</time>
      </trkpt>
      <trkpt lat="40.052655667811656" lon="-0.46119499346677695">
        <ele>383.7</ele>
        <time>2022-04-23T14:08:38.000Z</time>
      </trkpt>
      <trkpt lat="40.05247444489092" lon="-0.4609934095954216">
        <ele>380.4</ele>
        <time>2022-04-23T14:09:04.000Z</time>
      </trkpt>
      <trkpt lat="40.0524839609628" lon="-0.460792550427227">
        <ele>380.1</ele>
        <time>2022-04-23T14:09:55.000Z</time>
      </trkpt>
      <trkpt lat="40.05244861259877" lon="-0.4609198258396478">
        <ele>379.9</ele>
        <time>2022-04-23T14:10:13.000Z</time>
      </trkpt>
      <trkpt lat="40.05241823080553" lon="-0.4609229904718662">
        <ele>379.5</ele>
        <time>2022-04-23T14:10:20.000Z</time>
      </trkpt>
      <trkpt lat="40.05242276602646" lon="-0.4607254636955625">
        <ele>379.8</ele>
        <time>2022-04-23T14:10:36.000Z</time>
      </trkpt>
      <trkpt lat="40.05246079682336" lon="-0.4605761080647401">
        <ele>380.9</ele>
        <time>2022-04-23T14:11:04.000Z</time>
      </trkpt>
      <trkpt lat="40.05260574914438" lon="-0.46037921743708643">
        <ele>381.5</ele>
        <time>2022-04-23T14:11:25.000Z</time>
      </trkpt>
      <trkpt lat="40.05264497905935" lon="-0.4603902561436817">
        <ele>381.5</ele>
        <time>2022-04-23T14:11:38.000Z</time>
      </trkpt>
      <trkpt lat="40.05254449925361" lon="-0.46006724882263">
        <ele>384.9</ele>
        <time>2022-04-23T14:12:19.000Z</time>
      </trkpt>
      <trkpt lat="40.05245995340254" lon="-0.4600559450436352">
        <ele>384.9</ele>
        <time>2022-04-23T14:12:29.000Z</time>
      </trkpt>
      <trkpt lat="40.05222196931111" lon="-0.46022396401525983">
        <ele>385.3</ele>
        <time>2022-04-23T14:13:00.000Z</time>
      </trkpt>
      <trkpt lat="40.05217475504481" lon="-0.46048458218024985">
        <ele>385.5</ele>
        <time>2022-04-23T14:13:32.000Z</time>
      </trkpt>
      <trkpt lat="40.052123111999066" lon="-0.46050874106251904">
        <ele>386</ele>
        <time>2022-04-23T14:14:08.000Z</time>
      </trkpt>
      <trkpt lat="40.05212400662685" lon="-0.46056432033264744">
        <ele>385.9</ele>
        <time>2022-04-23T14:14:32.000Z</time>
      </trkpt>
      <trkpt lat="40.052103104918665" lon="-0.46054529509975256">
        <ele>385.4</ele>
        <time>2022-04-23T14:14:43.000Z</time>
      </trkpt>
      <trkpt lat="40.05212129328054" lon="-0.4605203643532621">
        <ele>386.5</ele>
        <time>2022-04-23T14:14:56.000Z</time>
      </trkpt>
      <trkpt lat="40.052106928626806" lon="-0.4607105619734751">
        <ele>388.9</ele>
        <time>2022-04-23T14:15:19.000Z</time>
      </trkpt>
      <trkpt lat="40.052082351017205" lon="-0.46071919271283596">
        <ele>390.2</ele>
        <time>2022-04-23T14:15:27.000Z</time>
      </trkpt>
      <trkpt lat="40.052102073402864" lon="-0.46070056154886063">
        <ele>390.9</ele>
        <time>2022-04-23T14:15:57.000Z</time>
      </trkpt>
      <trkpt lat="40.052079244156694" lon="-0.46066222553501673">
        <ele>389.2</ele>
        <time>2022-04-23T14:16:25.000Z</time>
      </trkpt>
      <trkpt lat="40.0518797830802" lon="-0.4609478527875143">
        <ele>389.5</ele>
        <time>2022-04-23T14:17:06.000Z</time>
      </trkpt>
      <trkpt lat="40.051706092413" lon="-0.4610641035941141">
        <ele>391</ele>
        <time>2022-04-23T14:17:28.000Z</time>
      </trkpt>
      <trkpt lat="40.05166164875688" lon="-0.46105695399417096">
        <ele>390.8</ele>
        <time>2022-04-23T14:17:40.000Z</time>
      </trkpt>
      <trkpt lat="40.05170318525714" lon="-0.46110801155375963">
        <ele>389.7</ele>
        <time>2022-04-23T14:18:33.000Z</time>
      </trkpt>
      <trkpt lat="40.05160105978202" lon="-0.46116777781105384">
        <ele>390.4</ele>
        <time>2022-04-23T14:19:10.000Z</time>
      </trkpt>
      <trkpt lat="40.051562244010945" lon="-0.46127623110384425">
        <ele>390.4</ele>
        <time>2022-04-23T14:19:23.000Z</time>
      </trkpt>
      <trkpt lat="40.05137809656654" lon="-0.4613778253431964">
        <ele>390.6</ele>
        <time>2022-04-23T14:20:00.000Z</time>
      </trkpt>
      <trkpt lat="40.05135404611594" lon="-0.4617033091815166">
        <ele>397.5</ele>
        <time>2022-04-23T14:20:40.000Z</time>
      </trkpt>
      <trkpt lat="40.05131141071412" lon="-0.4618034565559597">
        <ele>398</ele>
        <time>2022-04-23T14:20:50.000Z</time>
      </trkpt>
      <trkpt lat="40.05119360639783" lon="-0.46186984075371523">
        <ele>399.4</ele>
        <time>2022-04-23T14:21:04.000Z</time>
      </trkpt>
      <trkpt lat="40.051179595785506" lon="-0.46191146846024966">
        <ele>398.7</ele>
        <time>2022-04-23T14:21:52.000Z</time>
      </trkpt>
      <trkpt lat="40.05112983443676" lon="-0.461823873737392">
        <ele>398.9</ele>
        <time>2022-04-23T14:22:07.000Z</time>
      </trkpt>
      <trkpt lat="40.0509763235443" lon="-0.46183435462116995">
        <ele>395</ele>
        <time>2022-04-23T14:22:29.000Z</time>
      </trkpt>
      <trkpt lat="40.05086528607881" lon="-0.461950686785508">
        <ele>393.9</ele>
        <time>2022-04-23T14:22:57.000Z</time>
      </trkpt>
      <trkpt lat="40.050802516680996" lon="-0.4619204290505883">
        <ele>394.7</ele>
        <time>2022-04-23T14:23:16.000Z</time>
      </trkpt>
      <trkpt lat="40.050705108769876" lon="-0.4620077932408787">
        <ele>393.2</ele>
        <time>2022-04-23T14:23:39.000Z</time>
      </trkpt>
      <trkpt lat="40.05063193025357" lon="-0.4620264912562082">
        <ele>394.6</ele>
        <time>2022-04-23T14:24:16.000Z</time>
      </trkpt>
      <trkpt lat="40.05058157968242" lon="-0.46216204791900767">
        <ele>394.3</ele>
        <time>2022-04-23T14:24:53.000Z</time>
      </trkpt>
      <trkpt lat="40.050574838242106" lon="-0.4622729975419207">
        <ele>393.6</ele>
        <time>2022-04-23T14:25:06.000Z</time>
      </trkpt>
      <trkpt lat="40.05061377540094" lon="-0.4624542852071572">
        <ele>393.4</ele>
        <time>2022-04-23T14:26:40.000Z</time>
      </trkpt>
      <trkpt lat="40.05054965034464" lon="-0.46251766813877226">
        <ele>392.2</ele>
        <time>2022-04-23T14:26:58.000Z</time>
      </trkpt>
      <trkpt lat="40.05057745678147" lon="-0.46264572160775663">
        <ele>394.3</ele>
        <time>2022-04-23T14:27:24.000Z</time>
      </trkpt>
      <trkpt lat="40.050550590495945" lon="-0.4627130111909206">
        <ele>396.4</ele>
        <time>2022-04-23T14:27:42.000Z</time>
      </trkpt>
      <trkpt lat="40.050629937527226" lon="-0.4627181598085173">
        <ele>394</ele>
        <time>2022-04-23T14:28:00.000Z</time>
      </trkpt>
      <trkpt lat="40.05055069071865" lon="-0.4627815790925007">
        <ele>395.3</ele>
        <time>2022-04-23T14:28:49.000Z</time>
      </trkpt>
      <trkpt lat="40.05057943289945" lon="-0.46282100208890997">
        <ele>396.2</ele>
        <time>2022-04-23T14:29:04.000Z</time>
      </trkpt>
      <trkpt lat="40.05058455314711" lon="-0.4629464509391909">
        <ele>397.9</ele>
        <time>2022-04-23T14:29:17.000Z</time>
      </trkpt>
      <trkpt lat="40.05056142792025" lon="-0.46298186196790636">
        <ele>398.4</ele>
        <time>2022-04-23T14:29:23.000Z</time>
      </trkpt>
      <trkpt lat="40.05050255931493" lon="-0.46297050311344773">
        <ele>397</ele>
        <time>2022-04-23T14:29:37.000Z</time>
      </trkpt>
      <trkpt lat="40.05036459900346" lon="-0.4631611344595472">
        <ele>396.6</ele>
        <time>2022-04-23T14:30:09.000Z</time>
      </trkpt>
      <trkpt lat="40.050392996343426" lon="-0.46325123036357624">
        <ele>397.2</ele>
        <time>2022-04-23T14:30:33.000Z</time>
      </trkpt>
      <trkpt lat="40.050332166858944" lon="-0.4633707947169831">
        <ele>397.1</ele>
        <time>2022-04-23T14:30:50.000Z</time>
      </trkpt>
      <trkpt lat="40.05031342299554" lon="-0.46350085374692307">
        <ele>397.5</ele>
        <time>2022-04-23T14:31:05.000Z</time>
      </trkpt>
      <trkpt lat="40.05025070269031" lon="-0.4635964457878743">
        <ele>399.1</ele>
        <time>2022-04-23T14:31:19.000Z</time>
      </trkpt>
      <trkpt lat="40.05027212173447" lon="-0.4636449093998708">
        <ele>400.2</ele>
        <time>2022-04-23T14:31:31.000Z</time>
      </trkpt>
      <trkpt lat="40.050253770291036" lon="-0.4637033657209395">
        <ele>399.3</ele>
        <time>2022-04-23T14:31:39.000Z</time>
      </trkpt>
      <trkpt lat="40.05019104468557" lon="-0.4637418240413335">
        <ele>399.1</ele>
        <time>2022-04-23T14:31:47.000Z</time>
      </trkpt>
      <trkpt lat="40.05005342106196" lon="-0.46369275583174724">
        <ele>399.5</ele>
        <time>2022-04-23T14:32:06.000Z</time>
      </trkpt>
      <trkpt lat="40.04993438724175" lon="-0.46371919195288297">
        <ele>399.4</ele>
        <time>2022-04-23T14:32:26.000Z</time>
      </trkpt>
      <trkpt lat="40.04984347833157" lon="-0.46384589350011746">
        <ele>401.5</ele>
        <time>2022-04-23T14:32:52.000Z</time>
      </trkpt>
      <trkpt lat="40.04976499497105" lon="-0.4638806760399481">
        <ele>402.9</ele>
        <time>2022-04-23T14:33:03.000Z</time>
      </trkpt>
      <trkpt lat="40.049759802619064" lon="-0.463922892745914">
        <ele>403.5</ele>
        <time>2022-04-23T14:33:15.000Z</time>
      </trkpt>
      <trkpt lat="40.049707920019245" lon="-0.46392693757912384">
        <ele>402.7</ele>
        <time>2022-04-23T14:33:28.000Z</time>
      </trkpt>
      <trkpt lat="40.04965697660584" lon="-0.46399493132524694">
        <ele>402.9</ele>
        <time>2022-04-23T14:33:43.000Z</time>
      </trkpt>
      <trkpt lat="40.049545259228864" lon="-0.4640068693375365">
        <ele>405.6</ele>
        <time>2022-04-23T14:34:44.000Z</time>
      </trkpt>
      <trkpt lat="40.04954800419201" lon="-0.46407592550223886">
        <ele>403.2</ele>
        <time>2022-04-23T14:36:15.000Z</time>
      </trkpt>
      <trkpt lat="40.049596885299" lon="-0.46409940670206945">
        <ele>404.6</ele>
        <time>2022-04-23T14:36:31.000Z</time>
      </trkpt>
      <trkpt lat="40.049602948950714" lon="-0.46414561762089457">
        <ele>405.6</ele>
        <time>2022-04-23T14:40:40.000Z</time>
      </trkpt>
      <trkpt lat="40.04962745472697" lon="-0.46412864988560626">
        <ele>405.9</ele>
        <time>2022-04-23T14:41:31.000Z</time>
      </trkpt>
      <trkpt lat="40.049605319847096" lon="-0.4640791109065564">
        <ele>405.7</ele>
        <time>2022-04-23T14:42:07.000Z</time>
      </trkpt>
      <trkpt lat="40.049634444247694" lon="-0.4641251435196849">
        <ele>404.9</ele>
        <time>2022-04-23T14:42:28.000Z</time>
      </trkpt>
      <trkpt lat="40.04962026962397" lon="-0.46410796560215706">
        <ele>406</ele>
        <time>2022-04-23T14:42:38.000Z</time>
      </trkpt>
      <trkpt lat="40.04966532825127" lon="-0.4640868813838275">
        <ele>408.3</ele>
        <time>2022-04-23T14:42:48.000Z</time>
      </trkpt>
      <trkpt lat="40.04967410477485" lon="-0.46403168813156437">
        <ele>409.6</ele>
        <time>2022-04-23T14:42:54.000Z</time>
      </trkpt>
      <trkpt lat="40.05008383948474" lon="-0.4643015221392135">
        <ele>410.3</ele>
        <time>2022-04-23T14:43:51.000Z</time>
      </trkpt>
      <trkpt lat="40.05012460321807" lon="-0.4641447433733284">
        <ele>410.8</ele>
        <time>2022-04-23T14:43:53.000Z</time>
      </trkpt>
      <trkpt lat="40.05009712849043" lon="-0.464095658925855">
        <ele>410.6</ele>
        <time>2022-04-23T14:43:55.000Z</time>
      </trkpt>
      <trkpt lat="40.050074799268444" lon="-0.4641264780682714">
        <ele>409.8</ele>
        <time>2022-04-23T14:43:56.000Z</time>
      </trkpt>
      <trkpt lat="40.050129634429375" lon="-0.46415305172375254">
        <ele>409</ele>
        <time>2022-04-23T14:43:58.000Z</time>
      </trkpt>
      <trkpt lat="40.05015313649209" lon="-0.4642306325063638">
        <ele>409.6</ele>
        <time>2022-04-23T14:44:01.000Z</time>
      </trkpt>
      <trkpt lat="40.05012106965819" lon="-0.46443752240897945">
        <ele>410.4</ele>
        <time>2022-04-23T14:44:06.000Z</time>
      </trkpt>
      <trkpt lat="40.0501026529177" lon="-0.4644778203750375">
        <ele>410.4</ele>
        <time>2022-04-23T14:44:07.000Z</time>
      </trkpt>
      <trkpt lat="40.04989130519716" lon="-0.46451001594747915">
        <ele>410.7</ele>
        <time>2022-04-23T14:44:11.000Z</time>
      </trkpt>
      <trkpt lat="40.04975821545741" lon="-0.4645113874247208">
        <ele>410.7</ele>
        <time>2022-04-23T14:44:14.000Z</time>
      </trkpt>
      <trkpt lat="40.049630978185235" lon="-0.4644583684861292">
        <ele>410.7</ele>
        <time>2022-04-23T14:44:20.000Z</time>
      </trkpt>
      <trkpt lat="40.04961888545124" lon="-0.4643780629156996">
        <ele>410.5</ele>
        <time>2022-04-23T14:44:29.000Z</time>
      </trkpt>
      <trkpt lat="40.04966514132541" lon="-0.46426147207801916">
        <ele>410.1</ele>
        <time>2022-04-23T14:45:01.000Z</time>
      </trkpt>
      <trkpt lat="40.0497882185765" lon="-0.4642426482521407">
        <ele>410.5</ele>
        <time>2022-04-23T14:45:59.000Z</time>
      </trkpt>
      <trkpt lat="40.04975795295134" lon="-0.46417759149031584">
        <ele>412.2</ele>
        <time>2022-04-23T14:46:48.000Z</time>
      </trkpt>
      <trkpt lat="40.049721351860995" lon="-0.46420339159792223">
        <ele>413.4</ele>
        <time>2022-04-23T14:47:11.000Z</time>
      </trkpt>
      <trkpt lat="40.04968865318942" lon="-0.4640947957553887">
        <ele>411.9</ele>
        <time>2022-04-23T14:47:30.000Z</time>
      </trkpt>
      <trkpt lat="40.04974546145855" lon="-0.46403501333836633">
        <ele>409.7</ele>
        <time>2022-04-23T14:47:49.000Z</time>
      </trkpt>
      <trkpt lat="40.04961887691986" lon="-0.4640692348372926">
        <ele>408.9</ele>
        <time>2022-04-23T14:48:22.000Z</time>
      </trkpt>
      <trkpt lat="40.049622932780515" lon="-0.4641214994661457">
        <ele>409.3</ele>
        <time>2022-04-23T14:49:14.000Z</time>
      </trkpt>
      <trkpt lat="40.049561093458834" lon="-0.4641211534486855">
        <ele>408.5</ele>
        <time>2022-04-23T14:50:32.000Z</time>
      </trkpt>
      <trkpt lat="40.04961423726188" lon="-0.4641239941172909">
        <ele>410.4</ele>
        <time>2022-04-23T14:51:35.000Z</time>
      </trkpt>
      <trkpt lat="40.04965189145794" lon="-0.4640600540615323">
        <ele>408.8</ele>
        <time>2022-04-23T14:51:58.000Z</time>
      </trkpt>
      <trkpt lat="40.04966311233529" lon="-0.4639105145421771">
        <ele>406.4</ele>
        <time>2022-04-23T14:53:06.000Z</time>
      </trkpt>
      <trkpt lat="40.04961615479318" lon="-0.4639247524116769">
        <ele>408.4</ele>
        <time>2022-04-23T14:53:31.000Z</time>
      </trkpt>
      <trkpt lat="40.049689922430694" lon="-0.4640685045285131">
        <ele>409.2</ele>
        <time>2022-04-23T14:54:17.000Z</time>
      </trkpt>
      <trkpt lat="40.04969117595463" lon="-0.46400966195846144">
        <ele>410</ele>
        <time>2022-04-23T14:54:29.000Z</time>
      </trkpt>
      <trkpt lat="40.04952806426958" lon="-0.46395809873500304">
        <ele>410.2</ele>
        <time>2022-04-23T14:55:00.000Z</time>
      </trkpt>
      <trkpt lat="40.04949349676656" lon="-0.4638883135186125">
        <ele>409.8</ele>
        <time>2022-04-23T14:55:04.000Z</time>
      </trkpt>
      <trkpt lat="40.049448387583205" lon="-0.46387536431674353">
        <ele>411.4</ele>
        <time>2022-04-23T14:55:18.000Z</time>
      </trkpt>
      <trkpt lat="40.049541124784945" lon="-0.4641085582980043">
        <ele>410.9</ele>
        <time>2022-04-23T14:55:37.000Z</time>
      </trkpt>
      <trkpt lat="40.04959361181503" lon="-0.4640042369251949">
        <ele>410.5</ele>
        <time>2022-04-23T14:55:49.000Z</time>
      </trkpt>
      <trkpt lat="40.04982239249685" lon="-0.4639342951774301">
        <ele>409.3</ele>
        <time>2022-04-23T14:56:11.000Z</time>
      </trkpt>
      <trkpt lat="40.05001942706007" lon="-0.46376075819558227">
        <ele>406.9</ele>
        <time>2022-04-23T14:56:42.000Z</time>
      </trkpt>
      <trkpt lat="40.050095984413936" lon="-0.46372316849409356">
        <ele>407</ele>
        <time>2022-04-23T14:57:01.000Z</time>
      </trkpt>
      <trkpt lat="40.05023752673185" lon="-0.4637529575674572">
        <ele>409.3</ele>
        <time>2022-04-23T14:57:26.000Z</time>
      </trkpt>
      <trkpt lat="40.050316218829494" lon="-0.4636886215573155">
        <ele>408.3</ele>
        <time>2022-04-23T14:57:38.000Z</time>
      </trkpt>
      <trkpt lat="40.05042058417643" lon="-0.46346262111679865">
        <ele>404.1</ele>
        <time>2022-04-23T14:58:04.000Z</time>
      </trkpt>
      <trkpt lat="40.050409210803394" lon="-0.4633738662770143">
        <ele>404.4</ele>
        <time>2022-04-23T14:58:22.000Z</time>
      </trkpt>
      <trkpt lat="40.050468533828465" lon="-0.46330117096474094">
        <ele>404.5</ele>
        <time>2022-04-23T14:58:40.000Z</time>
      </trkpt>
      <trkpt lat="40.050410324396005" lon="-0.46321902653145275">
        <ele>405.7</ele>
        <time>2022-04-23T14:59:00.000Z</time>
      </trkpt>
      <trkpt lat="40.050605215970435" lon="-0.4629565969147471">
        <ele>402.9</ele>
        <time>2022-04-23T14:59:33.000Z</time>
      </trkpt>
      <trkpt lat="40.05058180834584" lon="-0.4628838216803757">
        <ele>403.4</ele>
        <time>2022-04-23T14:59:46.000Z</time>
      </trkpt>
      <trkpt lat="40.05060759645286" lon="-0.46282078663048426">
        <ele>402.4</ele>
        <time>2022-04-23T15:00:01.000Z</time>
      </trkpt>
      <trkpt lat="40.05051619968839" lon="-0.4628216260890042">
        <ele>403.6</ele>
        <time>2022-04-23T15:00:11.000Z</time>
      </trkpt>
      <trkpt lat="40.05041570420185" lon="-0.46272941402483825">
        <ele>404</ele>
        <time>2022-04-23T15:00:19.000Z</time>
      </trkpt>
      <trkpt lat="40.05037924352758" lon="-0.46261059714820596">
        <ele>404.1</ele>
        <time>2022-04-23T15:00:26.000Z</time>
      </trkpt>
      <trkpt lat="40.05039177025862" lon="-0.4625321309774094">
        <ele>404.4</ele>
        <time>2022-04-23T15:00:32.000Z</time>
      </trkpt>
      <trkpt lat="40.05054280554538" lon="-0.4625165614288409">
        <ele>399.5</ele>
        <time>2022-04-23T15:01:10.000Z</time>
      </trkpt>
      <trkpt lat="40.05057198051828" lon="-0.46242761257359477">
        <ele>398.6</ele>
        <time>2022-04-23T15:01:28.000Z</time>
      </trkpt>
      <trkpt lat="40.050646024831195" lon="-0.46236936327032113">
        <ele>398.5</ele>
        <time>2022-04-23T15:01:46.000Z</time>
      </trkpt>
      <trkpt lat="40.05068491433678" lon="-0.4621085777839815">
        <ele>400.2</ele>
        <time>2022-04-23T15:02:16.000Z</time>
      </trkpt>
      <trkpt lat="40.050748869513995" lon="-0.4620564033326122">
        <ele>400.3</ele>
        <time>2022-04-23T15:02:29.000Z</time>
      </trkpt>
      <trkpt lat="40.05078340800068" lon="-0.4620877419041099">
        <ele>399.2</ele>
        <time>2022-04-23T15:02:43.000Z</time>
      </trkpt>
      <trkpt lat="40.05079080149556" lon="-0.4620280241233434">
        <ele>398.7</ele>
        <time>2022-04-23T15:02:56.000Z</time>
      </trkpt>
      <trkpt lat="40.0507308682418" lon="-0.46214916716906806">
        <ele>399</ele>
        <time>2022-04-23T15:03:19.000Z</time>
      </trkpt>
      <trkpt lat="40.050772831818406" lon="-0.4622553213415623">
        <ele>398.5</ele>
        <time>2022-04-23T15:03:38.000Z</time>
      </trkpt>
      <trkpt lat="40.0509005919135" lon="-0.4620922353193006">
        <ele>399.7</ele>
        <time>2022-04-23T15:03:59.000Z</time>
      </trkpt>
      <trkpt lat="40.0510668269882" lon="-0.46201614073159925">
        <ele>397.5</ele>
        <time>2022-04-23T15:04:20.000Z</time>
      </trkpt>
      <trkpt lat="40.051293986360555" lon="-0.4620513142626923">
        <ele>398.2</ele>
        <time>2022-04-23T15:04:52.000Z</time>
      </trkpt>
      <trkpt lat="40.05144493104114" lon="-0.46196024291059656">
        <ele>402.9</ele>
        <time>2022-04-23T15:05:13.000Z</time>
      </trkpt>
      <trkpt lat="40.05150927550424" lon="-0.4618176846109232">
        <ele>401.7</ele>
        <time>2022-04-23T15:05:25.000Z</time>
      </trkpt>
      <trkpt lat="40.05147998196157" lon="-0.46163666684122506">
        <ele>399.4</ele>
        <time>2022-04-23T15:05:40.000Z</time>
      </trkpt>
      <trkpt lat="40.05152836585806" lon="-0.4614228474777139">
        <ele>393.2</ele>
        <time>2022-04-23T15:06:15.000Z</time>
      </trkpt>
      <trkpt lat="40.051650882870405" lon="-0.4613925674169504">
        <ele>391.1</ele>
        <time>2022-04-23T15:06:37.000Z</time>
      </trkpt>
      <trkpt lat="40.051762263408826" lon="-0.4611074232250699">
        <ele>390.4</ele>
        <time>2022-04-23T15:07:06.000Z</time>
      </trkpt>
      <trkpt lat="40.05200527405523" lon="-0.4608666790626124">
        <ele>389.7</ele>
        <time>2022-04-23T15:07:37.000Z</time>
      </trkpt>
      <trkpt lat="40.052167651370965" lon="-0.46055737556251564">
        <ele>388.2</ele>
        <time>2022-04-23T15:08:11.000Z</time>
      </trkpt>
      <trkpt lat="40.05231434593622" lon="-0.4603944125315522">
        <ele>389</ele>
        <time>2022-04-23T15:08:31.000Z</time>
      </trkpt>
      <trkpt lat="40.0523763492092" lon="-0.460242889350288">
        <ele>389</ele>
        <time>2022-04-23T15:08:43.000Z</time>
      </trkpt>
      <trkpt lat="40.052491922306466" lon="-0.46013614118203244">
        <ele>389.3</ele>
        <time>2022-04-23T15:08:58.000Z</time>
      </trkpt>
      <trkpt lat="40.05258974557537" lon="-0.4601698161734538">
        <ele>389.9</ele>
        <time>2022-04-23T15:09:11.000Z</time>
      </trkpt>
      <trkpt lat="40.052637695158914" lon="-0.460366973387616">
        <ele>387</ele>
        <time>2022-04-23T15:09:44.000Z</time>
      </trkpt>
      <trkpt lat="40.05249711765269" lon="-0.46065145829441706">
        <ele>385.2</ele>
        <time>2022-04-23T15:10:11.000Z</time>
      </trkpt>
      <trkpt lat="40.05247198129834" lon="-0.4609497011002158">
        <ele>385</ele>
        <time>2022-04-23T15:10:34.000Z</time>
      </trkpt>
      <trkpt lat="40.0523962374043" lon="-0.461145756922586">
        <ele>385.4</ele>
        <time>2022-04-23T15:10:49.000Z</time>
      </trkpt>
      <trkpt lat="40.05239066630383" lon="-0.46125215327587593">
        <ele>386.5</ele>
        <time>2022-04-23T15:10:56.000Z</time>
      </trkpt>
      <trkpt lat="40.05269055512003" lon="-0.46181955226273674">
        <ele>392.6</ele>
        <time>2022-04-23T15:11:44.000Z</time>
      </trkpt>
      <trkpt lat="40.05285294024194" lon="-0.46190511657455036">
        <ele>395.7</ele>
        <time>2022-04-23T15:11:59.000Z</time>
      </trkpt>
      <trkpt lat="40.05294741945864" lon="-0.46200284720526114">
        <ele>398.9</ele>
        <time>2022-04-23T15:12:11.000Z</time>
      </trkpt>
      <trkpt lat="40.053114234075856" lon="-0.4620645863647655">
        <ele>398.9</ele>
        <time>2022-04-23T15:12:29.000Z</time>
      </trkpt>
      <trkpt lat="40.05325430591179" lon="-0.4622008776299909">
        <ele>400.1</ele>
        <time>2022-04-23T15:12:46.000Z</time>
      </trkpt>
      <trkpt lat="40.053537365031296" lon="-0.462292514057734">
        <ele>400.6</ele>
        <time>2022-04-23T15:13:12.000Z</time>
      </trkpt>
      <trkpt lat="40.05369700387658" lon="-0.4622823310650077">
        <ele>401.3</ele>
        <time>2022-04-23T15:13:26.000Z</time>
      </trkpt>
      <trkpt lat="40.05400856349695" lon="-0.4621121190697304">
        <ele>399</ele>
        <time>2022-04-23T15:13:56.000Z</time>
      </trkpt>
      <trkpt lat="40.054202134067516" lon="-0.46206847662734485">
        <ele>397.2</ele>
        <time>2022-04-23T15:14:13.000Z</time>
      </trkpt>
      <trkpt lat="40.054284053971465" lon="-0.4621834508572242">
        <ele>397.3</ele>
        <time>2022-04-23T15:14:24.000Z</time>
      </trkpt>
      <trkpt lat="40.054314342943535" lon="-0.4623058899123685">
        <ele>396.3</ele>
        <time>2022-04-23T15:14:33.000Z</time>
      </trkpt>
      <trkpt lat="40.054308549423325" lon="-0.46245338964230237">
        <ele>394.6</ele>
        <time>2022-04-23T15:14:45.000Z</time>
      </trkpt>
      <trkpt lat="40.05433535358321" lon="-0.46250649122782317">
        <ele>394</ele>
        <time>2022-04-23T15:14:51.000Z</time>
      </trkpt>
      <trkpt lat="40.054420287588755" lon="-0.46251301551772417">
        <ele>393.7</ele>
        <time>2022-04-23T15:15:00.000Z</time>
      </trkpt>
      <trkpt lat="40.05455043563316" lon="-0.46237586846724493">
        <ele>394.4</ele>
        <time>2022-04-23T15:15:19.000Z</time>
      </trkpt>
      <trkpt lat="40.05464315334541" lon="-0.4623579154592043">
        <ele>395</ele>
        <time>2022-04-23T15:15:30.000Z</time>
      </trkpt>
      <trkpt lat="40.0547353195713" lon="-0.46252179832147444">
        <ele>399</ele>
        <time>2022-04-23T15:15:57.000Z</time>
      </trkpt>
      <trkpt lat="40.05481092972716" lon="-0.46254636200389804">
        <ele>399.9</ele>
        <time>2022-04-23T15:16:05.000Z</time>
      </trkpt>
      <trkpt lat="40.05486527167719" lon="-0.4625176911023061">
        <ele>401.5</ele>
        <time>2022-04-23T15:16:14.000Z</time>
      </trkpt>
      <trkpt lat="40.05478363782504" lon="-0.46279085283904403">
        <ele>404.9</ele>
        <time>2022-04-23T15:16:33.000Z</time>
      </trkpt>
      <trkpt lat="40.054808239326256" lon="-0.46288203430307573">
        <ele>405.2</ele>
        <time>2022-04-23T15:16:40.000Z</time>
      </trkpt>
      <trkpt lat="40.05491591469945" lon="-0.4629515403968096">
        <ele>405.3</ele>
        <time>2022-04-23T15:16:52.000Z</time>
      </trkpt>
      <trkpt lat="40.055107620206314" lon="-0.4629042761396266">
        <ele>407.4</ele>
        <time>2022-04-23T15:17:19.000Z</time>
      </trkpt>
      <trkpt lat="40.05520009123375" lon="-0.46299584446014197">
        <ele>407.7</ele>
        <time>2022-04-23T15:17:36.000Z</time>
      </trkpt>
    </trkseg>
  </trk>
</gpx>
